<?xml version="1.0" encoding="UTF-8" standalone="no" ?>
<gpx xmlns="http://www.topografix.com/GPX/1/1" xmlns:xsi="http://www.w3.org/2001/XMLSchema-instance" xsi:schemaLocation="http://www.topografix.com/GPX/1/1 http://www.topografix.com/GPX/1/1/gpx.xsd" version="1.1" creator="VisuGPX - https://www.visugpx.com">
  <metadata>
    <name>Randonnée GR5 Etape 10</name>
    <desc><![CDATA[Etape de Utelle à Aspremont]]></desc>
  </metadata>
  <wpt lat="43.91452" lon="7.24662">
    <ele>1427</ele>
  </wpt>
  <wpt lat="43.91299" lon="7.24914">
    <ele>1427</ele>
  </wpt>
  <wpt lat="43.91358" lon="7.24516">
    <ele>1427</ele>
  </wpt>
  <trk>
    <name><![CDATA[Randonnée GR5 Etape 10_1]]></name>
    <trkseg>
      <trkpt lat="43.91452" lon="7.24662">
        <ele>1427</ele>
        <time>2013-09-01T06:53:23Z</time>
      </trkpt>
      <trkpt lat="43.91451" lon="7.24682">
        <ele>1427</ele>
        <time>2013-09-01T06:53:36Z</time>
      </trkpt>
      <trkpt lat="43.91439" lon="7.2469">
        <ele>1427</ele>
        <time>2013-09-01T06:53:44Z</time>
      </trkpt>
      <trkpt lat="43.91447" lon="7.24676">
        <ele>1427</ele>
        <time>2013-09-01T06:53:45Z</time>
      </trkpt>
      <trkpt lat="43.91443" lon="7.24693">
        <ele>1427</ele>
        <time>2013-09-01T06:53:47Z</time>
      </trkpt>
      <trkpt lat="43.91436" lon="7.24683">
        <ele>1427</ele>
        <time>2013-09-01T06:53:55Z</time>
      </trkpt>
      <trkpt lat="43.91429" lon="7.24693">
        <ele>1427</ele>
        <time>2013-09-01T06:54:02Z</time>
      </trkpt>
      <trkpt lat="43.91421" lon="7.24722">
        <ele>1427</ele>
        <time>2013-09-01T06:54:08Z</time>
      </trkpt>
      <trkpt lat="43.91431" lon="7.24702">
        <ele>1427</ele>
        <time>2013-09-01T06:54:11Z</time>
      </trkpt>
      <trkpt lat="43.91419" lon="7.24732">
        <ele>1427</ele>
        <time>2013-09-01T06:54:20Z</time>
      </trkpt>
      <trkpt lat="43.91425" lon="7.24719">
        <ele>1427</ele>
        <time>2013-09-01T06:54:25Z</time>
      </trkpt>
      <trkpt lat="43.91438" lon="7.24706">
        <ele>1427</ele>
        <time>2013-09-01T06:54:28Z</time>
      </trkpt>
      <trkpt lat="43.9143" lon="7.24719">
        <ele>1427</ele>
        <time>2013-09-01T06:54:31Z</time>
      </trkpt>
      <trkpt lat="43.91427" lon="7.24737">
        <ele>1427</ele>
        <time>2013-09-01T06:54:37Z</time>
      </trkpt>
      <trkpt lat="43.91411" lon="7.24736">
        <ele>1427</ele>
        <time>2013-09-01T06:54:47Z</time>
      </trkpt>
      <trkpt lat="43.9142" lon="7.24738">
        <ele>1427</ele>
        <time>2013-09-01T06:54:59Z</time>
      </trkpt>
      <trkpt lat="43.9143" lon="7.24725">
        <ele>1427</ele>
        <time>2013-09-01T06:55:05Z</time>
      </trkpt>
      <trkpt lat="43.91416" lon="7.24748">
        <ele>1427</ele>
        <time>2013-09-01T06:55:06Z</time>
      </trkpt>
      <trkpt lat="43.91413" lon="7.24766">
        <ele>1427</ele>
        <time>2013-09-01T06:55:22Z</time>
      </trkpt>
      <trkpt lat="43.91413" lon="7.24779">
        <ele>1427</ele>
        <time>2013-09-01T06:55:30Z</time>
      </trkpt>
      <trkpt lat="43.9141" lon="7.24757">
        <ele>1427</ele>
        <time>2013-09-01T06:55:43Z</time>
      </trkpt>
      <trkpt lat="43.91406" lon="7.24778">
        <ele>1427</ele>
        <time>2013-09-01T06:55:44Z</time>
      </trkpt>
      <trkpt lat="43.91404" lon="7.24792">
        <ele>1427</ele>
        <time>2013-09-01T06:55:49Z</time>
      </trkpt>
      <trkpt lat="43.91412" lon="7.24778">
        <ele>1427</ele>
        <time>2013-09-01T06:55:53Z</time>
      </trkpt>
      <trkpt lat="43.91401" lon="7.24799">
        <ele>1427</ele>
        <time>2013-09-01T06:55:54Z</time>
      </trkpt>
      <trkpt lat="43.91411" lon="7.24797">
        <ele>1427</ele>
        <time>2013-09-01T06:55:58Z</time>
      </trkpt>
      <trkpt lat="43.91401" lon="7.24797">
        <ele>1427</ele>
        <time>2013-09-01T06:56:00Z</time>
      </trkpt>
      <trkpt lat="43.9141" lon="7.24786">
        <ele>1427</ele>
        <time>2013-09-01T06:56:03Z</time>
      </trkpt>
      <trkpt lat="43.91393" lon="7.24806">
        <ele>1427</ele>
        <time>2013-09-01T06:56:08Z</time>
      </trkpt>
      <trkpt lat="43.91397" lon="7.24817">
        <ele>1427</ele>
        <time>2013-09-01T06:56:23Z</time>
      </trkpt>
      <trkpt lat="43.91385" lon="7.24836">
        <ele>1427</ele>
        <time>2013-09-01T06:56:28Z</time>
      </trkpt>
      <trkpt lat="43.91386" lon="7.24852">
        <ele>1427</ele>
        <time>2013-09-01T06:56:31Z</time>
      </trkpt>
      <trkpt lat="43.91393" lon="7.24834">
        <ele>1427</ele>
        <time>2013-09-01T06:56:33Z</time>
      </trkpt>
      <trkpt lat="43.91401" lon="7.24824">
        <ele>1427</ele>
        <time>2013-09-01T06:56:38Z</time>
      </trkpt>
      <trkpt lat="43.91388" lon="7.24837">
        <ele>1427</ele>
        <time>2013-09-01T06:56:39Z</time>
      </trkpt>
      <trkpt lat="43.91397" lon="7.24834">
        <ele>1427</ele>
        <time>2013-09-01T06:56:42Z</time>
      </trkpt>
      <trkpt lat="43.91388" lon="7.24848">
        <ele>1427</ele>
        <time>2013-09-01T06:56:44Z</time>
      </trkpt>
      <trkpt lat="43.91388" lon="7.24861">
        <ele>1427</ele>
        <time>2013-09-01T06:56:54Z</time>
      </trkpt>
      <trkpt lat="43.91395" lon="7.24844">
        <ele>1427</ele>
        <time>2013-09-01T06:57:04Z</time>
      </trkpt>
      <trkpt lat="43.91389" lon="7.24855">
        <ele>1427</ele>
        <time>2013-09-01T06:57:05Z</time>
      </trkpt>
      <trkpt lat="43.91389" lon="7.24869">
        <ele>1427</ele>
        <time>2013-09-01T06:57:07Z</time>
      </trkpt>
      <trkpt lat="43.91377" lon="7.2489">
        <ele>1427</ele>
        <time>2013-09-01T06:57:14Z</time>
      </trkpt>
      <trkpt lat="43.91388" lon="7.2486">
        <ele>1427</ele>
        <time>2013-09-01T06:57:18Z</time>
      </trkpt>
      <trkpt lat="43.91388" lon="7.24873">
        <ele>1427</ele>
        <time>2013-09-01T06:57:19Z</time>
      </trkpt>
      <trkpt lat="43.91383" lon="7.24888">
        <ele>1427</ele>
        <time>2013-09-01T06:57:21Z</time>
      </trkpt>
      <trkpt lat="43.91386" lon="7.24874">
        <ele>1427</ele>
        <time>2013-09-01T06:57:29Z</time>
      </trkpt>
      <trkpt lat="43.91378" lon="7.24891">
        <ele>1427</ele>
        <time>2013-09-01T06:57:31Z</time>
      </trkpt>
      <trkpt lat="43.91375" lon="7.24905">
        <ele>1427</ele>
        <time>2013-09-01T06:57:33Z</time>
      </trkpt>
      <trkpt lat="43.91381" lon="7.24895">
        <ele>1427</ele>
        <time>2013-09-01T06:57:35Z</time>
      </trkpt>
      <trkpt lat="43.91377" lon="7.24906">
        <ele>1427</ele>
        <time>2013-09-01T06:57:49Z</time>
      </trkpt>
      <trkpt lat="43.91383" lon="7.24892">
        <ele>1427</ele>
        <time>2013-09-01T06:57:50Z</time>
      </trkpt>
      <trkpt lat="43.91379" lon="7.24905">
        <ele>1427</ele>
        <time>2013-09-01T06:57:51Z</time>
      </trkpt>
      <trkpt lat="43.91371" lon="7.24912">
        <ele>1427</ele>
        <time>2013-09-01T06:57:54Z</time>
      </trkpt>
      <trkpt lat="43.91382" lon="7.249">
        <ele>1427</ele>
        <time>2013-09-01T06:57:56Z</time>
      </trkpt>
      <trkpt lat="43.91376" lon="7.24914">
        <ele>1427</ele>
        <time>2013-09-01T06:57:58Z</time>
      </trkpt>
      <trkpt lat="43.91368" lon="7.24907">
        <ele>1427</ele>
        <time>2013-09-01T06:58:00Z</time>
      </trkpt>
      <trkpt lat="43.91366" lon="7.2492">
        <ele>1427</ele>
        <time>2013-09-01T06:58:03Z</time>
      </trkpt>
      <trkpt lat="43.91369" lon="7.24904">
        <ele>1427</ele>
        <time>2013-09-01T06:58:14Z</time>
      </trkpt>
      <trkpt lat="43.91359" lon="7.24915">
        <ele>1427</ele>
        <time>2013-09-01T06:58:15Z</time>
      </trkpt>
      <trkpt lat="43.91353" lon="7.24925">
        <ele>1427</ele>
        <time>2013-09-01T06:58:23Z</time>
      </trkpt>
      <trkpt lat="43.91355" lon="7.24913">
        <ele>1427</ele>
        <time>2013-09-01T06:58:25Z</time>
      </trkpt>
      <trkpt lat="43.91349" lon="7.24929">
        <ele>1427</ele>
        <time>2013-09-01T06:58:29Z</time>
      </trkpt>
      <trkpt lat="43.91357" lon="7.24914">
        <ele>1427</ele>
        <time>2013-09-01T06:58:31Z</time>
      </trkpt>
      <trkpt lat="43.91347" lon="7.24921">
        <ele>1427</ele>
        <time>2013-09-01T06:58:32Z</time>
      </trkpt>
      <trkpt lat="43.9134" lon="7.24929">
        <ele>1427</ele>
        <time>2013-09-01T06:58:48Z</time>
      </trkpt>
      <trkpt lat="43.91342" lon="7.24917">
        <ele>1427</ele>
        <time>2013-09-01T06:58:49Z</time>
      </trkpt>
      <trkpt lat="43.91333" lon="7.24921">
        <ele>1427</ele>
        <time>2013-09-01T06:58:59Z</time>
      </trkpt>
      <trkpt lat="43.91323" lon="7.24914">
        <ele>1427</ele>
        <time>2013-09-01T06:59:11Z</time>
      </trkpt>
      <trkpt lat="43.9132" lon="7.24926">
        <ele>1427</ele>
        <time>2013-09-01T06:59:17Z</time>
      </trkpt>
      <trkpt lat="43.91328" lon="7.24915">
        <ele>1427</ele>
        <time>2013-09-01T06:59:18Z</time>
      </trkpt>
      <trkpt lat="43.91321" lon="7.24929">
        <ele>1427</ele>
        <time>2013-09-01T06:59:19Z</time>
      </trkpt>
      <trkpt lat="43.91325" lon="7.24914">
        <ele>1427</ele>
        <time>2013-09-01T06:59:22Z</time>
      </trkpt>
      <trkpt lat="43.91318" lon="7.24927">
        <ele>1427</ele>
        <time>2013-09-01T06:59:23Z</time>
      </trkpt>
      <trkpt lat="43.91309" lon="7.24934">
        <ele>1427</ele>
        <time>2013-09-01T06:59:36Z</time>
      </trkpt>
      <trkpt lat="43.91305" lon="7.24922">
        <ele>1427</ele>
        <time>2013-09-01T06:59:43Z</time>
      </trkpt>
      <trkpt lat="43.91308" lon="7.24933">
        <ele>1427</ele>
        <time>2013-09-01T06:59:45Z</time>
      </trkpt>
      <trkpt lat="43.91301" lon="7.24918">
        <ele>1427</ele>
        <time>2013-09-01T06:59:48Z</time>
      </trkpt>
      <trkpt lat="43.91305" lon="7.2493">
        <ele>1427</ele>
        <time>2013-09-01T06:59:53Z</time>
      </trkpt>
      <trkpt lat="43.9131" lon="7.24945">
        <ele>1427</ele>
        <time>2013-09-01T07:00:00Z</time>
      </trkpt>
      <trkpt lat="43.91306" lon="7.24933">
        <ele>1427</ele>
        <time>2013-09-01T07:00:06Z</time>
      </trkpt>
      <trkpt lat="43.91298" lon="7.24942">
        <ele>1427</ele>
        <time>2013-09-01T07:00:09Z</time>
      </trkpt>
      <trkpt lat="43.91308" lon="7.2493">
        <ele>1427</ele>
        <time>2013-09-01T07:00:11Z</time>
      </trkpt>
      <trkpt lat="43.91297" lon="7.24944">
        <ele>1427</ele>
        <time>2013-09-01T07:00:13Z</time>
      </trkpt>
      <trkpt lat="43.91297" lon="7.2493">
        <ele>1427</ele>
        <time>2013-09-01T07:00:15Z</time>
      </trkpt>
      <trkpt lat="43.91297" lon="7.24947">
        <ele>1427</ele>
        <time>2013-09-01T07:00:16Z</time>
      </trkpt>
      <trkpt lat="43.91295" lon="7.24934">
        <ele>1427</ele>
        <time>2013-09-01T07:00:19Z</time>
      </trkpt>
      <trkpt lat="43.91299" lon="7.24914">
        <ele>1427</ele>
        <time>2013-09-01T07:00:25Z</time>
      </trkpt>
      <trkpt lat="43.91358" lon="7.24516">
        <ele>1427</ele>
        <time>2013-09-01T07:00:27Z</time>
      </trkpt>
      <trkpt lat="43.91358" lon="7.24516">
        <ele>805</ele>
        <time>2013-09-01T07:00:27Z</time>
      </trkpt>
      <trkpt lat="43.91348" lon="7.24514">
        <ele>817</ele>
        <time>2013-09-01T07:00:44Z</time>
      </trkpt>
      <trkpt lat="43.91339" lon="7.24519">
        <ele>817</ele>
        <time>2013-09-01T07:00:57Z</time>
      </trkpt>
      <trkpt lat="43.9133" lon="7.24517">
        <ele>817</ele>
        <time>2013-09-01T07:01:08Z</time>
      </trkpt>
      <trkpt lat="43.9132" lon="7.24516">
        <ele>824</ele>
        <time>2013-09-01T07:01:20Z</time>
      </trkpt>
      <trkpt lat="43.91313" lon="7.24525">
        <ele>830</ele>
        <time>2013-09-01T07:01:27Z</time>
      </trkpt>
      <trkpt lat="43.91303" lon="7.24527">
        <ele>825</ele>
        <time>2013-09-01T07:01:38Z</time>
      </trkpt>
      <trkpt lat="43.91295" lon="7.24534">
        <ele>825</ele>
        <time>2013-09-01T07:01:46Z</time>
      </trkpt>
      <trkpt lat="43.91286" lon="7.2453">
        <ele>825</ele>
        <time>2013-09-01T07:01:56Z</time>
      </trkpt>
      <trkpt lat="43.91276" lon="7.24528">
        <ele>825</ele>
        <time>2013-09-01T07:02:06Z</time>
      </trkpt>
      <trkpt lat="43.91267" lon="7.24526">
        <ele>813</ele>
        <time>2013-09-01T07:02:15Z</time>
      </trkpt>
      <trkpt lat="43.91257" lon="7.24528">
        <ele>813</ele>
        <time>2013-09-01T07:02:24Z</time>
      </trkpt>
      <trkpt lat="43.91247" lon="7.24532">
        <ele>813</ele>
        <time>2013-09-01T07:02:33Z</time>
      </trkpt>
      <trkpt lat="43.91239" lon="7.24528">
        <ele>806</ele>
        <time>2013-09-01T07:02:43Z</time>
      </trkpt>
      <trkpt lat="43.91232" lon="7.2452">
        <ele>806</ele>
        <time>2013-09-01T07:02:52Z</time>
      </trkpt>
      <trkpt lat="43.91224" lon="7.24513">
        <ele>801</ele>
        <time>2013-09-01T07:03:00Z</time>
      </trkpt>
      <trkpt lat="43.91214" lon="7.24512">
        <ele>801</ele>
        <time>2013-09-01T07:03:10Z</time>
      </trkpt>
      <trkpt lat="43.91205" lon="7.24515">
        <ele>801</ele>
        <time>2013-09-01T07:03:18Z</time>
      </trkpt>
      <trkpt lat="43.91196" lon="7.24514">
        <ele>801</ele>
        <time>2013-09-01T07:03:25Z</time>
      </trkpt>
      <trkpt lat="43.91188" lon="7.24517">
        <ele>806</ele>
        <time>2013-09-01T07:03:32Z</time>
      </trkpt>
      <trkpt lat="43.91179" lon="7.24512">
        <ele>806</ele>
        <time>2013-09-01T07:03:40Z</time>
      </trkpt>
      <trkpt lat="43.9117" lon="7.24509">
        <ele>798</ele>
        <time>2013-09-01T07:03:49Z</time>
      </trkpt>
      <trkpt lat="43.9116" lon="7.24514">
        <ele>805</ele>
        <time>2013-09-01T07:03:58Z</time>
      </trkpt>
      <trkpt lat="43.91151" lon="7.24509">
        <ele>805</ele>
        <time>2013-09-01T07:04:07Z</time>
      </trkpt>
      <trkpt lat="43.91142" lon="7.24506">
        <ele>805</ele>
        <time>2013-09-01T07:04:15Z</time>
      </trkpt>
      <trkpt lat="43.91134" lon="7.24499">
        <ele>800</ele>
        <time>2013-09-01T07:04:23Z</time>
      </trkpt>
      <trkpt lat="43.91127" lon="7.24489">
        <ele>795</ele>
        <time>2013-09-01T07:04:31Z</time>
      </trkpt>
      <trkpt lat="43.91118" lon="7.2449">
        <ele>800</ele>
        <time>2013-09-01T07:04:42Z</time>
      </trkpt>
      <trkpt lat="43.9111" lon="7.24481">
        <ele>800</ele>
        <time>2013-09-01T07:04:49Z</time>
      </trkpt>
      <trkpt lat="43.91104" lon="7.24472">
        <ele>793</ele>
        <time>2013-09-01T07:04:57Z</time>
      </trkpt>
      <trkpt lat="43.91096" lon="7.24465">
        <ele>793</ele>
        <time>2013-09-01T07:05:08Z</time>
      </trkpt>
      <trkpt lat="43.91088" lon="7.24462">
        <ele>793</ele>
        <time>2013-09-01T07:05:19Z</time>
      </trkpt>
      <trkpt lat="43.91079" lon="7.24463">
        <ele>800</ele>
        <time>2013-09-01T07:05:29Z</time>
      </trkpt>
      <trkpt lat="43.91077" lon="7.24449">
        <ele>794</ele>
        <time>2013-09-01T07:05:35Z</time>
      </trkpt>
      <trkpt lat="43.91072" lon="7.24438">
        <ele>794</ele>
        <time>2013-09-01T07:05:42Z</time>
      </trkpt>
      <trkpt lat="43.91072" lon="7.24426">
        <ele>794</ele>
        <time>2013-09-01T07:05:58Z</time>
      </trkpt>
      <trkpt lat="43.91069" lon="7.24411">
        <ele>794</ele>
        <time>2013-09-01T07:06:05Z</time>
      </trkpt>
      <trkpt lat="43.91074" lon="7.24399">
        <ele>794</ele>
        <time>2013-09-01T07:06:11Z</time>
      </trkpt>
      <trkpt lat="43.91076" lon="7.24385">
        <ele>794</ele>
        <time>2013-09-01T07:06:18Z</time>
      </trkpt>
      <trkpt lat="43.91069" lon="7.24378">
        <ele>794</ele>
        <time>2013-09-01T07:06:28Z</time>
      </trkpt>
      <trkpt lat="43.91064" lon="7.24366">
        <ele>794</ele>
        <time>2013-09-01T07:06:36Z</time>
      </trkpt>
      <trkpt lat="43.91064" lon="7.24354">
        <ele>794</ele>
        <time>2013-09-01T07:06:47Z</time>
      </trkpt>
      <trkpt lat="43.91062" lon="7.24341">
        <ele>794</ele>
        <time>2013-09-01T07:06:54Z</time>
      </trkpt>
      <trkpt lat="43.91058" lon="7.24326">
        <ele>794</ele>
        <time>2013-09-01T07:07:05Z</time>
      </trkpt>
      <trkpt lat="43.91057" lon="7.24313">
        <ele>800</ele>
        <time>2013-09-01T07:07:18Z</time>
      </trkpt>
      <trkpt lat="43.9105" lon="7.24304">
        <ele>800</ele>
        <time>2013-09-01T07:07:31Z</time>
      </trkpt>
      <trkpt lat="43.91043" lon="7.24312">
        <ele>806</ele>
        <time>2013-09-01T07:07:55Z</time>
      </trkpt>
      <trkpt lat="43.91043" lon="7.24298">
        <ele>806</ele>
        <time>2013-09-01T07:08:01Z</time>
      </trkpt>
      <trkpt lat="43.91036" lon="7.24291">
        <ele>812</ele>
        <time>2013-09-01T07:08:29Z</time>
      </trkpt>
      <trkpt lat="43.9103" lon="7.24281">
        <ele>812</ele>
        <time>2013-09-01T07:08:37Z</time>
      </trkpt>
      <trkpt lat="43.9104" lon="7.24274">
        <ele>778</ele>
        <time>2013-09-01T07:08:44Z</time>
      </trkpt>
      <trkpt lat="43.91032" lon="7.24265">
        <ele>778</ele>
        <time>2013-09-01T07:08:53Z</time>
      </trkpt>
      <trkpt lat="43.91026" lon="7.24256">
        <ele>778</ele>
        <time>2013-09-01T07:09:00Z</time>
      </trkpt>
      <trkpt lat="43.91019" lon="7.24247">
        <ele>768</ele>
        <time>2013-09-01T07:09:07Z</time>
      </trkpt>
      <trkpt lat="43.9101" lon="7.24249">
        <ele>768</ele>
        <time>2013-09-01T07:09:14Z</time>
      </trkpt>
      <trkpt lat="43.91002" lon="7.24245">
        <ele>774</ele>
        <time>2013-09-01T07:09:22Z</time>
      </trkpt>
      <trkpt lat="43.90994" lon="7.24233">
        <ele>774</ele>
        <time>2013-09-01T07:09:32Z</time>
      </trkpt>
      <trkpt lat="43.90987" lon="7.24225">
        <ele>774</ele>
        <time>2013-09-01T07:09:38Z</time>
      </trkpt>
      <trkpt lat="43.90981" lon="7.24215">
        <ele>774</ele>
        <time>2013-09-01T07:09:46Z</time>
      </trkpt>
      <trkpt lat="43.90972" lon="7.24215">
        <ele>774</ele>
        <time>2013-09-01T07:09:52Z</time>
      </trkpt>
      <trkpt lat="43.90964" lon="7.24207">
        <ele>774</ele>
        <time>2013-09-01T07:10:01Z</time>
      </trkpt>
      <trkpt lat="43.90956" lon="7.24201">
        <ele>774</ele>
        <time>2013-09-01T07:10:08Z</time>
      </trkpt>
      <trkpt lat="43.90953" lon="7.24189">
        <ele>774</ele>
        <time>2013-09-01T07:10:17Z</time>
      </trkpt>
      <trkpt lat="43.90943" lon="7.24189">
        <ele>774</ele>
        <time>2013-09-01T07:10:25Z</time>
      </trkpt>
      <trkpt lat="43.90934" lon="7.24189">
        <ele>774</ele>
        <time>2013-09-01T07:10:41Z</time>
      </trkpt>
      <trkpt lat="43.90929" lon="7.24177">
        <ele>774</ele>
        <time>2013-09-01T07:10:51Z</time>
      </trkpt>
      <trkpt lat="43.90925" lon="7.24165">
        <ele>774</ele>
        <time>2013-09-01T07:10:59Z</time>
      </trkpt>
      <trkpt lat="43.90927" lon="7.24152">
        <ele>768</ele>
        <time>2013-09-01T07:11:03Z</time>
      </trkpt>
      <trkpt lat="43.90919" lon="7.24145">
        <ele>778</ele>
        <time>2013-09-01T07:11:19Z</time>
      </trkpt>
      <trkpt lat="43.90916" lon="7.24133">
        <ele>784</ele>
        <time>2013-09-01T07:11:27Z</time>
      </trkpt>
      <trkpt lat="43.9091" lon="7.24121">
        <ele>790</ele>
        <time>2013-09-01T07:11:42Z</time>
      </trkpt>
      <trkpt lat="43.90914" lon="7.24109">
        <ele>790</ele>
        <time>2013-09-01T07:11:46Z</time>
      </trkpt>
      <trkpt lat="43.9091" lon="7.24097">
        <ele>790</ele>
        <time>2013-09-01T07:11:50Z</time>
      </trkpt>
      <trkpt lat="43.90906" lon="7.24083">
        <ele>790</ele>
        <time>2013-09-01T07:12:02Z</time>
      </trkpt>
      <trkpt lat="43.90901" lon="7.24073">
        <ele>790</ele>
        <time>2013-09-01T07:12:07Z</time>
      </trkpt>
      <trkpt lat="43.90893" lon="7.24061">
        <ele>777</ele>
        <time>2013-09-01T07:12:24Z</time>
      </trkpt>
      <trkpt lat="43.9089" lon="7.24049">
        <ele>771</ele>
        <time>2013-09-01T07:12:35Z</time>
      </trkpt>
      <trkpt lat="43.9088" lon="7.24048">
        <ele>777</ele>
        <time>2013-09-01T07:12:51Z</time>
      </trkpt>
      <trkpt lat="43.90871" lon="7.24043">
        <ele>786</ele>
        <time>2013-09-01T07:13:06Z</time>
      </trkpt>
      <trkpt lat="43.90868" lon="7.24031">
        <ele>786</ele>
        <time>2013-09-01T07:13:14Z</time>
      </trkpt>
      <trkpt lat="43.90868" lon="7.24014">
        <ele>786</ele>
        <time>2013-09-01T07:13:21Z</time>
      </trkpt>
      <trkpt lat="43.90867" lon="7.24001">
        <ele>786</ele>
        <time>2013-09-01T07:13:28Z</time>
      </trkpt>
      <trkpt lat="43.90869" lon="7.23988">
        <ele>786</ele>
        <time>2013-09-01T07:13:33Z</time>
      </trkpt>
      <trkpt lat="43.90861" lon="7.23982">
        <ele>786</ele>
        <time>2013-09-01T07:13:44Z</time>
      </trkpt>
      <trkpt lat="43.9086" lon="7.23968">
        <ele>786</ele>
        <time>2013-09-01T07:13:48Z</time>
      </trkpt>
      <trkpt lat="43.9085" lon="7.23964">
        <ele>786</ele>
        <time>2013-09-01T07:14:01Z</time>
      </trkpt>
      <trkpt lat="43.90845" lon="7.23952">
        <ele>786</ele>
        <time>2013-09-01T07:14:07Z</time>
      </trkpt>
      <trkpt lat="43.90836" lon="7.23947">
        <ele>786</ele>
        <time>2013-09-01T07:14:14Z</time>
      </trkpt>
      <trkpt lat="43.90834" lon="7.23935">
        <ele>786</ele>
        <time>2013-09-01T07:14:18Z</time>
      </trkpt>
      <trkpt lat="43.90825" lon="7.23928">
        <ele>772</ele>
        <time>2013-09-01T07:14:31Z</time>
      </trkpt>
      <trkpt lat="43.90816" lon="7.23922">
        <ele>772</ele>
        <time>2013-09-01T07:14:39Z</time>
      </trkpt>
      <trkpt lat="43.90813" lon="7.23909">
        <ele>772</ele>
        <time>2013-09-01T07:14:46Z</time>
      </trkpt>
      <trkpt lat="43.90805" lon="7.23901">
        <ele>772</ele>
        <time>2013-09-01T07:14:53Z</time>
      </trkpt>
      <trkpt lat="43.90801" lon="7.23889">
        <ele>772</ele>
        <time>2013-09-01T07:15:03Z</time>
      </trkpt>
      <trkpt lat="43.90793" lon="7.2388">
        <ele>772</ele>
        <time>2013-09-01T07:15:13Z</time>
      </trkpt>
      <trkpt lat="43.90784" lon="7.23881">
        <ele>772</ele>
        <time>2013-09-01T07:15:21Z</time>
      </trkpt>
      <trkpt lat="43.90775" lon="7.23873">
        <ele>772</ele>
        <time>2013-09-01T07:15:30Z</time>
      </trkpt>
      <trkpt lat="43.90773" lon="7.23862">
        <ele>772</ele>
        <time>2013-09-01T07:15:38Z</time>
      </trkpt>
      <trkpt lat="43.90772" lon="7.23849">
        <ele>772</ele>
        <time>2013-09-01T07:15:46Z</time>
      </trkpt>
      <trkpt lat="43.90771" lon="7.23836">
        <ele>772</ele>
        <time>2013-09-01T07:15:56Z</time>
      </trkpt>
      <trkpt lat="43.90774" lon="7.23823">
        <ele>772</ele>
        <time>2013-09-01T07:16:10Z</time>
      </trkpt>
      <trkpt lat="43.90779" lon="7.23812">
        <ele>766</ele>
        <time>2013-09-01T07:16:21Z</time>
      </trkpt>
      <trkpt lat="43.90783" lon="7.23801">
        <ele>766</ele>
        <time>2013-09-01T07:16:27Z</time>
      </trkpt>
      <trkpt lat="43.90798" lon="7.23787">
        <ele>766</ele>
        <time>2013-09-01T07:16:34Z</time>
      </trkpt>
      <trkpt lat="43.90789" lon="7.23785">
        <ele>766</ele>
        <time>2013-09-01T07:16:36Z</time>
      </trkpt>
      <trkpt lat="43.90784" lon="7.23775">
        <ele>766</ele>
        <time>2013-09-01T07:16:47Z</time>
      </trkpt>
      <trkpt lat="43.90788" lon="7.23761">
        <ele>766</ele>
        <time>2013-09-01T07:16:54Z</time>
      </trkpt>
      <trkpt lat="43.90789" lon="7.23748">
        <ele>771</ele>
        <time>2013-09-01T07:17:03Z</time>
      </trkpt>
      <trkpt lat="43.9079" lon="7.23732">
        <ele>771</ele>
        <time>2013-09-01T07:17:09Z</time>
      </trkpt>
      <trkpt lat="43.90793" lon="7.23705">
        <ele>778</ele>
        <time>2013-09-01T07:17:28Z</time>
      </trkpt>
      <trkpt lat="43.9079" lon="7.23692">
        <ele>778</ele>
        <time>2013-09-01T07:17:45Z</time>
      </trkpt>
      <trkpt lat="43.90786" lon="7.23678">
        <ele>783</ele>
        <time>2013-09-01T07:17:51Z</time>
      </trkpt>
      <trkpt lat="43.90781" lon="7.23668">
        <ele>783</ele>
        <time>2013-09-01T07:17:55Z</time>
      </trkpt>
      <trkpt lat="43.90773" lon="7.23671">
        <ele>760</ele>
        <time>2013-09-01T07:18:10Z</time>
      </trkpt>
      <trkpt lat="43.90764" lon="7.23677">
        <ele>760</ele>
        <time>2013-09-01T07:18:18Z</time>
      </trkpt>
      <trkpt lat="43.90754" lon="7.23678">
        <ele>760</ele>
        <time>2013-09-01T07:18:26Z</time>
      </trkpt>
      <trkpt lat="43.90745" lon="7.23679">
        <ele>766</ele>
        <time>2013-09-01T07:18:32Z</time>
      </trkpt>
      <trkpt lat="43.90735" lon="7.23673">
        <ele>766</ele>
        <time>2013-09-01T07:18:41Z</time>
      </trkpt>
      <trkpt lat="43.90725" lon="7.23673">
        <ele>766</ele>
        <time>2013-09-01T07:18:48Z</time>
      </trkpt>
      <trkpt lat="43.90712" lon="7.23675">
        <ele>766</ele>
        <time>2013-09-01T07:19:02Z</time>
      </trkpt>
      <trkpt lat="43.90703" lon="7.23668">
        <ele>760</ele>
        <time>2013-09-01T07:19:09Z</time>
      </trkpt>
      <trkpt lat="43.90694" lon="7.23668">
        <ele>760</ele>
        <time>2013-09-01T07:19:18Z</time>
      </trkpt>
      <trkpt lat="43.90688" lon="7.23658">
        <ele>753</ele>
        <time>2013-09-01T07:19:27Z</time>
      </trkpt>
      <trkpt lat="43.90685" lon="7.23645">
        <ele>747</ele>
        <time>2013-09-01T07:19:33Z</time>
      </trkpt>
      <trkpt lat="43.90678" lon="7.23635">
        <ele>747</ele>
        <time>2013-09-01T07:19:45Z</time>
      </trkpt>
      <trkpt lat="43.90673" lon="7.23622">
        <ele>747</ele>
        <time>2013-09-01T07:19:53Z</time>
      </trkpt>
      <trkpt lat="43.90671" lon="7.23608">
        <ele>741</ele>
        <time>2013-09-01T07:20:02Z</time>
      </trkpt>
      <trkpt lat="43.90663" lon="7.23598">
        <ele>741</ele>
        <time>2013-09-01T07:20:13Z</time>
      </trkpt>
      <trkpt lat="43.90658" lon="7.23587">
        <ele>748</ele>
        <time>2013-09-01T07:20:24Z</time>
      </trkpt>
      <trkpt lat="43.90656" lon="7.23575">
        <ele>748</ele>
        <time>2013-09-01T07:20:31Z</time>
      </trkpt>
      <trkpt lat="43.90651" lon="7.23563">
        <ele>758</ele>
        <time>2013-09-01T07:20:46Z</time>
      </trkpt>
      <trkpt lat="43.90649" lon="7.23551">
        <ele>758</ele>
        <time>2013-09-01T07:20:52Z</time>
      </trkpt>
      <trkpt lat="43.90654" lon="7.2354">
        <ele>758</ele>
        <time>2013-09-01T07:20:57Z</time>
      </trkpt>
      <trkpt lat="43.90656" lon="7.23525">
        <ele>750</ele>
        <time>2013-09-01T07:21:03Z</time>
      </trkpt>
      <trkpt lat="43.90649" lon="7.23514">
        <ele>750</ele>
        <time>2013-09-01T07:21:15Z</time>
      </trkpt>
      <trkpt lat="43.90641" lon="7.23505">
        <ele>750</ele>
        <time>2013-09-01T07:21:24Z</time>
      </trkpt>
      <trkpt lat="43.90645" lon="7.23488">
        <ele>750</ele>
        <time>2013-09-01T07:21:31Z</time>
      </trkpt>
      <trkpt lat="43.90643" lon="7.23475">
        <ele>743</ele>
        <time>2013-09-01T07:21:38Z</time>
      </trkpt>
      <trkpt lat="43.90641" lon="7.23462">
        <ele>743</ele>
        <time>2013-09-01T07:21:44Z</time>
      </trkpt>
      <trkpt lat="43.90636" lon="7.23451">
        <ele>743</ele>
        <time>2013-09-01T07:21:53Z</time>
      </trkpt>
      <trkpt lat="43.90632" lon="7.23439">
        <ele>743</ele>
        <time>2013-09-01T07:22:02Z</time>
      </trkpt>
      <trkpt lat="43.9063" lon="7.23426">
        <ele>743</ele>
        <time>2013-09-01T07:22:15Z</time>
      </trkpt>
      <trkpt lat="43.90687" lon="7.23458">
        <ele>743</ele>
        <time>2013-09-01T07:22:57Z</time>
      </trkpt>
      <trkpt lat="43.90695" lon="7.23467">
        <ele>736</ele>
        <time>2013-09-01T07:23:06Z</time>
      </trkpt>
      <trkpt lat="43.90691" lon="7.23478">
        <ele>743</ele>
        <time>2013-09-01T07:23:09Z</time>
      </trkpt>
      <trkpt lat="43.9069" lon="7.23494">
        <ele>754</ele>
        <time>2013-09-01T07:23:16Z</time>
      </trkpt>
      <trkpt lat="43.90693" lon="7.23506">
        <ele>763</ele>
        <time>2013-09-01T07:23:21Z</time>
      </trkpt>
      <trkpt lat="43.9069" lon="7.23518">
        <ele>770</ele>
        <time>2013-09-01T07:23:27Z</time>
      </trkpt>
      <trkpt lat="43.90681" lon="7.23527">
        <ele>770</ele>
        <time>2013-09-01T07:23:34Z</time>
      </trkpt>
      <trkpt lat="43.90678" lon="7.23541">
        <ele>776</ele>
        <time>2013-09-01T07:23:39Z</time>
      </trkpt>
      <trkpt lat="43.90673" lon="7.23554">
        <ele>781</ele>
        <time>2013-09-01T07:23:42Z</time>
      </trkpt>
      <trkpt lat="43.90666" lon="7.23565">
        <ele>781</ele>
        <time>2013-09-01T07:23:50Z</time>
      </trkpt>
      <trkpt lat="43.90658" lon="7.23571">
        <ele>771</ele>
        <time>2013-09-01T07:24:02Z</time>
      </trkpt>
      <trkpt lat="43.90651" lon="7.23578">
        <ele>764</ele>
        <time>2013-09-01T07:24:10Z</time>
      </trkpt>
      <trkpt lat="43.90641" lon="7.2358">
        <ele>758</ele>
        <time>2013-09-01T07:24:15Z</time>
      </trkpt>
      <trkpt lat="43.90632" lon="7.23579">
        <ele>758</ele>
        <time>2013-09-01T07:24:19Z</time>
      </trkpt>
      <trkpt lat="43.90622" lon="7.23586">
        <ele>758</ele>
        <time>2013-09-01T07:24:23Z</time>
      </trkpt>
      <trkpt lat="43.90608" lon="7.23585">
        <ele>753</ele>
        <time>2013-09-01T07:24:25Z</time>
      </trkpt>
      <trkpt lat="43.90596" lon="7.23586">
        <ele>753</ele>
        <time>2013-09-01T07:24:29Z</time>
      </trkpt>
      <trkpt lat="43.90586" lon="7.23588">
        <ele>745</ele>
        <time>2013-09-01T07:24:32Z</time>
      </trkpt>
      <trkpt lat="43.90577" lon="7.23593">
        <ele>745</ele>
        <time>2013-09-01T07:24:36Z</time>
      </trkpt>
      <trkpt lat="43.90567" lon="7.23591">
        <ele>735</ele>
        <time>2013-09-01T07:24:41Z</time>
      </trkpt>
      <trkpt lat="43.90558" lon="7.23591">
        <ele>735</ele>
        <time>2013-09-01T07:24:52Z</time>
      </trkpt>
      <trkpt lat="43.90549" lon="7.2359">
        <ele>735</ele>
        <time>2013-09-01T07:25:01Z</time>
      </trkpt>
      <trkpt lat="43.90541" lon="7.23598">
        <ele>735</ele>
        <time>2013-09-01T07:25:05Z</time>
      </trkpt>
      <trkpt lat="43.90536" lon="7.23608">
        <ele>735</ele>
        <time>2013-09-01T07:25:17Z</time>
      </trkpt>
      <trkpt lat="43.90527" lon="7.23616">
        <ele>735</ele>
        <time>2013-09-01T07:25:25Z</time>
      </trkpt>
      <trkpt lat="43.90519" lon="7.23625">
        <ele>735</ele>
        <time>2013-09-01T07:25:37Z</time>
      </trkpt>
      <trkpt lat="43.90519" lon="7.23641">
        <ele>735</ele>
        <time>2013-09-01T07:25:45Z</time>
      </trkpt>
      <trkpt lat="43.90526" lon="7.23652">
        <ele>741</ele>
        <time>2013-09-01T07:25:56Z</time>
      </trkpt>
      <trkpt lat="43.90529" lon="7.23664">
        <ele>741</ele>
        <time>2013-09-01T07:26:07Z</time>
      </trkpt>
      <trkpt lat="43.90523" lon="7.23674">
        <ele>741</ele>
        <time>2013-09-01T07:26:15Z</time>
      </trkpt>
      <trkpt lat="43.90515" lon="7.2368">
        <ele>741</ele>
        <time>2013-09-01T07:26:37Z</time>
      </trkpt>
      <trkpt lat="43.90523" lon="7.2369">
        <ele>741</ele>
        <time>2013-09-01T07:27:06Z</time>
      </trkpt>
      <trkpt lat="43.90529" lon="7.237">
        <ele>741</ele>
        <time>2013-09-01T07:27:11Z</time>
      </trkpt>
      <trkpt lat="43.90534" lon="7.23711">
        <ele>748</ele>
        <time>2013-09-01T07:27:16Z</time>
      </trkpt>
      <trkpt lat="43.90536" lon="7.23723">
        <ele>748</ele>
        <time>2013-09-01T07:27:23Z</time>
      </trkpt>
      <trkpt lat="43.90538" lon="7.23738">
        <ele>748</ele>
        <time>2013-09-01T07:27:34Z</time>
      </trkpt>
      <trkpt lat="43.90541" lon="7.2375">
        <ele>748</ele>
        <time>2013-09-01T07:27:42Z</time>
      </trkpt>
      <trkpt lat="43.90539" lon="7.23763">
        <ele>748</ele>
        <time>2013-09-01T07:27:49Z</time>
      </trkpt>
      <trkpt lat="43.9054" lon="7.23779">
        <ele>748</ele>
        <time>2013-09-01T07:28:00Z</time>
      </trkpt>
      <trkpt lat="43.9053" lon="7.23786">
        <ele>742</ele>
        <time>2013-09-01T07:28:08Z</time>
      </trkpt>
      <trkpt lat="43.90521" lon="7.23792">
        <ele>742</ele>
        <time>2013-09-01T07:28:14Z</time>
      </trkpt>
      <trkpt lat="43.90513" lon="7.23799">
        <ele>727</ele>
        <time>2013-09-01T07:28:27Z</time>
      </trkpt>
      <trkpt lat="43.90507" lon="7.23809">
        <ele>727</ele>
        <time>2013-09-01T07:28:38Z</time>
      </trkpt>
      <trkpt lat="43.90502" lon="7.23818">
        <ele>727</ele>
        <time>2013-09-01T07:28:42Z</time>
      </trkpt>
      <trkpt lat="43.90495" lon="7.23832">
        <ele>727</ele>
        <time>2013-09-01T07:28:53Z</time>
      </trkpt>
      <trkpt lat="43.90487" lon="7.23837">
        <ele>727</ele>
        <time>2013-09-01T07:29:03Z</time>
      </trkpt>
      <trkpt lat="43.90479" lon="7.23844">
        <ele>727</ele>
        <time>2013-09-01T07:29:11Z</time>
      </trkpt>
      <trkpt lat="43.90477" lon="7.23831">
        <ele>737</ele>
        <time>2013-09-01T07:29:24Z</time>
      </trkpt>
      <trkpt lat="43.90469" lon="7.23824">
        <ele>737</ele>
        <time>2013-09-01T07:29:31Z</time>
      </trkpt>
      <trkpt lat="43.90459" lon="7.23829">
        <ele>737</ele>
        <time>2013-09-01T07:29:38Z</time>
      </trkpt>
      <trkpt lat="43.90454" lon="7.23839">
        <ele>737</ele>
        <time>2013-09-01T07:29:46Z</time>
      </trkpt>
      <trkpt lat="43.90453" lon="7.23853">
        <ele>742</ele>
        <time>2013-09-01T07:29:55Z</time>
      </trkpt>
      <trkpt lat="43.90451" lon="7.23869">
        <ele>742</ele>
        <time>2013-09-01T07:30:01Z</time>
      </trkpt>
      <trkpt lat="43.90443" lon="7.23878">
        <ele>742</ele>
        <time>2013-09-01T07:30:09Z</time>
      </trkpt>
      <trkpt lat="43.90434" lon="7.2388">
        <ele>729</ele>
        <time>2013-09-01T07:30:19Z</time>
      </trkpt>
      <trkpt lat="43.90438" lon="7.23894">
        <ele>740</ele>
        <time>2013-09-01T07:30:24Z</time>
      </trkpt>
      <trkpt lat="43.9043" lon="7.23901">
        <ele>740</ele>
        <time>2013-09-01T07:30:36Z</time>
      </trkpt>
      <trkpt lat="43.90423" lon="7.23907">
        <ele>740</ele>
        <time>2013-09-01T07:30:50Z</time>
      </trkpt>
      <trkpt lat="43.90414" lon="7.23912">
        <ele>748</ele>
        <time>2013-09-01T07:31:09Z</time>
      </trkpt>
      <trkpt lat="43.90408" lon="7.23922">
        <ele>748</ele>
        <time>2013-09-01T07:31:17Z</time>
      </trkpt>
      <trkpt lat="43.9041" lon="7.23938">
        <ele>748</ele>
        <time>2013-09-01T07:31:27Z</time>
      </trkpt>
      <trkpt lat="43.90413" lon="7.2395">
        <ele>756</ele>
        <time>2013-09-01T07:31:31Z</time>
      </trkpt>
      <trkpt lat="43.90419" lon="7.2396">
        <ele>756</ele>
        <time>2013-09-01T07:31:40Z</time>
      </trkpt>
      <trkpt lat="43.90408" lon="7.23963">
        <ele>748</ele>
        <time>2013-09-01T07:31:53Z</time>
      </trkpt>
      <trkpt lat="43.904" lon="7.23967">
        <ele>748</ele>
        <time>2013-09-01T07:31:57Z</time>
      </trkpt>
      <trkpt lat="43.90392" lon="7.23973">
        <ele>738</ele>
        <time>2013-09-01T07:32:13Z</time>
      </trkpt>
      <trkpt lat="43.90382" lon="7.23969">
        <ele>738</ele>
        <time>2013-09-01T07:32:22Z</time>
      </trkpt>
      <trkpt lat="43.90373" lon="7.23965">
        <ele>733</ele>
        <time>2013-09-01T07:32:29Z</time>
      </trkpt>
      <trkpt lat="43.90363" lon="7.23967">
        <ele>733</ele>
        <time>2013-09-01T07:32:39Z</time>
      </trkpt>
      <trkpt lat="43.90352" lon="7.23968">
        <ele>733</ele>
        <time>2013-09-01T07:32:47Z</time>
      </trkpt>
      <trkpt lat="43.90343" lon="7.23968">
        <ele>733</ele>
        <time>2013-09-01T07:32:55Z</time>
      </trkpt>
      <trkpt lat="43.90334" lon="7.2397">
        <ele>733</ele>
        <time>2013-09-01T07:33:04Z</time>
      </trkpt>
      <trkpt lat="43.90324" lon="7.23969">
        <ele>733</ele>
        <time>2013-09-01T07:33:11Z</time>
      </trkpt>
      <trkpt lat="43.90315" lon="7.23968">
        <ele>733</ele>
        <time>2013-09-01T07:33:20Z</time>
      </trkpt>
      <trkpt lat="43.90305" lon="7.2397">
        <ele>733</ele>
        <time>2013-09-01T07:33:28Z</time>
      </trkpt>
      <trkpt lat="43.90296" lon="7.23968">
        <ele>733</ele>
        <time>2013-09-01T07:33:35Z</time>
      </trkpt>
      <trkpt lat="43.90288" lon="7.2396">
        <ele>733</ele>
        <time>2013-09-01T07:33:43Z</time>
      </trkpt>
      <trkpt lat="43.9028" lon="7.23954">
        <ele>733</ele>
        <time>2013-09-01T07:33:49Z</time>
      </trkpt>
      <trkpt lat="43.90277" lon="7.23966">
        <ele>755</ele>
        <time>2013-09-01T07:34:16Z</time>
      </trkpt>
      <trkpt lat="43.90268" lon="7.23967">
        <ele>755</ele>
        <time>2013-09-01T07:34:20Z</time>
      </trkpt>
      <trkpt lat="43.9026" lon="7.2397">
        <ele>746</ele>
        <time>2013-09-01T07:34:26Z</time>
      </trkpt>
      <trkpt lat="43.9026" lon="7.23984">
        <ele>746</ele>
        <time>2013-09-01T07:34:34Z</time>
      </trkpt>
      <trkpt lat="43.90264" lon="7.23995">
        <ele>741</ele>
        <time>2013-09-01T07:34:39Z</time>
      </trkpt>
      <trkpt lat="43.9026" lon="7.24007">
        <ele>729</ele>
        <time>2013-09-01T07:34:50Z</time>
      </trkpt>
      <trkpt lat="43.90255" lon="7.2402">
        <ele>729</ele>
        <time>2013-09-01T07:34:56Z</time>
      </trkpt>
      <trkpt lat="43.90258" lon="7.24031">
        <ele>720</ele>
        <time>2013-09-01T07:35:04Z</time>
      </trkpt>
      <trkpt lat="43.90253" lon="7.24043">
        <ele>720</ele>
        <time>2013-09-01T07:35:13Z</time>
      </trkpt>
      <trkpt lat="43.90258" lon="7.24056">
        <ele>720</ele>
        <time>2013-09-01T07:35:22Z</time>
      </trkpt>
      <trkpt lat="43.90263" lon="7.24066">
        <ele>720</ele>
        <time>2013-09-01T07:35:27Z</time>
      </trkpt>
      <trkpt lat="43.90263" lon="7.24078">
        <ele>720</ele>
        <time>2013-09-01T07:35:35Z</time>
      </trkpt>
      <trkpt lat="43.90254" lon="7.24088">
        <ele>720</ele>
        <time>2013-09-01T07:35:42Z</time>
      </trkpt>
      <trkpt lat="43.90245" lon="7.24093">
        <ele>720</ele>
        <time>2013-09-01T07:35:48Z</time>
      </trkpt>
      <trkpt lat="43.90239" lon="7.24103">
        <ele>720</ele>
        <time>2013-09-01T07:35:57Z</time>
      </trkpt>
      <trkpt lat="43.90242" lon="7.24117">
        <ele>720</ele>
        <time>2013-09-01T07:36:07Z</time>
      </trkpt>
      <trkpt lat="43.90234" lon="7.24127">
        <ele>720</ele>
        <time>2013-09-01T07:36:14Z</time>
      </trkpt>
      <trkpt lat="43.90227" lon="7.24136">
        <ele>720</ele>
        <time>2013-09-01T07:36:20Z</time>
      </trkpt>
      <trkpt lat="43.90224" lon="7.2415">
        <ele>720</ele>
        <time>2013-09-01T07:36:29Z</time>
      </trkpt>
      <trkpt lat="43.90223" lon="7.24163">
        <ele>720</ele>
        <time>2013-09-01T07:36:34Z</time>
      </trkpt>
      <trkpt lat="43.90221" lon="7.24175">
        <ele>720</ele>
        <time>2013-09-01T07:36:44Z</time>
      </trkpt>
      <trkpt lat="43.90224" lon="7.24188">
        <ele>720</ele>
        <time>2013-09-01T07:36:49Z</time>
      </trkpt>
      <trkpt lat="43.90224" lon="7.24201">
        <ele>732</ele>
        <time>2013-09-01T07:37:04Z</time>
      </trkpt>
      <trkpt lat="43.90216" lon="7.24208">
        <ele>724</ele>
        <time>2013-09-01T07:37:14Z</time>
      </trkpt>
      <trkpt lat="43.90219" lon="7.24222">
        <ele>724</ele>
        <time>2013-09-01T07:37:20Z</time>
      </trkpt>
      <trkpt lat="43.90218" lon="7.24234">
        <ele>724</ele>
        <time>2013-09-01T07:37:26Z</time>
      </trkpt>
      <trkpt lat="43.90226" lon="7.24242">
        <ele>732</ele>
        <time>2013-09-01T07:37:32Z</time>
      </trkpt>
      <trkpt lat="43.90234" lon="7.24249">
        <ele>732</ele>
        <time>2013-09-01T07:37:40Z</time>
      </trkpt>
      <trkpt lat="43.90224" lon="7.24253">
        <ele>722</ele>
        <time>2013-09-01T07:37:43Z</time>
      </trkpt>
      <trkpt lat="43.90215" lon="7.24256">
        <ele>715</ele>
        <time>2013-09-01T07:37:53Z</time>
      </trkpt>
      <trkpt lat="43.9021" lon="7.24269">
        <ele>715</ele>
        <time>2013-09-01T07:38:03Z</time>
      </trkpt>
      <trkpt lat="43.9021" lon="7.24281">
        <ele>715</ele>
        <time>2013-09-01T07:38:14Z</time>
      </trkpt>
      <trkpt lat="43.90206" lon="7.24294">
        <ele>715</ele>
        <time>2013-09-01T07:38:26Z</time>
      </trkpt>
      <trkpt lat="43.90211" lon="7.24305">
        <ele>727</ele>
        <time>2013-09-01T07:38:31Z</time>
      </trkpt>
      <trkpt lat="43.90218" lon="7.24316">
        <ele>727</ele>
        <time>2013-09-01T07:38:36Z</time>
      </trkpt>
      <trkpt lat="43.90213" lon="7.24327">
        <ele>727</ele>
        <time>2013-09-01T07:38:42Z</time>
      </trkpt>
      <trkpt lat="43.90206" lon="7.24337">
        <ele>716</ele>
        <time>2013-09-01T07:38:51Z</time>
      </trkpt>
      <trkpt lat="43.902" lon="7.24348">
        <ele>716</ele>
        <time>2013-09-01T07:38:59Z</time>
      </trkpt>
      <trkpt lat="43.90201" lon="7.24362">
        <ele>716</ele>
        <time>2013-09-01T07:39:09Z</time>
      </trkpt>
      <trkpt lat="43.90206" lon="7.24372">
        <ele>724</ele>
        <time>2013-09-01T07:39:13Z</time>
      </trkpt>
      <trkpt lat="43.90204" lon="7.24385">
        <ele>724</ele>
        <time>2013-09-01T07:39:24Z</time>
      </trkpt>
      <trkpt lat="43.90205" lon="7.24401">
        <ele>730</ele>
        <time>2013-09-01T07:39:30Z</time>
      </trkpt>
      <trkpt lat="43.90197" lon="7.24407">
        <ele>723</ele>
        <time>2013-09-01T07:39:35Z</time>
      </trkpt>
      <trkpt lat="43.90188" lon="7.24411">
        <ele>713</ele>
        <time>2013-09-01T07:39:40Z</time>
      </trkpt>
      <trkpt lat="43.90197" lon="7.24418">
        <ele>720</ele>
        <time>2013-09-01T07:39:48Z</time>
      </trkpt>
      <trkpt lat="43.90194" lon="7.24429">
        <ele>720</ele>
        <time>2013-09-01T07:40:02Z</time>
      </trkpt>
      <trkpt lat="43.90185" lon="7.24433">
        <ele>720</ele>
        <time>2013-09-01T07:40:06Z</time>
      </trkpt>
      <trkpt lat="43.90178" lon="7.2444">
        <ele>720</ele>
        <time>2013-09-01T07:40:16Z</time>
      </trkpt>
      <trkpt lat="43.90168" lon="7.24447">
        <ele>720</ele>
        <time>2013-09-01T07:40:25Z</time>
      </trkpt>
      <trkpt lat="43.90158" lon="7.2445">
        <ele>707</ele>
        <time>2013-09-01T07:40:30Z</time>
      </trkpt>
      <trkpt lat="43.90149" lon="7.24456">
        <ele>698</ele>
        <time>2013-09-01T07:40:35Z</time>
      </trkpt>
      <trkpt lat="43.90148" lon="7.24469">
        <ele>698</ele>
        <time>2013-09-01T07:40:42Z</time>
      </trkpt>
      <trkpt lat="43.90152" lon="7.24485">
        <ele>708</ele>
        <time>2013-09-01T07:40:52Z</time>
      </trkpt>
      <trkpt lat="43.90156" lon="7.245">
        <ele>720</ele>
        <time>2013-09-01T07:41:00Z</time>
      </trkpt>
      <trkpt lat="43.9015" lon="7.24512">
        <ele>720</ele>
        <time>2013-09-01T07:41:09Z</time>
      </trkpt>
      <trkpt lat="43.90145" lon="7.24525">
        <ele>720</ele>
        <time>2013-09-01T07:41:20Z</time>
      </trkpt>
      <trkpt lat="43.90136" lon="7.24526">
        <ele>714</ele>
        <time>2013-09-01T07:41:25Z</time>
      </trkpt>
      <trkpt lat="43.90127" lon="7.24532">
        <ele>714</ele>
        <time>2013-09-01T07:41:29Z</time>
      </trkpt>
      <trkpt lat="43.90119" lon="7.24538">
        <ele>714</ele>
        <time>2013-09-01T07:41:46Z</time>
      </trkpt>
      <trkpt lat="43.90113" lon="7.24548">
        <ele>714</ele>
        <time>2013-09-01T07:41:51Z</time>
      </trkpt>
      <trkpt lat="43.90112" lon="7.2456">
        <ele>719</ele>
        <time>2013-09-01T07:41:56Z</time>
      </trkpt>
      <trkpt lat="43.90101" lon="7.24569">
        <ele>711</ele>
        <time>2013-09-01T07:42:06Z</time>
      </trkpt>
      <trkpt lat="43.9009" lon="7.24569">
        <ele>711</ele>
        <time>2013-09-01T07:42:09Z</time>
      </trkpt>
      <trkpt lat="43.90078" lon="7.24573">
        <ele>704</ele>
        <time>2013-09-01T07:42:18Z</time>
      </trkpt>
      <trkpt lat="43.90069" lon="7.24566">
        <ele>704</ele>
        <time>2013-09-01T07:42:27Z</time>
      </trkpt>
      <trkpt lat="43.90059" lon="7.24562">
        <ele>704</ele>
        <time>2013-09-01T07:42:35Z</time>
      </trkpt>
      <trkpt lat="43.9005" lon="7.2456">
        <ele>704</ele>
        <time>2013-09-01T07:42:46Z</time>
      </trkpt>
      <trkpt lat="43.90041" lon="7.24552">
        <ele>692</ele>
        <time>2013-09-01T07:42:55Z</time>
      </trkpt>
      <trkpt lat="43.90038" lon="7.24541">
        <ele>686</ele>
        <time>2013-09-01T07:43:02Z</time>
      </trkpt>
      <trkpt lat="43.90028" lon="7.2454">
        <ele>686</ele>
        <time>2013-09-01T07:43:15Z</time>
      </trkpt>
      <trkpt lat="43.90027" lon="7.24552">
        <ele>695</ele>
        <time>2013-09-01T07:43:18Z</time>
      </trkpt>
      <trkpt lat="43.90022" lon="7.24564">
        <ele>714</ele>
        <time>2013-09-01T07:43:36Z</time>
      </trkpt>
      <trkpt lat="43.90011" lon="7.24576">
        <ele>721</ele>
        <time>2013-09-01T07:43:43Z</time>
      </trkpt>
      <trkpt lat="43.90002" lon="7.24569">
        <ele>721</ele>
        <time>2013-09-01T07:43:49Z</time>
      </trkpt>
      <trkpt lat="43.89993" lon="7.24566">
        <ele>712</ele>
        <time>2013-09-01T07:43:54Z</time>
      </trkpt>
      <trkpt lat="43.89995" lon="7.24578">
        <ele>712</ele>
        <time>2013-09-01T07:44:02Z</time>
      </trkpt>
      <trkpt lat="43.89998" lon="7.2459">
        <ele>712</ele>
        <time>2013-09-01T07:44:08Z</time>
      </trkpt>
      <trkpt lat="43.9" lon="7.24605">
        <ele>700</ele>
        <time>2013-09-01T07:44:14Z</time>
      </trkpt>
      <trkpt lat="43.90001" lon="7.24618">
        <ele>690</ele>
        <time>2013-09-01T07:44:24Z</time>
      </trkpt>
      <trkpt lat="43.90004" lon="7.2463">
        <ele>690</ele>
        <time>2013-09-01T07:44:32Z</time>
      </trkpt>
      <trkpt lat="43.89995" lon="7.24631">
        <ele>674</ele>
        <time>2013-09-01T07:44:41Z</time>
      </trkpt>
      <trkpt lat="43.89984" lon="7.2463">
        <ele>664</ele>
        <time>2013-09-01T07:44:44Z</time>
      </trkpt>
      <trkpt lat="43.89993" lon="7.2464">
        <ele>673</ele>
        <time>2013-09-01T07:44:53Z</time>
      </trkpt>
      <trkpt lat="43.90001" lon="7.24644">
        <ele>673</ele>
        <time>2013-09-01T07:45:05Z</time>
      </trkpt>
      <trkpt lat="43.89991" lon="7.24646">
        <ele>673</ele>
        <time>2013-09-01T07:45:52Z</time>
      </trkpt>
      <trkpt lat="43.89984" lon="7.24654">
        <ele>673</ele>
        <time>2013-09-01T07:46:12Z</time>
      </trkpt>
      <trkpt lat="43.89991" lon="7.24663">
        <ele>673</ele>
        <time>2013-09-01T07:46:23Z</time>
      </trkpt>
      <trkpt lat="43.90001" lon="7.24664">
        <ele>680</ele>
        <time>2013-09-01T07:46:39Z</time>
      </trkpt>
      <trkpt lat="43.89993" lon="7.24658">
        <ele>674</ele>
        <time>2013-09-01T07:47:20Z</time>
      </trkpt>
      <trkpt lat="43.89982" lon="7.2465">
        <ele>669</ele>
        <time>2013-09-01T07:47:29Z</time>
      </trkpt>
      <trkpt lat="43.89974" lon="7.24646">
        <ele>662</ele>
        <time>2013-09-01T07:47:43Z</time>
      </trkpt>
      <trkpt lat="43.89969" lon="7.24635">
        <ele>662</ele>
        <time>2013-09-01T07:47:55Z</time>
      </trkpt>
      <trkpt lat="43.8998" lon="7.24642">
        <ele>672</ele>
        <time>2013-09-01T07:48:03Z</time>
      </trkpt>
      <trkpt lat="43.89989" lon="7.24646">
        <ele>672</ele>
        <time>2013-09-01T07:48:05Z</time>
      </trkpt>
      <trkpt lat="43.8998" lon="7.24644">
        <ele>672</ele>
        <time>2013-09-01T07:48:14Z</time>
      </trkpt>
      <trkpt lat="43.89988" lon="7.24652">
        <ele>672</ele>
        <time>2013-09-01T07:48:50Z</time>
      </trkpt>
      <trkpt lat="43.89988" lon="7.24668">
        <ele>679</ele>
        <time>2013-09-01T07:49:01Z</time>
      </trkpt>
      <trkpt lat="43.89983" lon="7.2468">
        <ele>679</ele>
        <time>2013-09-01T07:49:06Z</time>
      </trkpt>
      <trkpt lat="43.89975" lon="7.24685">
        <ele>670</ele>
        <time>2013-09-01T07:49:11Z</time>
      </trkpt>
      <trkpt lat="43.89969" lon="7.24696">
        <ele>670</ele>
        <time>2013-09-01T07:49:23Z</time>
      </trkpt>
      <trkpt lat="43.8997" lon="7.24709">
        <ele>670</ele>
        <time>2013-09-01T07:49:32Z</time>
      </trkpt>
      <trkpt lat="43.89978" lon="7.24712">
        <ele>670</ele>
        <time>2013-09-01T07:50:17Z</time>
      </trkpt>
      <trkpt lat="43.89976" lon="7.24701">
        <ele>670</ele>
        <time>2013-09-01T07:52:42Z</time>
      </trkpt>
      <trkpt lat="43.89967" lon="7.24696">
        <ele>670</ele>
        <time>2013-09-01T07:52:54Z</time>
      </trkpt>
      <trkpt lat="43.89961" lon="7.24705">
        <ele>678</ele>
        <time>2013-09-01T07:53:06Z</time>
      </trkpt>
      <trkpt lat="43.89951" lon="7.24707">
        <ele>678</ele>
        <time>2013-09-01T07:53:14Z</time>
      </trkpt>
      <trkpt lat="43.89942" lon="7.2471">
        <ele>670</ele>
        <time>2013-09-01T07:53:22Z</time>
      </trkpt>
      <trkpt lat="43.89932" lon="7.24706">
        <ele>670</ele>
        <time>2013-09-01T07:53:32Z</time>
      </trkpt>
      <trkpt lat="43.89922" lon="7.24703">
        <ele>665</ele>
        <time>2013-09-01T07:53:39Z</time>
      </trkpt>
      <trkpt lat="43.89911" lon="7.24702">
        <ele>665</ele>
        <time>2013-09-01T07:53:47Z</time>
      </trkpt>
      <trkpt lat="43.89902" lon="7.24702">
        <ele>665</ele>
        <time>2013-09-01T07:54:00Z</time>
      </trkpt>
      <trkpt lat="43.89893" lon="7.24702">
        <ele>674</ele>
        <time>2013-09-01T07:54:09Z</time>
      </trkpt>
      <trkpt lat="43.89884" lon="7.24702">
        <ele>674</ele>
        <time>2013-09-01T07:54:20Z</time>
      </trkpt>
      <trkpt lat="43.89875" lon="7.24703">
        <ele>679</ele>
        <time>2013-09-01T07:54:31Z</time>
      </trkpt>
      <trkpt lat="43.89868" lon="7.24711">
        <ele>679</ele>
        <time>2013-09-01T07:54:38Z</time>
      </trkpt>
      <trkpt lat="43.89857" lon="7.24719">
        <ele>679</ele>
        <time>2013-09-01T07:54:45Z</time>
      </trkpt>
      <trkpt lat="43.89848" lon="7.24719">
        <ele>679</ele>
        <time>2013-09-01T07:54:50Z</time>
      </trkpt>
      <trkpt lat="43.89838" lon="7.24721">
        <ele>679</ele>
        <time>2013-09-01T07:54:58Z</time>
      </trkpt>
      <trkpt lat="43.89828" lon="7.24722">
        <ele>679</ele>
        <time>2013-09-01T07:55:03Z</time>
      </trkpt>
      <trkpt lat="43.8982" lon="7.2473">
        <ele>679</ele>
        <time>2013-09-01T07:55:11Z</time>
      </trkpt>
      <trkpt lat="43.89809" lon="7.24729">
        <ele>679</ele>
        <time>2013-09-01T07:55:16Z</time>
      </trkpt>
      <trkpt lat="43.89798" lon="7.24727">
        <ele>672</ele>
        <time>2013-09-01T07:55:29Z</time>
      </trkpt>
      <trkpt lat="43.89789" lon="7.24728">
        <ele>672</ele>
        <time>2013-09-01T07:55:34Z</time>
      </trkpt>
      <trkpt lat="43.8978" lon="7.2473">
        <ele>672</ele>
        <time>2013-09-01T07:55:42Z</time>
      </trkpt>
      <trkpt lat="43.8977" lon="7.2473">
        <ele>672</ele>
        <time>2013-09-01T07:55:49Z</time>
      </trkpt>
      <trkpt lat="43.8976" lon="7.2473">
        <ele>665</ele>
        <time>2013-09-01T07:55:57Z</time>
      </trkpt>
      <trkpt lat="43.89751" lon="7.24732">
        <ele>665</ele>
        <time>2013-09-01T07:56:04Z</time>
      </trkpt>
      <trkpt lat="43.89742" lon="7.24728">
        <ele>665</ele>
        <time>2013-09-01T07:56:13Z</time>
      </trkpt>
      <trkpt lat="43.89733" lon="7.24728">
        <ele>665</ele>
        <time>2013-09-01T07:56:18Z</time>
      </trkpt>
      <trkpt lat="43.89721" lon="7.24724">
        <ele>665</ele>
        <time>2013-09-01T07:56:28Z</time>
      </trkpt>
      <trkpt lat="43.89711" lon="7.24725">
        <ele>665</ele>
        <time>2013-09-01T07:56:37Z</time>
      </trkpt>
      <trkpt lat="43.89702" lon="7.24725">
        <ele>665</ele>
        <time>2013-09-01T07:56:45Z</time>
      </trkpt>
      <trkpt lat="43.89693" lon="7.24728">
        <ele>665</ele>
        <time>2013-09-01T07:56:54Z</time>
      </trkpt>
      <trkpt lat="43.89686" lon="7.24736">
        <ele>665</ele>
        <time>2013-09-01T07:57:03Z</time>
      </trkpt>
      <trkpt lat="43.89678" lon="7.24744">
        <ele>660</ele>
        <time>2013-09-01T07:57:12Z</time>
      </trkpt>
      <trkpt lat="43.89668" lon="7.24741">
        <ele>660</ele>
        <time>2013-09-01T07:57:22Z</time>
      </trkpt>
      <trkpt lat="43.89661" lon="7.24749">
        <ele>660</ele>
        <time>2013-09-01T07:57:35Z</time>
      </trkpt>
      <trkpt lat="43.89657" lon="7.24761">
        <ele>652</ele>
        <time>2013-09-01T07:57:45Z</time>
      </trkpt>
      <trkpt lat="43.89655" lon="7.24747">
        <ele>652</ele>
        <time>2013-09-01T07:57:58Z</time>
      </trkpt>
      <trkpt lat="43.89656" lon="7.24735">
        <ele>652</ele>
        <time>2013-09-01T07:58:08Z</time>
      </trkpt>
      <trkpt lat="43.89656" lon="7.24722">
        <ele>652</ele>
        <time>2013-09-01T07:58:17Z</time>
      </trkpt>
      <trkpt lat="43.89657" lon="7.2471">
        <ele>652</ele>
        <time>2013-09-01T07:58:29Z</time>
      </trkpt>
      <trkpt lat="43.89665" lon="7.24702">
        <ele>647</ele>
        <time>2013-09-01T07:58:39Z</time>
      </trkpt>
      <trkpt lat="43.89663" lon="7.24687">
        <ele>647</ele>
        <time>2013-09-01T07:58:49Z</time>
      </trkpt>
      <trkpt lat="43.89667" lon="7.24675">
        <ele>647</ele>
        <time>2013-09-01T07:59:00Z</time>
      </trkpt>
      <trkpt lat="43.89666" lon="7.24662">
        <ele>647</ele>
        <time>2013-09-01T07:59:05Z</time>
      </trkpt>
      <trkpt lat="43.89667" lon="7.24649">
        <ele>647</ele>
        <time>2013-09-01T07:59:13Z</time>
      </trkpt>
      <trkpt lat="43.89672" lon="7.24639">
        <ele>647</ele>
        <time>2013-09-01T07:59:24Z</time>
      </trkpt>
      <trkpt lat="43.89674" lon="7.24627">
        <ele>647</ele>
        <time>2013-09-01T07:59:34Z</time>
      </trkpt>
      <trkpt lat="43.89672" lon="7.24614">
        <ele>641</ele>
        <time>2013-09-01T07:59:44Z</time>
      </trkpt>
      <trkpt lat="43.89674" lon="7.24602">
        <ele>641</ele>
        <time>2013-09-01T07:59:53Z</time>
      </trkpt>
      <trkpt lat="43.89676" lon="7.2459">
        <ele>635</ele>
        <time>2013-09-01T08:00:02Z</time>
      </trkpt>
      <trkpt lat="43.89676" lon="7.24578">
        <ele>635</ele>
        <time>2013-09-01T08:00:10Z</time>
      </trkpt>
      <trkpt lat="43.8968" lon="7.24567">
        <ele>642</ele>
        <time>2013-09-01T08:00:19Z</time>
      </trkpt>
      <trkpt lat="43.89685" lon="7.24557">
        <ele>634</ele>
        <time>2013-09-01T08:00:29Z</time>
      </trkpt>
      <trkpt lat="43.8968" lon="7.24545">
        <ele>628</ele>
        <time>2013-09-01T08:00:35Z</time>
      </trkpt>
      <trkpt lat="43.89677" lon="7.24528">
        <ele>628</ele>
        <time>2013-09-01T08:00:43Z</time>
      </trkpt>
      <trkpt lat="43.89679" lon="7.24515">
        <ele>623</ele>
        <time>2013-09-01T08:00:49Z</time>
      </trkpt>
      <trkpt lat="43.89676" lon="7.24502">
        <ele>632</ele>
        <time>2013-09-01T08:01:01Z</time>
      </trkpt>
      <trkpt lat="43.89667" lon="7.24497">
        <ele>642</ele>
        <time>2013-09-01T08:01:06Z</time>
      </trkpt>
      <trkpt lat="43.89668" lon="7.24483">
        <ele>635</ele>
        <time>2013-09-01T08:01:17Z</time>
      </trkpt>
      <trkpt lat="43.8967" lon="7.24471">
        <ele>629</ele>
        <time>2013-09-01T08:01:29Z</time>
      </trkpt>
      <trkpt lat="43.8966" lon="7.24465">
        <ele>621</ele>
        <time>2013-09-01T08:01:40Z</time>
      </trkpt>
      <trkpt lat="43.89655" lon="7.24475">
        <ele>621</ele>
        <time>2013-09-01T08:01:53Z</time>
      </trkpt>
      <trkpt lat="43.89648" lon="7.24487">
        <ele>621</ele>
        <time>2013-09-01T08:02:01Z</time>
      </trkpt>
      <trkpt lat="43.8965" lon="7.24501">
        <ele>629</ele>
        <time>2013-09-01T08:02:10Z</time>
      </trkpt>
      <trkpt lat="43.89644" lon="7.24512">
        <ele>629</ele>
        <time>2013-09-01T08:02:16Z</time>
      </trkpt>
      <trkpt lat="43.89633" lon="7.24518">
        <ele>623</ele>
        <time>2013-09-01T08:02:23Z</time>
      </trkpt>
      <trkpt lat="43.89624" lon="7.24525">
        <ele>632</ele>
        <time>2013-09-01T08:02:40Z</time>
      </trkpt>
      <trkpt lat="43.89615" lon="7.24529">
        <ele>632</ele>
        <time>2013-09-01T08:02:46Z</time>
      </trkpt>
      <trkpt lat="43.89607" lon="7.24534">
        <ele>626</ele>
        <time>2013-09-01T08:02:53Z</time>
      </trkpt>
      <trkpt lat="43.89606" lon="7.24546">
        <ele>626</ele>
        <time>2013-09-01T08:03:00Z</time>
      </trkpt>
      <trkpt lat="43.89602" lon="7.24557">
        <ele>619</ele>
        <time>2013-09-01T08:03:08Z</time>
      </trkpt>
      <trkpt lat="43.89596" lon="7.24567">
        <ele>619</ele>
        <time>2013-09-01T08:03:16Z</time>
      </trkpt>
      <trkpt lat="43.89587" lon="7.24573">
        <ele>619</ele>
        <time>2013-09-01T08:03:23Z</time>
      </trkpt>
      <trkpt lat="43.89578" lon="7.24574">
        <ele>613</ele>
        <time>2013-09-01T08:03:28Z</time>
      </trkpt>
      <trkpt lat="43.89571" lon="7.24581">
        <ele>613</ele>
        <time>2013-09-01T08:03:37Z</time>
      </trkpt>
      <trkpt lat="43.89563" lon="7.24587">
        <ele>622</ele>
        <time>2013-09-01T08:03:47Z</time>
      </trkpt>
      <trkpt lat="43.89554" lon="7.24594">
        <ele>622</ele>
        <time>2013-09-01T08:03:56Z</time>
      </trkpt>
      <trkpt lat="43.89544" lon="7.246">
        <ele>629</ele>
        <time>2013-09-01T08:04:09Z</time>
      </trkpt>
      <trkpt lat="43.89535" lon="7.24603">
        <ele>622</ele>
        <time>2013-09-01T08:04:16Z</time>
      </trkpt>
      <trkpt lat="43.89526" lon="7.24606">
        <ele>622</ele>
        <time>2013-09-01T08:04:23Z</time>
      </trkpt>
      <trkpt lat="43.89518" lon="7.24613">
        <ele>616</ele>
        <time>2013-09-01T08:04:32Z</time>
      </trkpt>
      <trkpt lat="43.89508" lon="7.2462">
        <ele>616</ele>
        <time>2013-09-01T08:04:39Z</time>
      </trkpt>
      <trkpt lat="43.895" lon="7.24623">
        <ele>610</ele>
        <time>2013-09-01T08:04:50Z</time>
      </trkpt>
      <trkpt lat="43.89484" lon="7.24622">
        <ele>610</ele>
        <time>2013-09-01T08:05:01Z</time>
      </trkpt>
      <trkpt lat="43.89475" lon="7.24627">
        <ele>616</ele>
        <time>2013-09-01T08:05:11Z</time>
      </trkpt>
      <trkpt lat="43.89466" lon="7.24631">
        <ele>616</ele>
        <time>2013-09-01T08:05:20Z</time>
      </trkpt>
      <trkpt lat="43.89458" lon="7.24634">
        <ele>616</ele>
        <time>2013-09-01T08:05:26Z</time>
      </trkpt>
      <trkpt lat="43.89455" lon="7.24647">
        <ele>616</ele>
        <time>2013-09-01T08:05:34Z</time>
      </trkpt>
      <trkpt lat="43.89448" lon="7.24656">
        <ele>616</ele>
        <time>2013-09-01T08:05:43Z</time>
      </trkpt>
      <trkpt lat="43.89441" lon="7.24665">
        <ele>616</ele>
        <time>2013-09-01T08:05:53Z</time>
      </trkpt>
      <trkpt lat="43.89433" lon="7.24671">
        <ele>616</ele>
        <time>2013-09-01T08:06:01Z</time>
      </trkpt>
      <trkpt lat="43.89427" lon="7.24682">
        <ele>623</ele>
        <time>2013-09-01T08:06:16Z</time>
      </trkpt>
      <trkpt lat="43.8942" lon="7.24689">
        <ele>623</ele>
        <time>2013-09-01T08:06:24Z</time>
      </trkpt>
      <trkpt lat="43.89411" lon="7.24693">
        <ele>623</ele>
        <time>2013-09-01T08:06:31Z</time>
      </trkpt>
      <trkpt lat="43.89402" lon="7.24697">
        <ele>623</ele>
        <time>2013-09-01T08:06:37Z</time>
      </trkpt>
      <trkpt lat="43.89398" lon="7.24709">
        <ele>623</ele>
        <time>2013-09-01T08:06:48Z</time>
      </trkpt>
      <trkpt lat="43.89388" lon="7.24709">
        <ele>623</ele>
        <time>2013-09-01T08:07:02Z</time>
      </trkpt>
      <trkpt lat="43.8938" lon="7.24717">
        <ele>623</ele>
        <time>2013-09-01T08:07:15Z</time>
      </trkpt>
      <trkpt lat="43.89372" lon="7.2472">
        <ele>623</ele>
        <time>2013-09-01T08:07:20Z</time>
      </trkpt>
      <trkpt lat="43.89366" lon="7.24732">
        <ele>623</ele>
        <time>2013-09-01T08:07:27Z</time>
      </trkpt>
      <trkpt lat="43.89361" lon="7.24743">
        <ele>614</ele>
        <time>2013-09-01T08:07:38Z</time>
      </trkpt>
      <trkpt lat="43.89355" lon="7.24752">
        <ele>621</ele>
        <time>2013-09-01T08:07:46Z</time>
      </trkpt>
      <trkpt lat="43.89346" lon="7.24761">
        <ele>621</ele>
        <time>2013-09-01T08:07:58Z</time>
      </trkpt>
      <trkpt lat="43.89337" lon="7.24762">
        <ele>621</ele>
        <time>2013-09-01T08:08:14Z</time>
      </trkpt>
      <trkpt lat="43.89328" lon="7.24759">
        <ele>621</ele>
        <time>2013-09-01T08:08:30Z</time>
      </trkpt>
      <trkpt lat="43.8932" lon="7.24754">
        <ele>621</ele>
        <time>2013-09-01T08:08:44Z</time>
      </trkpt>
      <trkpt lat="43.89311" lon="7.24762">
        <ele>621</ele>
        <time>2013-09-01T08:08:57Z</time>
      </trkpt>
      <trkpt lat="43.89302" lon="7.24764">
        <ele>609</ele>
        <time>2013-09-01T08:09:29Z</time>
      </trkpt>
      <trkpt lat="43.89292" lon="7.24767">
        <ele>609</ele>
        <time>2013-09-01T08:09:36Z</time>
      </trkpt>
      <trkpt lat="43.89283" lon="7.24764">
        <ele>609</ele>
        <time>2013-09-01T08:09:53Z</time>
      </trkpt>
      <trkpt lat="43.89277" lon="7.24754">
        <ele>609</ele>
        <time>2013-09-01T08:10:02Z</time>
      </trkpt>
      <trkpt lat="43.89268" lon="7.24752">
        <ele>609</ele>
        <time>2013-09-01T08:10:16Z</time>
      </trkpt>
      <trkpt lat="43.89272" lon="7.24739">
        <ele>602</ele>
        <time>2013-09-01T08:10:29Z</time>
      </trkpt>
      <trkpt lat="43.89264" lon="7.24731">
        <ele>602</ele>
        <time>2013-09-01T08:10:43Z</time>
      </trkpt>
      <trkpt lat="43.89259" lon="7.2472">
        <ele>608</ele>
        <time>2013-09-01T08:10:49Z</time>
      </trkpt>
      <trkpt lat="43.89253" lon="7.24707">
        <ele>601</ele>
        <time>2013-09-01T08:10:57Z</time>
      </trkpt>
      <trkpt lat="43.89244" lon="7.24707">
        <ele>601</ele>
        <time>2013-09-01T08:11:04Z</time>
      </trkpt>
      <trkpt lat="43.89233" lon="7.24703">
        <ele>601</ele>
        <time>2013-09-01T08:11:17Z</time>
      </trkpt>
      <trkpt lat="43.89227" lon="7.24693">
        <ele>593</ele>
        <time>2013-09-01T08:11:29Z</time>
      </trkpt>
      <trkpt lat="43.89216" lon="7.24695">
        <ele>599</ele>
        <time>2013-09-01T08:11:38Z</time>
      </trkpt>
      <trkpt lat="43.89211" lon="7.24684">
        <ele>599</ele>
        <time>2013-09-01T08:11:47Z</time>
      </trkpt>
      <trkpt lat="43.89203" lon="7.24677">
        <ele>599</ele>
        <time>2013-09-01T08:11:58Z</time>
      </trkpt>
      <trkpt lat="43.89197" lon="7.24666">
        <ele>599</ele>
        <time>2013-09-01T08:12:07Z</time>
      </trkpt>
      <trkpt lat="43.8919" lon="7.24658">
        <ele>599</ele>
        <time>2013-09-01T08:12:16Z</time>
      </trkpt>
      <trkpt lat="43.89186" lon="7.24647">
        <ele>599</ele>
        <time>2013-09-01T08:12:27Z</time>
      </trkpt>
      <trkpt lat="43.89187" lon="7.24634">
        <ele>592</ele>
        <time>2013-09-01T08:12:37Z</time>
      </trkpt>
      <trkpt lat="43.89186" lon="7.24622">
        <ele>598</ele>
        <time>2013-09-01T08:12:51Z</time>
      </trkpt>
      <trkpt lat="43.89186" lon="7.24605">
        <ele>598</ele>
        <time>2013-09-01T08:12:59Z</time>
      </trkpt>
      <trkpt lat="43.89179" lon="7.24596">
        <ele>598</ele>
        <time>2013-09-01T08:13:11Z</time>
      </trkpt>
      <trkpt lat="43.89176" lon="7.24584">
        <ele>588</ele>
        <time>2013-09-01T08:13:20Z</time>
      </trkpt>
      <trkpt lat="43.89166" lon="7.24578">
        <ele>588</ele>
        <time>2013-09-01T08:13:25Z</time>
      </trkpt>
      <trkpt lat="43.89159" lon="7.24569">
        <ele>588</ele>
        <time>2013-09-01T08:13:33Z</time>
      </trkpt>
      <trkpt lat="43.89151" lon="7.24563">
        <ele>588</ele>
        <time>2013-09-01T08:13:42Z</time>
      </trkpt>
      <trkpt lat="43.89141" lon="7.24567">
        <ele>588</ele>
        <time>2013-09-01T08:13:45Z</time>
      </trkpt>
      <trkpt lat="43.89133" lon="7.24571">
        <ele>588</ele>
        <time>2013-09-01T08:13:49Z</time>
      </trkpt>
      <trkpt lat="43.89121" lon="7.24569">
        <ele>588</ele>
        <time>2013-09-01T08:14:03Z</time>
      </trkpt>
      <trkpt lat="43.89112" lon="7.24572">
        <ele>588</ele>
        <time>2013-09-01T08:14:12Z</time>
      </trkpt>
      <trkpt lat="43.8911" lon="7.24586">
        <ele>601</ele>
        <time>2013-09-01T08:14:18Z</time>
      </trkpt>
      <trkpt lat="43.89106" lon="7.24572">
        <ele>601</ele>
        <time>2013-09-01T08:14:32Z</time>
      </trkpt>
      <trkpt lat="43.89102" lon="7.2456">
        <ele>594</ele>
        <time>2013-09-01T08:14:41Z</time>
      </trkpt>
      <trkpt lat="43.89096" lon="7.24551">
        <ele>604</ele>
        <time>2013-09-01T08:14:53Z</time>
      </trkpt>
      <trkpt lat="43.89096" lon="7.24537">
        <ele>604</ele>
        <time>2013-09-01T08:15:02Z</time>
      </trkpt>
      <trkpt lat="43.89088" lon="7.24529">
        <ele>604</ele>
        <time>2013-09-01T08:15:11Z</time>
      </trkpt>
      <trkpt lat="43.89086" lon="7.24516">
        <ele>604</ele>
        <time>2013-09-01T08:15:22Z</time>
      </trkpt>
      <trkpt lat="43.89087" lon="7.24504">
        <ele>604</ele>
        <time>2013-09-01T08:15:29Z</time>
      </trkpt>
      <trkpt lat="43.89084" lon="7.24492">
        <ele>604</ele>
        <time>2013-09-01T08:15:44Z</time>
      </trkpt>
      <trkpt lat="43.8908" lon="7.24481">
        <ele>596</ele>
        <time>2013-09-01T08:16:00Z</time>
      </trkpt>
      <trkpt lat="43.89071" lon="7.24481">
        <ele>606</ele>
        <time>2013-09-01T08:16:41Z</time>
      </trkpt>
      <trkpt lat="43.89062" lon="7.24472">
        <ele>601</ele>
        <time>2013-09-01T08:17:15Z</time>
      </trkpt>
      <trkpt lat="43.89053" lon="7.24472">
        <ele>601</ele>
        <time>2013-09-01T08:17:33Z</time>
      </trkpt>
      <trkpt lat="43.89042" lon="7.24467">
        <ele>601</ele>
        <time>2013-09-01T08:17:40Z</time>
      </trkpt>
      <trkpt lat="43.89045" lon="7.24454">
        <ele>601</ele>
        <time>2013-09-01T08:17:48Z</time>
      </trkpt>
      <trkpt lat="43.89038" lon="7.24446">
        <ele>607</ele>
        <time>2013-09-01T08:17:58Z</time>
      </trkpt>
      <trkpt lat="43.89029" lon="7.24439">
        <ele>607</ele>
        <time>2013-09-01T08:18:03Z</time>
      </trkpt>
      <trkpt lat="43.89023" lon="7.24428">
        <ele>602</ele>
        <time>2013-09-01T08:18:08Z</time>
      </trkpt>
      <trkpt lat="43.8902" lon="7.24416">
        <ele>602</ele>
        <time>2013-09-01T08:18:15Z</time>
      </trkpt>
      <trkpt lat="43.8902" lon="7.24403">
        <ele>602</ele>
        <time>2013-09-01T08:18:25Z</time>
      </trkpt>
      <trkpt lat="43.89014" lon="7.24393">
        <ele>602</ele>
        <time>2013-09-01T08:18:33Z</time>
      </trkpt>
      <trkpt lat="43.89008" lon="7.24383">
        <ele>602</ele>
        <time>2013-09-01T08:18:41Z</time>
      </trkpt>
      <trkpt lat="43.89014" lon="7.24373">
        <ele>602</ele>
        <time>2013-09-01T08:18:49Z</time>
      </trkpt>
      <trkpt lat="43.89016" lon="7.2436">
        <ele>602</ele>
        <time>2013-09-01T08:18:59Z</time>
      </trkpt>
      <trkpt lat="43.89016" lon="7.24348">
        <ele>602</ele>
        <time>2013-09-01T08:19:08Z</time>
      </trkpt>
      <trkpt lat="43.89016" lon="7.24334">
        <ele>602</ele>
        <time>2013-09-01T08:19:21Z</time>
      </trkpt>
      <trkpt lat="43.89012" lon="7.24323">
        <ele>602</ele>
        <time>2013-09-01T08:19:28Z</time>
      </trkpt>
      <trkpt lat="43.89007" lon="7.24313">
        <ele>602</ele>
        <time>2013-09-01T08:19:37Z</time>
      </trkpt>
      <trkpt lat="43.88997" lon="7.24303">
        <ele>602</ele>
        <time>2013-09-01T08:19:48Z</time>
      </trkpt>
      <trkpt lat="43.88987" lon="7.24302">
        <ele>602</ele>
        <time>2013-09-01T08:19:53Z</time>
      </trkpt>
      <trkpt lat="43.88979" lon="7.24295">
        <ele>602</ele>
        <time>2013-09-01T08:20:00Z</time>
      </trkpt>
      <trkpt lat="43.88978" lon="7.24283">
        <ele>602</ele>
        <time>2013-09-01T08:20:09Z</time>
      </trkpt>
      <trkpt lat="43.88982" lon="7.24272">
        <ele>602</ele>
        <time>2013-09-01T08:20:20Z</time>
      </trkpt>
      <trkpt lat="43.88992" lon="7.24268">
        <ele>602</ele>
        <time>2013-09-01T08:20:27Z</time>
      </trkpt>
      <trkpt lat="43.88988" lon="7.24255">
        <ele>610</ele>
        <time>2013-09-01T08:20:37Z</time>
      </trkpt>
      <trkpt lat="43.88984" lon="7.24242">
        <ele>610</ele>
        <time>2013-09-01T08:20:41Z</time>
      </trkpt>
      <trkpt lat="43.88977" lon="7.24234">
        <ele>610</ele>
        <time>2013-09-01T08:20:43Z</time>
      </trkpt>
      <trkpt lat="43.8897" lon="7.24226">
        <ele>610</ele>
        <time>2013-09-01T08:20:47Z</time>
      </trkpt>
      <trkpt lat="43.8898" lon="7.24228">
        <ele>610</ele>
        <time>2013-09-01T08:20:51Z</time>
      </trkpt>
      <trkpt lat="43.88989" lon="7.24225">
        <ele>610</ele>
        <time>2013-09-01T08:20:55Z</time>
      </trkpt>
      <trkpt lat="43.88996" lon="7.24217">
        <ele>610</ele>
        <time>2013-09-01T08:21:00Z</time>
      </trkpt>
      <trkpt lat="43.88992" lon="7.24205">
        <ele>610</ele>
        <time>2013-09-01T08:21:13Z</time>
      </trkpt>
      <trkpt lat="43.88999" lon="7.24196">
        <ele>610</ele>
        <time>2013-09-01T08:21:20Z</time>
      </trkpt>
      <trkpt lat="43.8899" lon="7.24194">
        <ele>610</ele>
        <time>2013-09-01T08:21:35Z</time>
      </trkpt>
      <trkpt lat="43.88979" lon="7.24192">
        <ele>610</ele>
        <time>2013-09-01T08:21:39Z</time>
      </trkpt>
      <trkpt lat="43.88969" lon="7.24194">
        <ele>610</ele>
        <time>2013-09-01T08:21:44Z</time>
      </trkpt>
      <trkpt lat="43.88961" lon="7.24199">
        <ele>610</ele>
        <time>2013-09-01T08:21:51Z</time>
      </trkpt>
      <trkpt lat="43.88952" lon="7.24198">
        <ele>604</ele>
        <time>2013-09-01T08:22:06Z</time>
      </trkpt>
      <trkpt lat="43.88945" lon="7.24189">
        <ele>604</ele>
        <time>2013-09-01T08:22:16Z</time>
      </trkpt>
      <trkpt lat="43.88941" lon="7.24178">
        <ele>604</ele>
        <time>2013-09-01T08:22:27Z</time>
      </trkpt>
      <trkpt lat="43.88942" lon="7.24165">
        <ele>604</ele>
        <time>2013-09-01T08:22:35Z</time>
      </trkpt>
      <trkpt lat="43.8894" lon="7.24153">
        <ele>604</ele>
        <time>2013-09-01T08:22:47Z</time>
      </trkpt>
      <trkpt lat="43.88934" lon="7.24143">
        <ele>604</ele>
        <time>2013-09-01T08:22:57Z</time>
      </trkpt>
      <trkpt lat="43.88925" lon="7.24144">
        <ele>609</ele>
        <time>2013-09-01T08:23:01Z</time>
      </trkpt>
      <trkpt lat="43.88917" lon="7.24147">
        <ele>609</ele>
        <time>2013-09-01T08:23:09Z</time>
      </trkpt>
      <trkpt lat="43.88908" lon="7.24147">
        <ele>603</ele>
        <time>2013-09-01T08:23:19Z</time>
      </trkpt>
      <trkpt lat="43.88898" lon="7.24148">
        <ele>603</ele>
        <time>2013-09-01T08:23:26Z</time>
      </trkpt>
      <trkpt lat="43.88888" lon="7.24153">
        <ele>603</ele>
        <time>2013-09-01T08:23:35Z</time>
      </trkpt>
      <trkpt lat="43.88879" lon="7.24154">
        <ele>595</ele>
        <time>2013-09-01T08:23:47Z</time>
      </trkpt>
      <trkpt lat="43.88871" lon="7.24161">
        <ele>595</ele>
        <time>2013-09-01T08:24:03Z</time>
      </trkpt>
      <trkpt lat="43.88866" lon="7.24173">
        <ele>595</ele>
        <time>2013-09-01T08:24:11Z</time>
      </trkpt>
      <trkpt lat="43.88863" lon="7.24185">
        <ele>595</ele>
        <time>2013-09-01T08:24:15Z</time>
      </trkpt>
      <trkpt lat="43.88862" lon="7.24198">
        <ele>579</ele>
        <time>2013-09-01T08:24:58Z</time>
      </trkpt>
      <trkpt lat="43.8886" lon="7.24211">
        <ele>579</ele>
        <time>2013-09-01T08:25:09Z</time>
      </trkpt>
      <trkpt lat="43.88856" lon="7.24224">
        <ele>579</ele>
        <time>2013-09-01T08:25:22Z</time>
      </trkpt>
      <trkpt lat="43.88855" lon="7.24237">
        <ele>579</ele>
        <time>2013-09-01T08:25:31Z</time>
      </trkpt>
      <trkpt lat="43.88846" lon="7.24234">
        <ele>579</ele>
        <time>2013-09-01T08:25:47Z</time>
      </trkpt>
      <trkpt lat="43.88837" lon="7.24233">
        <ele>569</ele>
        <time>2013-09-01T08:26:00Z</time>
      </trkpt>
      <trkpt lat="43.88829" lon="7.2424">
        <ele>569</ele>
        <time>2013-09-01T08:26:10Z</time>
      </trkpt>
      <trkpt lat="43.8882" lon="7.24238">
        <ele>569</ele>
        <time>2013-09-01T08:26:20Z</time>
      </trkpt>
      <trkpt lat="43.88813" lon="7.24248">
        <ele>569</ele>
        <time>2013-09-01T08:26:30Z</time>
      </trkpt>
      <trkpt lat="43.88808" lon="7.2426">
        <ele>578</ele>
        <time>2013-09-01T08:26:36Z</time>
      </trkpt>
      <trkpt lat="43.88797" lon="7.24263">
        <ele>568</ele>
        <time>2013-09-01T08:26:47Z</time>
      </trkpt>
      <trkpt lat="43.88788" lon="7.2426">
        <ele>559</ele>
        <time>2013-09-01T08:26:52Z</time>
      </trkpt>
      <trkpt lat="43.8878" lon="7.24263">
        <ele>559</ele>
        <time>2013-09-01T08:27:00Z</time>
      </trkpt>
      <trkpt lat="43.88775" lon="7.24274">
        <ele>559</ele>
        <time>2013-09-01T08:27:11Z</time>
      </trkpt>
      <trkpt lat="43.88764" lon="7.24278">
        <ele>559</ele>
        <time>2013-09-01T08:27:19Z</time>
      </trkpt>
      <trkpt lat="43.88761" lon="7.24265">
        <ele>559</ele>
        <time>2013-09-01T08:27:36Z</time>
      </trkpt>
      <trkpt lat="43.88764" lon="7.24253">
        <ele>550</ele>
        <time>2013-09-01T08:28:19Z</time>
      </trkpt>
      <trkpt lat="43.8876" lon="7.24242">
        <ele>550</ele>
        <time>2013-09-01T08:28:29Z</time>
      </trkpt>
      <trkpt lat="43.88758" lon="7.24229">
        <ele>550</ele>
        <time>2013-09-01T08:28:35Z</time>
      </trkpt>
      <trkpt lat="43.88754" lon="7.24218">
        <ele>550</ele>
        <time>2013-09-01T08:28:44Z</time>
      </trkpt>
      <trkpt lat="43.88756" lon="7.24232">
        <ele>550</ele>
        <time>2013-09-01T08:28:52Z</time>
      </trkpt>
      <trkpt lat="43.88751" lon="7.24243">
        <ele>550</ele>
        <time>2013-09-01T08:29:03Z</time>
      </trkpt>
      <trkpt lat="43.8875" lon="7.24256">
        <ele>544</ele>
        <time>2013-09-01T08:29:10Z</time>
      </trkpt>
      <trkpt lat="43.88741" lon="7.24258">
        <ele>544</ele>
        <time>2013-09-01T08:29:17Z</time>
      </trkpt>
      <trkpt lat="43.88734" lon="7.24266">
        <ele>552</ele>
        <time>2013-09-01T08:29:26Z</time>
      </trkpt>
      <trkpt lat="43.88734" lon="7.24278">
        <ele>543</ele>
        <time>2013-09-01T08:29:37Z</time>
      </trkpt>
      <trkpt lat="43.88734" lon="7.24291">
        <ele>543</ele>
        <time>2013-09-01T08:29:45Z</time>
      </trkpt>
      <trkpt lat="43.88734" lon="7.24304">
        <ele>531</ele>
        <time>2013-09-01T08:29:56Z</time>
      </trkpt>
      <trkpt lat="43.88728" lon="7.24295">
        <ele>538</ele>
        <time>2013-09-01T08:30:18Z</time>
      </trkpt>
      <trkpt lat="43.88723" lon="7.24284">
        <ele>538</ele>
        <time>2013-09-01T08:30:27Z</time>
      </trkpt>
      <trkpt lat="43.88723" lon="7.24271">
        <ele>538</ele>
        <time>2013-09-01T08:30:40Z</time>
      </trkpt>
      <trkpt lat="43.88725" lon="7.24259">
        <ele>531</ele>
        <time>2013-09-01T08:30:54Z</time>
      </trkpt>
      <trkpt lat="43.88721" lon="7.24247">
        <ele>531</ele>
        <time>2013-09-01T08:31:05Z</time>
      </trkpt>
      <trkpt lat="43.88713" lon="7.24239">
        <ele>531</ele>
        <time>2013-09-01T08:31:34Z</time>
      </trkpt>
      <trkpt lat="43.88703" lon="7.24238">
        <ele>519</ele>
        <time>2013-09-01T08:31:58Z</time>
      </trkpt>
      <trkpt lat="43.88701" lon="7.24225">
        <ele>507</ele>
        <time>2013-09-01T08:32:14Z</time>
      </trkpt>
      <trkpt lat="43.88695" lon="7.24209">
        <ele>513</ele>
        <time>2013-09-01T08:32:30Z</time>
      </trkpt>
      <trkpt lat="43.88695" lon="7.24222">
        <ele>499</ele>
        <time>2013-09-01T08:32:44Z</time>
      </trkpt>
      <trkpt lat="43.88692" lon="7.2421">
        <ele>486</ele>
        <time>2013-09-01T08:33:14Z</time>
      </trkpt>
      <trkpt lat="43.88689" lon="7.24198">
        <ele>486</ele>
        <time>2013-09-01T08:33:29Z</time>
      </trkpt>
      <trkpt lat="43.88684" lon="7.24208">
        <ele>480</ele>
        <time>2013-09-01T08:33:40Z</time>
      </trkpt>
      <trkpt lat="43.88682" lon="7.24195">
        <ele>480</ele>
        <time>2013-09-01T08:33:53Z</time>
      </trkpt>
      <trkpt lat="43.88675" lon="7.24185">
        <ele>480</ele>
        <time>2013-09-01T08:34:03Z</time>
      </trkpt>
      <trkpt lat="43.88669" lon="7.24174">
        <ele>504</ele>
        <time>2013-09-01T08:34:13Z</time>
      </trkpt>
      <trkpt lat="43.88667" lon="7.2416">
        <ele>504</ele>
        <time>2013-09-01T08:34:28Z</time>
      </trkpt>
      <trkpt lat="43.88671" lon="7.24147">
        <ele>504</ele>
        <time>2013-09-01T08:34:38Z</time>
      </trkpt>
      <trkpt lat="43.88676" lon="7.24136">
        <ele>496</ele>
        <time>2013-09-01T08:34:46Z</time>
      </trkpt>
      <trkpt lat="43.88675" lon="7.24124">
        <ele>496</ele>
        <time>2013-09-01T08:34:59Z</time>
      </trkpt>
      <trkpt lat="43.88667" lon="7.24131">
        <ele>464</ele>
        <time>2013-09-01T08:35:25Z</time>
      </trkpt>
      <trkpt lat="43.88659" lon="7.24139">
        <ele>457</ele>
        <time>2013-09-01T08:35:37Z</time>
      </trkpt>
      <trkpt lat="43.88651" lon="7.24146">
        <ele>448</ele>
        <time>2013-09-01T08:35:50Z</time>
      </trkpt>
      <trkpt lat="43.88651" lon="7.24134">
        <ele>464</ele>
        <time>2013-09-01T08:36:19Z</time>
      </trkpt>
      <trkpt lat="43.88642" lon="7.24133">
        <ele>464</ele>
        <time>2013-09-01T08:36:28Z</time>
      </trkpt>
      <trkpt lat="43.88635" lon="7.24141">
        <ele>456</ele>
        <time>2013-09-01T08:36:41Z</time>
      </trkpt>
      <trkpt lat="43.88628" lon="7.24148">
        <ele>456</ele>
        <time>2013-09-01T08:36:52Z</time>
      </trkpt>
      <trkpt lat="43.88624" lon="7.24161">
        <ele>456</ele>
        <time>2013-09-01T08:37:03Z</time>
      </trkpt>
      <trkpt lat="43.8862" lon="7.24173">
        <ele>449</ele>
        <time>2013-09-01T08:37:14Z</time>
      </trkpt>
      <trkpt lat="43.8862" lon="7.24187">
        <ele>449</ele>
        <time>2013-09-01T08:37:24Z</time>
      </trkpt>
      <trkpt lat="43.88617" lon="7.24198">
        <ele>449</ele>
        <time>2013-09-01T08:37:35Z</time>
      </trkpt>
      <trkpt lat="43.88617" lon="7.24212">
        <ele>440</ele>
        <time>2013-09-01T08:37:46Z</time>
      </trkpt>
      <trkpt lat="43.88613" lon="7.24225">
        <ele>434</ele>
        <time>2013-09-01T08:37:56Z</time>
      </trkpt>
      <trkpt lat="43.8861" lon="7.24236">
        <ele>434</ele>
        <time>2013-09-01T08:38:07Z</time>
      </trkpt>
      <trkpt lat="43.88606" lon="7.24248">
        <ele>434</ele>
        <time>2013-09-01T08:38:23Z</time>
      </trkpt>
      <trkpt lat="43.88606" lon="7.2426">
        <ele>427</ele>
        <time>2013-09-01T08:38:31Z</time>
      </trkpt>
      <trkpt lat="43.88601" lon="7.24251">
        <ele>445</ele>
        <time>2013-09-01T08:38:50Z</time>
      </trkpt>
      <trkpt lat="43.88597" lon="7.24239">
        <ele>445</ele>
        <time>2013-09-01T08:39:05Z</time>
      </trkpt>
      <trkpt lat="43.88598" lon="7.24226">
        <ele>445</ele>
        <time>2013-09-01T08:39:14Z</time>
      </trkpt>
      <trkpt lat="43.88595" lon="7.24215">
        <ele>445</ele>
        <time>2013-09-01T08:39:22Z</time>
      </trkpt>
      <trkpt lat="43.88591" lon="7.24203">
        <ele>445</ele>
        <time>2013-09-01T08:39:35Z</time>
      </trkpt>
      <trkpt lat="43.88586" lon="7.24192">
        <ele>445</ele>
        <time>2013-09-01T08:39:42Z</time>
      </trkpt>
      <trkpt lat="43.88587" lon="7.24178">
        <ele>436</ele>
        <time>2013-09-01T08:39:56Z</time>
      </trkpt>
      <trkpt lat="43.88587" lon="7.24165">
        <ele>436</ele>
        <time>2013-09-01T08:40:12Z</time>
      </trkpt>
      <trkpt lat="43.88584" lon="7.24152">
        <ele>430</ele>
        <time>2013-09-01T08:40:21Z</time>
      </trkpt>
      <trkpt lat="43.88579" lon="7.2414">
        <ele>430</ele>
        <time>2013-09-01T08:40:29Z</time>
      </trkpt>
      <trkpt lat="43.88576" lon="7.24128">
        <ele>439</ele>
        <time>2013-09-01T08:40:41Z</time>
      </trkpt>
      <trkpt lat="43.88574" lon="7.24115">
        <ele>433</ele>
        <time>2013-09-01T08:40:53Z</time>
      </trkpt>
      <trkpt lat="43.88568" lon="7.24106">
        <ele>425</ele>
        <time>2013-09-01T08:41:03Z</time>
      </trkpt>
      <trkpt lat="43.88561" lon="7.24099">
        <ele>425</ele>
        <time>2013-09-01T08:41:15Z</time>
      </trkpt>
      <trkpt lat="43.88558" lon="7.24083">
        <ele>413</ele>
        <time>2013-09-01T08:41:24Z</time>
      </trkpt>
      <trkpt lat="43.88549" lon="7.24085">
        <ele>420</ele>
        <time>2013-09-01T08:41:31Z</time>
      </trkpt>
      <trkpt lat="43.88539" lon="7.24078">
        <ele>428</ele>
        <time>2013-09-01T08:41:44Z</time>
      </trkpt>
      <trkpt lat="43.8853" lon="7.24077">
        <ele>421</ele>
        <time>2013-09-01T08:41:56Z</time>
      </trkpt>
      <trkpt lat="43.88524" lon="7.24067">
        <ele>421</ele>
        <time>2013-09-01T08:42:06Z</time>
      </trkpt>
      <trkpt lat="43.88515" lon="7.2407">
        <ele>413</ele>
        <time>2013-09-01T08:42:14Z</time>
      </trkpt>
      <trkpt lat="43.88506" lon="7.24068">
        <ele>413</ele>
        <time>2013-09-01T08:42:23Z</time>
      </trkpt>
      <trkpt lat="43.88496" lon="7.24065">
        <ele>413</ele>
        <time>2013-09-01T08:42:37Z</time>
      </trkpt>
      <trkpt lat="43.88487" lon="7.24067">
        <ele>406</ele>
        <time>2013-09-01T08:42:48Z</time>
      </trkpt>
      <trkpt lat="43.88478" lon="7.24063">
        <ele>406</ele>
        <time>2013-09-01T08:42:59Z</time>
      </trkpt>
      <trkpt lat="43.88475" lon="7.24051">
        <ele>400</ele>
        <time>2013-09-01T08:43:13Z</time>
      </trkpt>
      <trkpt lat="43.88469" lon="7.24042">
        <ele>400</ele>
        <time>2013-09-01T08:43:24Z</time>
      </trkpt>
      <trkpt lat="43.88461" lon="7.24035">
        <ele>391</ele>
        <time>2013-09-01T08:43:34Z</time>
      </trkpt>
      <trkpt lat="43.88454" lon="7.24026">
        <ele>391</ele>
        <time>2013-09-01T08:43:50Z</time>
      </trkpt>
      <trkpt lat="43.88452" lon="7.24014">
        <ele>391</ele>
        <time>2013-09-01T08:44:00Z</time>
      </trkpt>
      <trkpt lat="43.88448" lon="7.24">
        <ele>391</ele>
        <time>2013-09-01T08:44:07Z</time>
      </trkpt>
      <trkpt lat="43.88445" lon="7.23988">
        <ele>384</ele>
        <time>2013-09-01T08:44:21Z</time>
      </trkpt>
      <trkpt lat="43.88443" lon="7.23976">
        <ele>384</ele>
        <time>2013-09-01T08:44:33Z</time>
      </trkpt>
      <trkpt lat="43.88437" lon="7.23962">
        <ele>376</ele>
        <time>2013-09-01T08:44:45Z</time>
      </trkpt>
      <trkpt lat="43.88429" lon="7.23954">
        <ele>376</ele>
        <time>2013-09-01T08:44:53Z</time>
      </trkpt>
      <trkpt lat="43.88425" lon="7.23942">
        <ele>383</ele>
        <time>2013-09-01T08:45:03Z</time>
      </trkpt>
      <trkpt lat="43.8842" lon="7.2393">
        <ele>383</ele>
        <time>2013-09-01T08:45:11Z</time>
      </trkpt>
      <trkpt lat="43.88413" lon="7.23921">
        <ele>383</ele>
        <time>2013-09-01T08:45:20Z</time>
      </trkpt>
      <trkpt lat="43.88409" lon="7.23909">
        <ele>383</ele>
        <time>2013-09-01T08:45:30Z</time>
      </trkpt>
      <trkpt lat="43.88406" lon="7.23898">
        <ele>383</ele>
        <time>2013-09-01T08:45:44Z</time>
      </trkpt>
      <trkpt lat="43.88406" lon="7.23885">
        <ele>377</ele>
        <time>2013-09-01T08:45:57Z</time>
      </trkpt>
      <trkpt lat="43.88396" lon="7.23888">
        <ele>377</ele>
        <time>2013-09-01T08:46:10Z</time>
      </trkpt>
      <trkpt lat="43.88394" lon="7.239">
        <ele>366</ele>
        <time>2013-09-01T08:46:24Z</time>
      </trkpt>
      <trkpt lat="43.88389" lon="7.23889">
        <ele>366</ele>
        <time>2013-09-01T08:46:46Z</time>
      </trkpt>
      <trkpt lat="43.88393" lon="7.23878">
        <ele>366</ele>
        <time>2013-09-01T08:46:58Z</time>
      </trkpt>
      <trkpt lat="43.8839" lon="7.23865">
        <ele>366</ele>
        <time>2013-09-01T08:47:11Z</time>
      </trkpt>
      <trkpt lat="43.88385" lon="7.23851">
        <ele>366</ele>
        <time>2013-09-01T08:47:23Z</time>
      </trkpt>
      <trkpt lat="43.88378" lon="7.2384">
        <ele>357</ele>
        <time>2013-09-01T08:47:40Z</time>
      </trkpt>
      <trkpt lat="43.88375" lon="7.23828">
        <ele>357</ele>
        <time>2013-09-01T08:47:47Z</time>
      </trkpt>
      <trkpt lat="43.88368" lon="7.23818">
        <ele>369</ele>
        <time>2013-09-01T08:47:55Z</time>
      </trkpt>
      <trkpt lat="43.88363" lon="7.23807">
        <ele>369</ele>
        <time>2013-09-01T08:48:02Z</time>
      </trkpt>
      <trkpt lat="43.88358" lon="7.23794">
        <ele>363</ele>
        <time>2013-09-01T08:48:10Z</time>
      </trkpt>
      <trkpt lat="43.88363" lon="7.23784">
        <ele>344</ele>
        <time>2013-09-01T08:48:20Z</time>
      </trkpt>
      <trkpt lat="43.88359" lon="7.23773">
        <ele>338</ele>
        <time>2013-09-01T08:48:29Z</time>
      </trkpt>
      <trkpt lat="43.88354" lon="7.23763">
        <ele>347</ele>
        <time>2013-09-01T08:48:37Z</time>
      </trkpt>
      <trkpt lat="43.88348" lon="7.23752">
        <ele>355</ele>
        <time>2013-09-01T08:48:47Z</time>
      </trkpt>
      <trkpt lat="43.88342" lon="7.23742">
        <ele>355</ele>
        <time>2013-09-01T08:49:00Z</time>
      </trkpt>
      <trkpt lat="43.88335" lon="7.23734">
        <ele>350</ele>
        <time>2013-09-01T08:49:08Z</time>
      </trkpt>
      <trkpt lat="43.88328" lon="7.23727">
        <ele>350</ele>
        <time>2013-09-01T08:49:52Z</time>
      </trkpt>
      <trkpt lat="43.8833" lon="7.23714">
        <ele>350</ele>
        <time>2013-09-01T08:51:33Z</time>
      </trkpt>
      <trkpt lat="43.88323" lon="7.23705">
        <ele>360</ele>
        <time>2013-09-01T08:52:30Z</time>
      </trkpt>
      <trkpt lat="43.88319" lon="7.23694">
        <ele>368</ele>
        <time>2013-09-01T08:52:39Z</time>
      </trkpt>
      <trkpt lat="43.8832" lon="7.23681">
        <ele>368</ele>
        <time>2013-09-01T08:52:46Z</time>
      </trkpt>
      <trkpt lat="43.88317" lon="7.23668">
        <ele>363</ele>
        <time>2013-09-01T08:52:55Z</time>
      </trkpt>
      <trkpt lat="43.88307" lon="7.23664">
        <ele>354</ele>
        <time>2013-09-01T08:53:32Z</time>
      </trkpt>
      <trkpt lat="43.88302" lon="7.23651">
        <ele>360</ele>
        <time>2013-09-01T08:53:41Z</time>
      </trkpt>
      <trkpt lat="43.883" lon="7.23639">
        <ele>360</ele>
        <time>2013-09-01T08:53:47Z</time>
      </trkpt>
      <trkpt lat="43.88302" lon="7.23626">
        <ele>366</ele>
        <time>2013-09-01T08:54:20Z</time>
      </trkpt>
      <trkpt lat="43.88309" lon="7.23618">
        <ele>353</ele>
        <time>2013-09-01T08:55:44Z</time>
      </trkpt>
      <trkpt lat="43.88302" lon="7.23611">
        <ele>358</ele>
        <time>2013-09-01T09:04:59Z</time>
      </trkpt>
      <trkpt lat="43.88298" lon="7.23599">
        <ele>353</ele>
        <time>2013-09-01T09:06:09Z</time>
      </trkpt>
      <trkpt lat="43.88291" lon="7.23592">
        <ele>353</ele>
        <time>2013-09-01T09:06:19Z</time>
      </trkpt>
      <trkpt lat="43.88283" lon="7.23585">
        <ele>358</ele>
        <time>2013-09-01T09:06:36Z</time>
      </trkpt>
      <trkpt lat="43.88275" lon="7.23579">
        <ele>346</ele>
        <time>2013-09-01T09:06:52Z</time>
      </trkpt>
      <trkpt lat="43.88266" lon="7.23574">
        <ele>346</ele>
        <time>2013-09-01T09:07:02Z</time>
      </trkpt>
      <trkpt lat="43.88257" lon="7.23571">
        <ele>337</ele>
        <time>2013-09-01T09:07:17Z</time>
      </trkpt>
      <trkpt lat="43.88249" lon="7.23567">
        <ele>347</ele>
        <time>2013-09-01T09:07:26Z</time>
      </trkpt>
      <trkpt lat="43.88244" lon="7.23554">
        <ele>347</ele>
        <time>2013-09-01T09:07:34Z</time>
      </trkpt>
      <trkpt lat="43.88235" lon="7.23555">
        <ele>347</ele>
        <time>2013-09-01T09:07:43Z</time>
      </trkpt>
      <trkpt lat="43.88235" lon="7.23542">
        <ele>331</ele>
        <time>2013-09-01T09:07:53Z</time>
      </trkpt>
      <trkpt lat="43.88232" lon="7.23528">
        <ele>318</ele>
        <time>2013-09-01T09:08:03Z</time>
      </trkpt>
      <trkpt lat="43.88224" lon="7.23517">
        <ele>325</ele>
        <time>2013-09-01T09:08:17Z</time>
      </trkpt>
      <trkpt lat="43.88215" lon="7.23515">
        <ele>330</ele>
        <time>2013-09-01T09:08:27Z</time>
      </trkpt>
      <trkpt lat="43.88206" lon="7.23513">
        <ele>330</ele>
        <time>2013-09-01T09:08:37Z</time>
      </trkpt>
      <trkpt lat="43.88201" lon="7.23503">
        <ele>318</ele>
        <time>2013-09-01T09:08:52Z</time>
      </trkpt>
      <trkpt lat="43.88198" lon="7.23491">
        <ele>318</ele>
        <time>2013-09-01T09:09:05Z</time>
      </trkpt>
      <trkpt lat="43.88197" lon="7.23478">
        <ele>318</ele>
        <time>2013-09-01T09:09:18Z</time>
      </trkpt>
      <trkpt lat="43.88194" lon="7.23466">
        <ele>318</ele>
        <time>2013-09-01T09:09:29Z</time>
      </trkpt>
      <trkpt lat="43.88199" lon="7.23456">
        <ele>305</ele>
        <time>2013-09-01T09:09:37Z</time>
      </trkpt>
      <trkpt lat="43.8819" lon="7.23453">
        <ele>299</ele>
        <time>2013-09-01T09:09:52Z</time>
      </trkpt>
      <trkpt lat="43.88179" lon="7.23456">
        <ele>299</ele>
        <time>2013-09-01T09:10:03Z</time>
      </trkpt>
      <trkpt lat="43.88186" lon="7.23446">
        <ele>299</ele>
        <time>2013-09-01T09:10:21Z</time>
      </trkpt>
      <trkpt lat="43.88181" lon="7.23435">
        <ele>299</ele>
        <time>2013-09-01T09:10:32Z</time>
      </trkpt>
      <trkpt lat="43.88186" lon="7.23445">
        <ele>299</ele>
        <time>2013-09-01T09:11:01Z</time>
      </trkpt>
      <trkpt lat="43.88179" lon="7.23435">
        <ele>305</ele>
        <time>2013-09-01T09:11:24Z</time>
      </trkpt>
      <trkpt lat="43.8817" lon="7.23433">
        <ele>305</ele>
        <time>2013-09-01T09:11:36Z</time>
      </trkpt>
      <trkpt lat="43.88162" lon="7.23429">
        <ele>305</ele>
        <time>2013-09-01T09:11:42Z</time>
      </trkpt>
      <trkpt lat="43.88156" lon="7.23419">
        <ele>294</ele>
        <time>2013-09-01T09:11:53Z</time>
      </trkpt>
      <trkpt lat="43.88147" lon="7.23416">
        <ele>294</ele>
        <time>2013-09-01T09:12:00Z</time>
      </trkpt>
      <trkpt lat="43.88137" lon="7.23418">
        <ele>287</ele>
        <time>2013-09-01T09:12:12Z</time>
      </trkpt>
      <trkpt lat="43.88128" lon="7.23414">
        <ele>287</ele>
        <time>2013-09-01T09:12:21Z</time>
      </trkpt>
      <trkpt lat="43.8812" lon="7.23411">
        <ele>294</ele>
        <time>2013-09-01T09:12:29Z</time>
      </trkpt>
      <trkpt lat="43.8811" lon="7.23415">
        <ele>286</ele>
        <time>2013-09-01T09:12:38Z</time>
      </trkpt>
      <trkpt lat="43.88103" lon="7.23423">
        <ele>286</ele>
        <time>2013-09-01T09:12:50Z</time>
      </trkpt>
      <trkpt lat="43.88104" lon="7.2341">
        <ele>281</ele>
        <time>2013-09-01T09:13:14Z</time>
      </trkpt>
      <trkpt lat="43.88099" lon="7.23399">
        <ele>281</ele>
        <time>2013-09-01T09:13:35Z</time>
      </trkpt>
      <trkpt lat="43.88098" lon="7.23386">
        <ele>281</ele>
        <time>2013-09-01T09:14:16Z</time>
      </trkpt>
      <trkpt lat="43.88107" lon="7.23382">
        <ele>281</ele>
        <time>2013-09-01T09:14:29Z</time>
      </trkpt>
      <trkpt lat="43.881" lon="7.23373">
        <ele>281</ele>
        <time>2013-09-01T09:14:42Z</time>
      </trkpt>
      <trkpt lat="43.88092" lon="7.23369">
        <ele>281</ele>
        <time>2013-09-01T09:14:49Z</time>
      </trkpt>
      <trkpt lat="43.88086" lon="7.23359">
        <ele>272</ele>
        <time>2013-09-01T09:15:00Z</time>
      </trkpt>
      <trkpt lat="43.88095" lon="7.2336">
        <ele>266</ele>
        <time>2013-09-01T09:15:08Z</time>
      </trkpt>
      <trkpt lat="43.88104" lon="7.23359">
        <ele>266</ele>
        <time>2013-09-01T09:15:25Z</time>
      </trkpt>
      <trkpt lat="43.88112" lon="7.23352">
        <ele>260</ele>
        <time>2013-09-01T09:15:35Z</time>
      </trkpt>
      <trkpt lat="43.88122" lon="7.23353">
        <ele>266</ele>
        <time>2013-09-01T09:15:47Z</time>
      </trkpt>
      <trkpt lat="43.88131" lon="7.23355">
        <ele>266</ele>
        <time>2013-09-01T09:15:58Z</time>
      </trkpt>
      <trkpt lat="43.8814" lon="7.23349">
        <ele>260</ele>
        <time>2013-09-01T09:16:08Z</time>
      </trkpt>
      <trkpt lat="43.88151" lon="7.23345">
        <ele>253</ele>
        <time>2013-09-01T09:16:14Z</time>
      </trkpt>
      <trkpt lat="43.88161" lon="7.23341">
        <ele>245</ele>
        <time>2013-09-01T09:16:22Z</time>
      </trkpt>
      <trkpt lat="43.88154" lon="7.23334">
        <ele>245</ele>
        <time>2013-09-01T09:16:42Z</time>
      </trkpt>
      <trkpt lat="43.8815" lon="7.23323">
        <ele>259</ele>
        <time>2013-09-01T09:16:51Z</time>
      </trkpt>
      <trkpt lat="43.88138" lon="7.23319">
        <ele>259</ele>
        <time>2013-09-01T09:16:59Z</time>
      </trkpt>
      <trkpt lat="43.88129" lon="7.23321">
        <ele>259</ele>
        <time>2013-09-01T09:17:04Z</time>
      </trkpt>
      <trkpt lat="43.88121" lon="7.23315">
        <ele>272</ele>
        <time>2013-09-01T09:17:13Z</time>
      </trkpt>
      <trkpt lat="43.88111" lon="7.23317">
        <ele>281</ele>
        <time>2013-09-01T09:17:18Z</time>
      </trkpt>
      <trkpt lat="43.88108" lon="7.23305">
        <ele>268</ele>
        <time>2013-09-01T09:17:26Z</time>
      </trkpt>
      <trkpt lat="43.88103" lon="7.23293">
        <ele>263</ele>
        <time>2013-09-01T09:17:35Z</time>
      </trkpt>
      <trkpt lat="43.88095" lon="7.23286">
        <ele>263</ele>
        <time>2013-09-01T09:17:44Z</time>
      </trkpt>
      <trkpt lat="43.88087" lon="7.23279">
        <ele>263</ele>
        <time>2013-09-01T09:17:52Z</time>
      </trkpt>
      <trkpt lat="43.88076" lon="7.23272">
        <ele>248</ele>
        <time>2013-09-01T09:18:03Z</time>
      </trkpt>
      <trkpt lat="43.88066" lon="7.23268">
        <ele>248</ele>
        <time>2013-09-01T09:18:07Z</time>
      </trkpt>
      <trkpt lat="43.88057" lon="7.23274">
        <ele>248</ele>
        <time>2013-09-01T09:18:21Z</time>
      </trkpt>
      <trkpt lat="43.88048" lon="7.23272">
        <ele>242</ele>
        <time>2013-09-01T09:18:37Z</time>
      </trkpt>
      <trkpt lat="43.88039" lon="7.23278">
        <ele>242</ele>
        <time>2013-09-01T09:18:47Z</time>
      </trkpt>
      <trkpt lat="43.8803" lon="7.23274">
        <ele>237</ele>
        <time>2013-09-01T09:18:58Z</time>
      </trkpt>
      <trkpt lat="43.88023" lon="7.23267">
        <ele>237</ele>
        <time>2013-09-01T09:19:10Z</time>
      </trkpt>
      <trkpt lat="43.88014" lon="7.23263">
        <ele>237</ele>
        <time>2013-09-01T09:19:21Z</time>
      </trkpt>
      <trkpt lat="43.88005" lon="7.23261">
        <ele>237</ele>
        <time>2013-09-01T09:19:27Z</time>
      </trkpt>
      <trkpt lat="43.87997" lon="7.23254">
        <ele>237</ele>
        <time>2013-09-01T09:19:40Z</time>
      </trkpt>
      <trkpt lat="43.87987" lon="7.23253">
        <ele>237</ele>
        <time>2013-09-01T09:19:50Z</time>
      </trkpt>
      <trkpt lat="43.87979" lon="7.2326">
        <ele>231</ele>
        <time>2013-09-01T09:20:00Z</time>
      </trkpt>
      <trkpt lat="43.87973" lon="7.2327">
        <ele>231</ele>
        <time>2013-09-01T09:20:14Z</time>
      </trkpt>
      <trkpt lat="43.87971" lon="7.23256">
        <ele>220</ele>
        <time>2013-09-01T09:20:45Z</time>
      </trkpt>
      <trkpt lat="43.87962" lon="7.23252">
        <ele>220</ele>
        <time>2013-09-01T09:20:53Z</time>
      </trkpt>
      <trkpt lat="43.87961" lon="7.23239">
        <ele>220</ele>
        <time>2013-09-01T09:21:03Z</time>
      </trkpt>
      <trkpt lat="43.87962" lon="7.23226">
        <ele>220</ele>
        <time>2013-09-01T09:21:10Z</time>
      </trkpt>
      <trkpt lat="43.87962" lon="7.23213">
        <ele>214</ele>
        <time>2013-09-01T09:21:17Z</time>
      </trkpt>
      <trkpt lat="43.87958" lon="7.23201">
        <ele>223</ele>
        <time>2013-09-01T09:21:29Z</time>
      </trkpt>
      <trkpt lat="43.87949" lon="7.23191">
        <ele>214</ele>
        <time>2013-09-01T09:21:37Z</time>
      </trkpt>
      <trkpt lat="43.87952" lon="7.23179">
        <ele>214</ele>
        <time>2013-09-01T09:21:44Z</time>
      </trkpt>
      <trkpt lat="43.87952" lon="7.23165">
        <ele>208</ele>
        <time>2013-09-01T09:21:53Z</time>
      </trkpt>
      <trkpt lat="43.87951" lon="7.23152">
        <ele>208</ele>
        <time>2013-09-01T09:22:00Z</time>
      </trkpt>
      <trkpt lat="43.87956" lon="7.23141">
        <ele>208</ele>
        <time>2013-09-01T09:22:07Z</time>
      </trkpt>
      <trkpt lat="43.87953" lon="7.23129">
        <ele>208</ele>
        <time>2013-09-01T09:22:17Z</time>
      </trkpt>
      <trkpt lat="43.87947" lon="7.23139">
        <ele>208</ele>
        <time>2013-09-01T09:22:32Z</time>
      </trkpt>
      <trkpt lat="43.87945" lon="7.23151">
        <ele>202</ele>
        <time>2013-09-01T09:22:40Z</time>
      </trkpt>
      <trkpt lat="43.87948" lon="7.23163">
        <ele>202</ele>
        <time>2013-09-01T09:22:48Z</time>
      </trkpt>
      <trkpt lat="43.87946" lon="7.23174">
        <ele>202</ele>
        <time>2013-09-01T09:22:56Z</time>
      </trkpt>
      <trkpt lat="43.87947" lon="7.23187">
        <ele>202</ele>
        <time>2013-09-01T09:23:04Z</time>
      </trkpt>
      <trkpt lat="43.87947" lon="7.232">
        <ele>202</ele>
        <time>2013-09-01T09:23:11Z</time>
      </trkpt>
      <trkpt lat="43.87946" lon="7.23212">
        <ele>202</ele>
        <time>2013-09-01T09:23:39Z</time>
      </trkpt>
      <trkpt lat="43.87946" lon="7.23225">
        <ele>202</ele>
        <time>2013-09-01T09:23:45Z</time>
      </trkpt>
      <trkpt lat="43.87946" lon="7.23238">
        <ele>202</ele>
        <time>2013-09-01T09:23:53Z</time>
      </trkpt>
      <trkpt lat="43.8794" lon="7.23228">
        <ele>189</ele>
        <time>2013-09-01T09:24:32Z</time>
      </trkpt>
      <trkpt lat="43.87936" lon="7.23217">
        <ele>195</ele>
        <time>2013-09-01T09:24:41Z</time>
      </trkpt>
      <trkpt lat="43.87936" lon="7.23204">
        <ele>195</ele>
        <time>2013-09-01T09:24:49Z</time>
      </trkpt>
      <trkpt lat="43.87941" lon="7.23194">
        <ele>189</ele>
        <time>2013-09-01T09:24:54Z</time>
      </trkpt>
      <trkpt lat="43.87936" lon="7.23184">
        <ele>189</ele>
        <time>2013-09-01T09:25:00Z</time>
      </trkpt>
      <trkpt lat="43.87929" lon="7.23176">
        <ele>189</ele>
        <time>2013-09-01T09:25:07Z</time>
      </trkpt>
      <trkpt lat="43.87923" lon="7.23165">
        <ele>189</ele>
        <time>2013-09-01T09:25:14Z</time>
      </trkpt>
      <trkpt lat="43.87931" lon="7.23156">
        <ele>189</ele>
        <time>2013-09-01T09:25:19Z</time>
      </trkpt>
      <trkpt lat="43.87924" lon="7.23147">
        <ele>189</ele>
        <time>2013-09-01T09:25:26Z</time>
      </trkpt>
      <trkpt lat="43.87916" lon="7.23141">
        <ele>189</ele>
        <time>2013-09-01T09:25:35Z</time>
      </trkpt>
      <trkpt lat="43.87906" lon="7.23138">
        <ele>189</ele>
        <time>2013-09-01T09:25:43Z</time>
      </trkpt>
      <trkpt lat="43.87897" lon="7.23135">
        <ele>189</ele>
        <time>2013-09-01T09:25:50Z</time>
      </trkpt>
      <trkpt lat="43.87888" lon="7.23129">
        <ele>189</ele>
        <time>2013-09-01T09:25:55Z</time>
      </trkpt>
      <trkpt lat="43.87881" lon="7.23121">
        <ele>196</ele>
        <time>2013-09-01T09:26:04Z</time>
      </trkpt>
      <trkpt lat="43.87871" lon="7.23122">
        <ele>203</ele>
        <time>2013-09-01T09:26:19Z</time>
      </trkpt>
      <trkpt lat="43.87881" lon="7.23126">
        <ele>193</ele>
        <time>2013-09-01T09:26:32Z</time>
      </trkpt>
      <trkpt lat="43.87871" lon="7.23133">
        <ele>186</ele>
        <time>2013-09-01T09:26:44Z</time>
      </trkpt>
      <trkpt lat="43.87881" lon="7.23132">
        <ele>180</ele>
        <time>2013-09-01T09:26:55Z</time>
      </trkpt>
      <trkpt lat="43.8787" lon="7.23134">
        <ele>180</ele>
        <time>2013-09-01T09:27:04Z</time>
      </trkpt>
      <trkpt lat="43.87862" lon="7.23128">
        <ele>187</ele>
        <time>2013-09-01T09:27:09Z</time>
      </trkpt>
      <trkpt lat="43.87853" lon="7.23129">
        <ele>187</ele>
        <time>2013-09-01T09:27:16Z</time>
      </trkpt>
      <trkpt lat="43.87845" lon="7.23136">
        <ele>187</ele>
        <time>2013-09-01T09:27:24Z</time>
      </trkpt>
      <trkpt lat="43.87847" lon="7.23148">
        <ele>196</ele>
        <time>2013-09-01T09:27:50Z</time>
      </trkpt>
      <trkpt lat="43.87845" lon="7.23162">
        <ele>191</ele>
        <time>2013-09-01T09:28:04Z</time>
      </trkpt>
      <trkpt lat="43.8784" lon="7.23173">
        <ele>191</ele>
        <time>2013-09-01T09:28:27Z</time>
      </trkpt>
      <trkpt lat="43.87836" lon="7.23186">
        <ele>198</ele>
        <time>2013-09-01T09:28:50Z</time>
      </trkpt>
      <trkpt lat="43.87835" lon="7.23173">
        <ele>204</ele>
        <time>2013-09-01T09:29:44Z</time>
      </trkpt>
      <trkpt lat="43.87832" lon="7.23162">
        <ele>204</ele>
        <time>2013-09-01T09:30:06Z</time>
      </trkpt>
      <trkpt lat="43.8783" lon="7.23149">
        <ele>204</ele>
        <time>2013-09-01T09:30:26Z</time>
      </trkpt>
      <trkpt lat="43.87825" lon="7.23139">
        <ele>210</ele>
        <time>2013-09-01T09:30:43Z</time>
      </trkpt>
      <trkpt lat="43.87825" lon="7.23127">
        <ele>210</ele>
        <time>2013-09-01T09:31:04Z</time>
      </trkpt>
      <trkpt lat="43.87821" lon="7.23115">
        <ele>216</ele>
        <time>2013-09-01T09:31:21Z</time>
      </trkpt>
      <trkpt lat="43.87819" lon="7.23103">
        <ele>216</ele>
        <time>2013-09-01T09:31:41Z</time>
      </trkpt>
      <trkpt lat="43.87819" lon="7.23091">
        <ele>216</ele>
        <time>2013-09-01T09:31:57Z</time>
      </trkpt>
      <trkpt lat="43.87811" lon="7.23083">
        <ele>225</ele>
        <time>2013-09-01T09:32:24Z</time>
      </trkpt>
      <trkpt lat="43.87803" lon="7.23078">
        <ele>225</ele>
        <time>2013-09-01T09:32:43Z</time>
      </trkpt>
      <trkpt lat="43.87794" lon="7.23083">
        <ele>225</ele>
        <time>2013-09-01T09:33:10Z</time>
      </trkpt>
      <trkpt lat="43.87787" lon="7.23075">
        <ele>225</ele>
        <time>2013-09-01T09:33:35Z</time>
      </trkpt>
      <trkpt lat="43.8778" lon="7.23066">
        <ele>233</ele>
        <time>2013-09-01T09:33:52Z</time>
      </trkpt>
      <trkpt lat="43.87773" lon="7.23056">
        <ele>243</ele>
        <time>2013-09-01T09:34:12Z</time>
      </trkpt>
      <trkpt lat="43.87766" lon="7.23045">
        <ele>249</ele>
        <time>2013-09-01T09:34:28Z</time>
      </trkpt>
      <trkpt lat="43.87758" lon="7.23041">
        <ele>249</ele>
        <time>2013-09-01T09:34:47Z</time>
      </trkpt>
      <trkpt lat="43.87751" lon="7.23033">
        <ele>249</ele>
        <time>2013-09-01T09:35:02Z</time>
      </trkpt>
      <trkpt lat="43.87741" lon="7.23034">
        <ele>249</ele>
        <time>2013-09-01T09:35:29Z</time>
      </trkpt>
      <trkpt lat="43.87734" lon="7.23025">
        <ele>242</ele>
        <time>2013-09-01T09:35:48Z</time>
      </trkpt>
      <trkpt lat="43.87729" lon="7.23014">
        <ele>242</ele>
        <time>2013-09-01T09:35:57Z</time>
      </trkpt>
      <trkpt lat="43.87721" lon="7.23008">
        <ele>254</ele>
        <time>2013-09-01T09:36:10Z</time>
      </trkpt>
      <trkpt lat="43.87712" lon="7.23005">
        <ele>263</ele>
        <time>2013-09-01T09:36:35Z</time>
      </trkpt>
      <trkpt lat="43.87704" lon="7.23001">
        <ele>263</ele>
        <time>2013-09-01T09:36:48Z</time>
      </trkpt>
      <trkpt lat="43.87695" lon="7.22997">
        <ele>263</ele>
        <time>2013-09-01T09:37:06Z</time>
      </trkpt>
      <trkpt lat="43.87688" lon="7.22988">
        <ele>268</ele>
        <time>2013-09-01T09:37:24Z</time>
      </trkpt>
      <trkpt lat="43.87678" lon="7.2299">
        <ele>261</ele>
        <time>2013-09-01T09:37:48Z</time>
      </trkpt>
      <trkpt lat="43.8767" lon="7.22984">
        <ele>254</ele>
        <time>2013-09-01T09:38:01Z</time>
      </trkpt>
      <trkpt lat="43.8766" lon="7.2298">
        <ele>254</ele>
        <time>2013-09-01T09:38:17Z</time>
      </trkpt>
      <trkpt lat="43.87654" lon="7.22971">
        <ele>261</ele>
        <time>2013-09-01T09:38:43Z</time>
      </trkpt>
      <trkpt lat="43.87647" lon="7.22961">
        <ele>261</ele>
        <time>2013-09-01T09:38:57Z</time>
      </trkpt>
      <trkpt lat="43.87642" lon="7.22952">
        <ele>261</ele>
        <time>2013-09-01T09:39:08Z</time>
      </trkpt>
      <trkpt lat="43.87637" lon="7.22941">
        <ele>261</ele>
        <time>2013-09-01T09:39:19Z</time>
      </trkpt>
      <trkpt lat="43.87634" lon="7.22928">
        <ele>261</ele>
        <time>2013-09-01T09:39:32Z</time>
      </trkpt>
      <trkpt lat="43.87632" lon="7.22916">
        <ele>261</ele>
        <time>2013-09-01T09:39:45Z</time>
      </trkpt>
      <trkpt lat="43.87624" lon="7.22908">
        <ele>261</ele>
        <time>2013-09-01T09:39:55Z</time>
      </trkpt>
      <trkpt lat="43.87619" lon="7.22897">
        <ele>261</ele>
        <time>2013-09-01T09:40:06Z</time>
      </trkpt>
      <trkpt lat="43.87615" lon="7.22885">
        <ele>261</ele>
        <time>2013-09-01T09:40:25Z</time>
      </trkpt>
      <trkpt lat="43.8761" lon="7.22874">
        <ele>269</ele>
        <time>2013-09-01T09:40:37Z</time>
      </trkpt>
      <trkpt lat="43.87602" lon="7.22864">
        <ele>269</ele>
        <time>2013-09-01T09:40:46Z</time>
      </trkpt>
      <trkpt lat="43.87594" lon="7.2286">
        <ele>269</ele>
        <time>2013-09-01T09:40:54Z</time>
      </trkpt>
      <trkpt lat="43.87586" lon="7.22854">
        <ele>269</ele>
        <time>2013-09-01T09:41:04Z</time>
      </trkpt>
      <trkpt lat="43.87578" lon="7.22847">
        <ele>269</ele>
        <time>2013-09-01T09:41:14Z</time>
      </trkpt>
      <trkpt lat="43.87571" lon="7.22839">
        <ele>280</ele>
        <time>2013-09-01T09:41:23Z</time>
      </trkpt>
      <trkpt lat="43.87565" lon="7.22829">
        <ele>293</ele>
        <time>2013-09-01T09:41:31Z</time>
      </trkpt>
      <trkpt lat="43.87558" lon="7.2282">
        <ele>308</ele>
        <time>2013-09-01T09:41:39Z</time>
      </trkpt>
      <trkpt lat="43.87568" lon="7.22822">
        <ele>316</ele>
        <time>2013-09-01T09:41:57Z</time>
      </trkpt>
      <trkpt lat="43.87559" lon="7.22825">
        <ele>291</ele>
        <time>2013-09-01T09:42:11Z</time>
      </trkpt>
      <trkpt lat="43.8755" lon="7.22829">
        <ele>278</ele>
        <time>2013-09-01T09:42:16Z</time>
      </trkpt>
      <trkpt lat="43.87541" lon="7.2283">
        <ele>266</ele>
        <time>2013-09-01T09:42:25Z</time>
      </trkpt>
      <trkpt lat="43.8755" lon="7.22832">
        <ele>253</ele>
        <time>2013-09-01T09:43:29Z</time>
      </trkpt>
      <trkpt lat="43.87543" lon="7.22839">
        <ele>279</ele>
        <time>2013-09-01T09:43:42Z</time>
      </trkpt>
      <trkpt lat="43.87542" lon="7.22827">
        <ele>284</ele>
        <time>2013-09-01T09:43:55Z</time>
      </trkpt>
      <trkpt lat="43.87547" lon="7.22816">
        <ele>293</ele>
        <time>2013-09-01T09:44:07Z</time>
      </trkpt>
      <trkpt lat="43.87543" lon="7.22829">
        <ele>277</ele>
        <time>2013-09-01T09:44:38Z</time>
      </trkpt>
      <trkpt lat="43.87553" lon="7.22823">
        <ele>271</ele>
        <time>2013-09-01T09:44:52Z</time>
      </trkpt>
      <trkpt lat="43.87561" lon="7.22816">
        <ele>271</ele>
        <time>2013-09-01T09:45:08Z</time>
      </trkpt>
      <trkpt lat="43.87569" lon="7.22809">
        <ele>280</ele>
        <time>2013-09-01T09:45:22Z</time>
      </trkpt>
      <trkpt lat="43.87573" lon="7.22798">
        <ele>286</ele>
        <time>2013-09-01T09:45:41Z</time>
      </trkpt>
      <trkpt lat="43.87582" lon="7.22792">
        <ele>292</ele>
        <time>2013-09-01T09:45:52Z</time>
      </trkpt>
      <trkpt lat="43.87573" lon="7.22787">
        <ele>286</ele>
        <time>2013-09-01T09:45:59Z</time>
      </trkpt>
      <trkpt lat="43.87569" lon="7.22775">
        <ele>275</ele>
        <time>2013-09-01T09:46:11Z</time>
      </trkpt>
      <trkpt lat="43.87564" lon="7.22764">
        <ele>275</ele>
        <time>2013-09-01T09:46:27Z</time>
      </trkpt>
      <trkpt lat="43.87563" lon="7.22751">
        <ele>282</ele>
        <time>2013-09-01T09:46:49Z</time>
      </trkpt>
      <trkpt lat="43.87567" lon="7.2274">
        <ele>282</ele>
        <time>2013-09-01T09:47:04Z</time>
      </trkpt>
      <trkpt lat="43.8756" lon="7.2273">
        <ele>282</ele>
        <time>2013-09-01T09:47:21Z</time>
      </trkpt>
      <trkpt lat="43.87554" lon="7.2272">
        <ele>288</ele>
        <time>2013-09-01T09:47:41Z</time>
      </trkpt>
      <trkpt lat="43.87548" lon="7.2271">
        <ele>288</ele>
        <time>2013-09-01T09:48:01Z</time>
      </trkpt>
      <trkpt lat="43.87539" lon="7.22715">
        <ele>288</ele>
        <time>2013-09-01T09:48:43Z</time>
      </trkpt>
      <trkpt lat="43.87541" lon="7.22729">
        <ele>295</ele>
        <time>2013-09-01T09:49:04Z</time>
      </trkpt>
      <trkpt lat="43.87538" lon="7.22741">
        <ele>295</ele>
        <time>2013-09-01T09:49:23Z</time>
      </trkpt>
      <trkpt lat="43.87535" lon="7.22752">
        <ele>300</ele>
        <time>2013-09-01T09:49:41Z</time>
      </trkpt>
      <trkpt lat="43.87535" lon="7.22765">
        <ele>300</ele>
        <time>2013-09-01T09:50:05Z</time>
      </trkpt>
      <trkpt lat="43.87534" lon="7.22752">
        <ele>300</ele>
        <time>2013-09-01T09:50:24Z</time>
      </trkpt>
      <trkpt lat="43.87531" lon="7.22741">
        <ele>300</ele>
        <time>2013-09-01T09:50:43Z</time>
      </trkpt>
      <trkpt lat="43.87527" lon="7.22729">
        <ele>300</ele>
        <time>2013-09-01T09:51:00Z</time>
      </trkpt>
      <trkpt lat="43.87522" lon="7.22718">
        <ele>307</ele>
        <time>2013-09-01T09:51:12Z</time>
      </trkpt>
      <trkpt lat="43.87518" lon="7.2273">
        <ele>307</ele>
        <time>2013-09-01T09:51:25Z</time>
      </trkpt>
      <trkpt lat="43.87514" lon="7.22741">
        <ele>307</ele>
        <time>2013-09-01T09:51:41Z</time>
      </trkpt>
      <trkpt lat="43.87523" lon="7.22744">
        <ele>323</ele>
        <time>2013-09-01T09:52:17Z</time>
      </trkpt>
      <trkpt lat="43.87516" lon="7.22734">
        <ele>323</ele>
        <time>2013-09-01T09:52:31Z</time>
      </trkpt>
      <trkpt lat="43.87514" lon="7.22722">
        <ele>323</ele>
        <time>2013-09-01T09:52:51Z</time>
      </trkpt>
      <trkpt lat="43.87509" lon="7.22712">
        <ele>330</ele>
        <time>2013-09-01T09:53:07Z</time>
      </trkpt>
      <trkpt lat="43.875" lon="7.22717">
        <ele>324</ele>
        <time>2013-09-01T09:53:18Z</time>
      </trkpt>
      <trkpt lat="43.87506" lon="7.22728">
        <ele>336</ele>
        <time>2013-09-01T09:53:39Z</time>
      </trkpt>
      <trkpt lat="43.87497" lon="7.22732">
        <ele>330</ele>
        <time>2013-09-01T09:53:51Z</time>
      </trkpt>
      <trkpt lat="43.87495" lon="7.22745">
        <ele>330</ele>
        <time>2013-09-01T09:54:18Z</time>
      </trkpt>
      <trkpt lat="43.87503" lon="7.22738">
        <ele>338</ele>
        <time>2013-09-01T09:55:00Z</time>
      </trkpt>
      <trkpt lat="43.87504" lon="7.22725">
        <ele>338</ele>
        <time>2013-09-01T09:55:16Z</time>
      </trkpt>
      <trkpt lat="43.87497" lon="7.22714">
        <ele>348</ele>
        <time>2013-09-01T09:55:26Z</time>
      </trkpt>
      <trkpt lat="43.87496" lon="7.22702">
        <ele>348</ele>
        <time>2013-09-01T09:55:44Z</time>
      </trkpt>
      <trkpt lat="43.87491" lon="7.22692">
        <ele>342</ele>
        <time>2013-09-01T09:55:56Z</time>
      </trkpt>
      <trkpt lat="43.87482" lon="7.22689">
        <ele>342</ele>
        <time>2013-09-01T09:56:08Z</time>
      </trkpt>
      <trkpt lat="43.87475" lon="7.22698">
        <ele>342</ele>
        <time>2013-09-01T09:56:25Z</time>
      </trkpt>
      <trkpt lat="43.87471" lon="7.2271">
        <ele>336</ele>
        <time>2013-09-01T09:56:38Z</time>
      </trkpt>
      <trkpt lat="43.87465" lon="7.2272">
        <ele>336</ele>
        <time>2013-09-01T09:56:59Z</time>
      </trkpt>
      <trkpt lat="43.87476" lon="7.22716">
        <ele>341</ele>
        <time>2013-09-01T09:57:08Z</time>
      </trkpt>
      <trkpt lat="43.8747" lon="7.22706">
        <ele>358</ele>
        <time>2013-09-01T09:57:52Z</time>
      </trkpt>
      <trkpt lat="43.87463" lon="7.22715">
        <ele>346</ele>
        <time>2013-09-01T09:58:04Z</time>
      </trkpt>
      <trkpt lat="43.87459" lon="7.22704">
        <ele>362</ele>
        <time>2013-09-01T09:59:02Z</time>
      </trkpt>
      <trkpt lat="43.87462" lon="7.22692">
        <ele>368</ele>
        <time>2013-09-01T09:59:23Z</time>
      </trkpt>
      <trkpt lat="43.87464" lon="7.22679">
        <ele>361</ele>
        <time>2013-09-01T09:59:32Z</time>
      </trkpt>
      <trkpt lat="43.87459" lon="7.22669">
        <ele>361</ele>
        <time>2013-09-01T09:59:50Z</time>
      </trkpt>
      <trkpt lat="43.87456" lon="7.22656">
        <ele>361</ele>
        <time>2013-09-01T10:00:26Z</time>
      </trkpt>
      <trkpt lat="43.87458" lon="7.22643">
        <ele>352</ele>
        <time>2013-09-01T10:00:40Z</time>
      </trkpt>
      <trkpt lat="43.87449" lon="7.22634">
        <ele>362</ele>
        <time>2013-09-01T10:00:58Z</time>
      </trkpt>
      <trkpt lat="43.87446" lon="7.22646">
        <ele>362</ele>
        <time>2013-09-01T10:01:32Z</time>
      </trkpt>
      <trkpt lat="43.87441" lon="7.22635">
        <ele>362</ele>
        <time>2013-09-01T10:02:00Z</time>
      </trkpt>
      <trkpt lat="43.87433" lon="7.22628">
        <ele>367</ele>
        <time>2013-09-01T10:02:14Z</time>
      </trkpt>
      <trkpt lat="43.87424" lon="7.22626">
        <ele>367</ele>
        <time>2013-09-01T10:02:31Z</time>
      </trkpt>
      <trkpt lat="43.87416" lon="7.22622">
        <ele>373</ele>
        <time>2013-09-01T10:02:43Z</time>
      </trkpt>
      <trkpt lat="43.87408" lon="7.22628">
        <ele>373</ele>
        <time>2013-09-01T10:02:57Z</time>
      </trkpt>
      <trkpt lat="43.87398" lon="7.2263">
        <ele>383</ele>
        <time>2013-09-01T10:03:09Z</time>
      </trkpt>
      <trkpt lat="43.87392" lon="7.22639">
        <ele>383</ele>
        <time>2013-09-01T10:03:19Z</time>
      </trkpt>
      <trkpt lat="43.87383" lon="7.22644">
        <ele>393</ele>
        <time>2013-09-01T10:03:38Z</time>
      </trkpt>
      <trkpt lat="43.87376" lon="7.22652">
        <ele>393</ele>
        <time>2013-09-01T10:03:53Z</time>
      </trkpt>
      <trkpt lat="43.87367" lon="7.22651">
        <ele>404</ele>
        <time>2013-09-01T10:04:08Z</time>
      </trkpt>
      <trkpt lat="43.8736" lon="7.22658">
        <ele>404</ele>
        <time>2013-09-01T10:04:23Z</time>
      </trkpt>
      <trkpt lat="43.87352" lon="7.22664">
        <ele>404</ele>
        <time>2013-09-01T10:04:38Z</time>
      </trkpt>
      <trkpt lat="43.87344" lon="7.2267">
        <ele>411</ele>
        <time>2013-09-01T10:04:54Z</time>
      </trkpt>
      <trkpt lat="43.87335" lon="7.22669">
        <ele>411</ele>
        <time>2013-09-01T10:05:09Z</time>
      </trkpt>
      <trkpt lat="43.87326" lon="7.22669">
        <ele>411</ele>
        <time>2013-09-01T10:05:43Z</time>
      </trkpt>
      <trkpt lat="43.87316" lon="7.22671">
        <ele>395</ele>
        <time>2013-09-01T10:05:55Z</time>
      </trkpt>
      <trkpt lat="43.87308" lon="7.22666">
        <ele>395</ele>
        <time>2013-09-01T10:06:21Z</time>
      </trkpt>
      <trkpt lat="43.87302" lon="7.22656">
        <ele>395</ele>
        <time>2013-09-01T10:06:32Z</time>
      </trkpt>
      <trkpt lat="43.87296" lon="7.22644">
        <ele>395</ele>
        <time>2013-09-01T10:06:46Z</time>
      </trkpt>
      <trkpt lat="43.8729" lon="7.22635">
        <ele>395</ele>
        <time>2013-09-01T10:07:02Z</time>
      </trkpt>
      <trkpt lat="43.87286" lon="7.22624">
        <ele>395</ele>
        <time>2013-09-01T10:07:17Z</time>
      </trkpt>
      <trkpt lat="43.87279" lon="7.22615">
        <ele>395</ele>
        <time>2013-09-01T10:07:31Z</time>
      </trkpt>
      <trkpt lat="43.87272" lon="7.22608">
        <ele>395</ele>
        <time>2013-09-01T10:07:48Z</time>
      </trkpt>
      <trkpt lat="43.87268" lon="7.22597">
        <ele>395</ele>
        <time>2013-09-01T10:08:02Z</time>
      </trkpt>
      <trkpt lat="43.87261" lon="7.22588">
        <ele>395</ele>
        <time>2013-09-01T10:08:15Z</time>
      </trkpt>
      <trkpt lat="43.87261" lon="7.22574">
        <ele>395</ele>
        <time>2013-09-01T10:08:31Z</time>
      </trkpt>
      <trkpt lat="43.87254" lon="7.22565">
        <ele>403</ele>
        <time>2013-09-01T10:08:51Z</time>
      </trkpt>
      <trkpt lat="43.87244" lon="7.22564">
        <ele>403</ele>
        <time>2013-09-01T10:08:59Z</time>
      </trkpt>
      <trkpt lat="43.87239" lon="7.22555">
        <ele>403</ele>
        <time>2013-09-01T10:09:14Z</time>
      </trkpt>
      <trkpt lat="43.87233" lon="7.22546">
        <ele>403</ele>
        <time>2013-09-01T10:09:27Z</time>
      </trkpt>
      <trkpt lat="43.87226" lon="7.22538">
        <ele>415</ele>
        <time>2013-09-01T10:09:42Z</time>
      </trkpt>
      <trkpt lat="43.87218" lon="7.22532">
        <ele>415</ele>
        <time>2013-09-01T10:09:54Z</time>
      </trkpt>
      <trkpt lat="43.87213" lon="7.22522">
        <ele>415</ele>
        <time>2013-09-01T10:10:12Z</time>
      </trkpt>
      <trkpt lat="43.87208" lon="7.22511">
        <ele>415</ele>
        <time>2013-09-01T10:10:36Z</time>
      </trkpt>
      <trkpt lat="43.872" lon="7.22503">
        <ele>424</ele>
        <time>2013-09-01T10:10:45Z</time>
      </trkpt>
      <trkpt lat="43.87191" lon="7.22507">
        <ele>417</ele>
        <time>2013-09-01T10:11:07Z</time>
      </trkpt>
      <trkpt lat="43.87187" lon="7.22519">
        <ele>417</ele>
        <time>2013-09-01T10:11:19Z</time>
      </trkpt>
      <trkpt lat="43.8718" lon="7.22526">
        <ele>424</ele>
        <time>2013-09-01T10:11:38Z</time>
      </trkpt>
      <trkpt lat="43.87172" lon="7.2253">
        <ele>424</ele>
        <time>2013-09-01T10:11:51Z</time>
      </trkpt>
      <trkpt lat="43.87162" lon="7.22533">
        <ele>432</ele>
        <time>2013-09-01T10:12:04Z</time>
      </trkpt>
      <trkpt lat="43.87155" lon="7.2254">
        <ele>432</ele>
        <time>2013-09-01T10:12:11Z</time>
      </trkpt>
      <trkpt lat="43.87146" lon="7.22546">
        <ele>432</ele>
        <time>2013-09-01T10:12:32Z</time>
      </trkpt>
      <trkpt lat="43.8714" lon="7.22555">
        <ele>432</ele>
        <time>2013-09-01T10:12:43Z</time>
      </trkpt>
      <trkpt lat="43.87133" lon="7.22564">
        <ele>427</ele>
        <time>2013-09-01T10:12:51Z</time>
      </trkpt>
      <trkpt lat="43.87127" lon="7.22573">
        <ele>427</ele>
        <time>2013-09-01T10:13:03Z</time>
      </trkpt>
      <trkpt lat="43.87118" lon="7.22577">
        <ele>437</ele>
        <time>2013-09-01T10:13:10Z</time>
      </trkpt>
      <trkpt lat="43.87111" lon="7.22586">
        <ele>437</ele>
        <time>2013-09-01T10:13:20Z</time>
      </trkpt>
      <trkpt lat="43.87103" lon="7.22591">
        <ele>446</ele>
        <time>2013-09-01T10:13:32Z</time>
      </trkpt>
      <trkpt lat="43.87094" lon="7.22597">
        <ele>452</ele>
        <time>2013-09-01T10:13:40Z</time>
      </trkpt>
      <trkpt lat="43.87089" lon="7.22607">
        <ele>452</ele>
        <time>2013-09-01T10:13:48Z</time>
      </trkpt>
      <trkpt lat="43.87084" lon="7.22617">
        <ele>452</ele>
        <time>2013-09-01T10:13:56Z</time>
      </trkpt>
      <trkpt lat="43.8708" lon="7.22628">
        <ele>452</ele>
        <time>2013-09-01T10:14:05Z</time>
      </trkpt>
      <trkpt lat="43.87082" lon="7.22641">
        <ele>447</ele>
        <time>2013-09-01T10:14:21Z</time>
      </trkpt>
      <trkpt lat="43.87077" lon="7.2263">
        <ele>447</ele>
        <time>2013-09-01T10:14:39Z</time>
      </trkpt>
      <trkpt lat="43.87071" lon="7.22619">
        <ele>447</ele>
        <time>2013-09-01T10:14:47Z</time>
      </trkpt>
      <trkpt lat="43.87063" lon="7.22616">
        <ele>430</ele>
        <time>2013-09-01T10:15:07Z</time>
      </trkpt>
      <trkpt lat="43.87061" lon="7.22603">
        <ele>430</ele>
        <time>2013-09-01T10:15:23Z</time>
      </trkpt>
      <trkpt lat="43.87055" lon="7.22593">
        <ele>430</ele>
        <time>2013-09-01T10:15:46Z</time>
      </trkpt>
      <trkpt lat="43.87047" lon="7.22587">
        <ele>430</ele>
        <time>2013-09-01T10:15:56Z</time>
      </trkpt>
      <trkpt lat="43.87041" lon="7.22577">
        <ele>430</ele>
        <time>2013-09-01T10:16:15Z</time>
      </trkpt>
      <trkpt lat="43.87032" lon="7.22573">
        <ele>436</ele>
        <time>2013-09-01T10:16:32Z</time>
      </trkpt>
      <trkpt lat="43.87021" lon="7.22569">
        <ele>443</ele>
        <time>2013-09-01T10:16:50Z</time>
      </trkpt>
      <trkpt lat="43.87012" lon="7.22573">
        <ele>448</ele>
        <time>2013-09-01T10:17:01Z</time>
      </trkpt>
      <trkpt lat="43.87004" lon="7.22576">
        <ele>448</ele>
        <time>2013-09-01T10:17:08Z</time>
      </trkpt>
      <trkpt lat="43.86995" lon="7.22582">
        <ele>448</ele>
        <time>2013-09-01T10:17:22Z</time>
      </trkpt>
      <trkpt lat="43.86999" lon="7.22593">
        <ele>448</ele>
        <time>2013-09-01T10:17:41Z</time>
      </trkpt>
      <trkpt lat="43.87001" lon="7.22605">
        <ele>448</ele>
        <time>2013-09-01T10:17:52Z</time>
      </trkpt>
      <trkpt lat="43.87012" lon="7.22605">
        <ele>448</ele>
        <time>2013-09-01T10:18:06Z</time>
      </trkpt>
      <trkpt lat="43.87007" lon="7.22617">
        <ele>448</ele>
        <time>2013-09-01T10:18:14Z</time>
      </trkpt>
      <trkpt lat="43.87014" lon="7.22626">
        <ele>448</ele>
        <time>2013-09-01T10:18:26Z</time>
      </trkpt>
      <trkpt lat="43.87019" lon="7.22616">
        <ele>443</ele>
        <time>2013-09-01T10:18:41Z</time>
      </trkpt>
      <trkpt lat="43.87011" lon="7.22609">
        <ele>457</ele>
        <time>2013-09-01T10:18:54Z</time>
      </trkpt>
      <trkpt lat="43.87002" lon="7.22608">
        <ele>457</ele>
        <time>2013-09-01T10:19:17Z</time>
      </trkpt>
      <trkpt lat="43.86992" lon="7.22608">
        <ele>457</ele>
        <time>2013-09-01T10:19:32Z</time>
      </trkpt>
      <trkpt lat="43.86983" lon="7.22609">
        <ele>457</ele>
        <time>2013-09-01T10:19:51Z</time>
      </trkpt>
      <trkpt lat="43.86974" lon="7.22611">
        <ele>462</ele>
        <time>2013-09-01T10:20:08Z</time>
      </trkpt>
      <trkpt lat="43.86967" lon="7.2262">
        <ele>462</ele>
        <time>2013-09-01T10:20:20Z</time>
      </trkpt>
      <trkpt lat="43.86957" lon="7.22617">
        <ele>462</ele>
        <time>2013-09-01T10:20:38Z</time>
      </trkpt>
      <trkpt lat="43.86948" lon="7.22617">
        <ele>476</ele>
        <time>2013-09-01T10:20:49Z</time>
      </trkpt>
      <trkpt lat="43.86939" lon="7.22616">
        <ele>487</ele>
        <time>2013-09-01T10:21:00Z</time>
      </trkpt>
      <trkpt lat="43.8693" lon="7.2262">
        <ele>487</ele>
        <time>2013-09-01T10:21:16Z</time>
      </trkpt>
      <trkpt lat="43.86929" lon="7.22633">
        <ele>467</ele>
        <time>2013-09-01T10:21:32Z</time>
      </trkpt>
      <trkpt lat="43.86919" lon="7.22636">
        <ele>467</ele>
        <time>2013-09-01T10:21:49Z</time>
      </trkpt>
      <trkpt lat="43.86913" lon="7.22645">
        <ele>467</ele>
        <time>2013-09-01T10:21:55Z</time>
      </trkpt>
      <trkpt lat="43.86904" lon="7.2265">
        <ele>478</ele>
        <time>2013-09-01T10:22:02Z</time>
      </trkpt>
      <trkpt lat="43.86894" lon="7.22655">
        <ele>485</ele>
        <time>2013-09-01T10:22:25Z</time>
      </trkpt>
      <trkpt lat="43.86886" lon="7.22661">
        <ele>495</ele>
        <time>2013-09-01T10:22:54Z</time>
      </trkpt>
      <trkpt lat="43.86883" lon="7.22672">
        <ele>495</ele>
        <time>2013-09-01T10:23:07Z</time>
      </trkpt>
      <trkpt lat="43.86875" lon="7.22676">
        <ele>495</ele>
        <time>2013-09-01T10:23:20Z</time>
      </trkpt>
      <trkpt lat="43.86867" lon="7.22682">
        <ele>495</ele>
        <time>2013-09-01T10:23:32Z</time>
      </trkpt>
      <trkpt lat="43.86856" lon="7.22683">
        <ele>502</ele>
        <time>2013-09-01T10:23:41Z</time>
      </trkpt>
      <trkpt lat="43.86845" lon="7.22685">
        <ele>512</ele>
        <time>2013-09-01T10:23:50Z</time>
      </trkpt>
      <trkpt lat="43.86842" lon="7.22696">
        <ele>512</ele>
        <time>2013-09-01T10:24:01Z</time>
      </trkpt>
      <trkpt lat="43.86834" lon="7.22706">
        <ele>512</ele>
        <time>2013-09-01T10:24:05Z</time>
      </trkpt>
      <trkpt lat="43.86832" lon="7.2272">
        <ele>518</ele>
        <time>2013-09-01T10:24:19Z</time>
      </trkpt>
      <trkpt lat="43.86842" lon="7.22725">
        <ele>512</ele>
        <time>2013-09-01T10:24:30Z</time>
      </trkpt>
      <trkpt lat="43.86845" lon="7.22737">
        <ele>501</ele>
        <time>2013-09-01T10:24:45Z</time>
      </trkpt>
      <trkpt lat="43.86844" lon="7.22749">
        <ele>486</ele>
        <time>2013-09-01T10:25:04Z</time>
      </trkpt>
      <trkpt lat="43.86835" lon="7.22753">
        <ele>486</ele>
        <time>2013-09-01T10:25:17Z</time>
      </trkpt>
      <trkpt lat="43.86827" lon="7.2276">
        <ele>491</ele>
        <time>2013-09-01T10:25:28Z</time>
      </trkpt>
      <trkpt lat="43.86834" lon="7.22767">
        <ele>491</ele>
        <time>2013-09-01T10:26:11Z</time>
      </trkpt>
      <trkpt lat="43.86836" lon="7.2278">
        <ele>485</ele>
        <time>2013-09-01T10:26:18Z</time>
      </trkpt>
      <trkpt lat="43.86828" lon="7.22776">
        <ele>503</ele>
        <time>2013-09-01T10:26:44Z</time>
      </trkpt>
      <trkpt lat="43.86819" lon="7.22778">
        <ele>503</ele>
        <time>2013-09-01T10:26:55Z</time>
      </trkpt>
      <trkpt lat="43.86808" lon="7.22785">
        <ele>503</ele>
        <time>2013-09-01T10:26:59Z</time>
      </trkpt>
      <trkpt lat="43.86802" lon="7.22794">
        <ele>509</ele>
        <time>2013-09-01T10:27:32Z</time>
      </trkpt>
      <trkpt lat="43.86793" lon="7.22795">
        <ele>519</ele>
        <time>2013-09-01T10:27:40Z</time>
      </trkpt>
      <trkpt lat="43.86793" lon="7.22808">
        <ele>504</ele>
        <time>2013-09-01T10:28:05Z</time>
      </trkpt>
      <trkpt lat="43.86796" lon="7.2282">
        <ele>488</ele>
        <time>2013-09-01T10:28:15Z</time>
      </trkpt>
      <trkpt lat="43.86787" lon="7.22824">
        <ele>488</ele>
        <time>2013-09-01T10:28:30Z</time>
      </trkpt>
      <trkpt lat="43.86777" lon="7.22818">
        <ele>498</ele>
        <time>2013-09-01T10:28:38Z</time>
      </trkpt>
      <trkpt lat="43.86769" lon="7.22811">
        <ele>504</ele>
        <time>2013-09-01T10:28:46Z</time>
      </trkpt>
      <trkpt lat="43.86757" lon="7.2282">
        <ele>504</ele>
        <time>2013-09-01T10:28:54Z</time>
      </trkpt>
      <trkpt lat="43.86749" lon="7.22829">
        <ele>504</ele>
        <time>2013-09-01T10:29:11Z</time>
      </trkpt>
      <trkpt lat="43.86739" lon="7.22834">
        <ele>504</ele>
        <time>2013-09-01T10:29:14Z</time>
      </trkpt>
      <trkpt lat="43.86738" lon="7.22821">
        <ele>518</ele>
        <time>2013-09-01T10:29:30Z</time>
      </trkpt>
      <trkpt lat="43.86728" lon="7.22822">
        <ele>525</ele>
        <time>2013-09-01T10:29:38Z</time>
      </trkpt>
      <trkpt lat="43.86724" lon="7.22835">
        <ele>525</ele>
        <time>2013-09-01T10:29:47Z</time>
      </trkpt>
      <trkpt lat="43.86715" lon="7.22836">
        <ele>525</ele>
        <time>2013-09-01T10:30:17Z</time>
      </trkpt>
      <trkpt lat="43.86708" lon="7.22828">
        <ele>532</ele>
        <time>2013-09-01T10:30:23Z</time>
      </trkpt>
      <trkpt lat="43.86717" lon="7.22828">
        <ele>538</ele>
        <time>2013-09-01T10:30:34Z</time>
      </trkpt>
      <trkpt lat="43.86726" lon="7.22826">
        <ele>538</ele>
        <time>2013-09-01T10:30:47Z</time>
      </trkpt>
      <trkpt lat="43.86717" lon="7.22816">
        <ele>538</ele>
        <time>2013-09-01T10:30:55Z</time>
      </trkpt>
      <trkpt lat="43.86708" lon="7.22811">
        <ele>572</ele>
        <time>2013-09-01T10:31:32Z</time>
      </trkpt>
      <trkpt lat="43.86699" lon="7.22811">
        <ele>578</ele>
        <time>2013-09-01T10:31:44Z</time>
      </trkpt>
      <trkpt lat="43.86691" lon="7.22822">
        <ele>587</ele>
        <time>2013-09-01T10:31:52Z</time>
      </trkpt>
      <trkpt lat="43.86685" lon="7.22885">
        <ele>599</ele>
        <time>2013-09-01T10:33:02Z</time>
      </trkpt>
      <trkpt lat="43.8667" lon="7.22907">
        <ele>582</ele>
        <time>2013-09-01T10:33:28Z</time>
      </trkpt>
      <trkpt lat="43.86646" lon="7.22918">
        <ele>571</ele>
        <time>2013-09-01T10:33:39Z</time>
      </trkpt>
      <trkpt lat="43.86617" lon="7.2292">
        <ele>553</ele>
        <time>2013-09-01T10:33:47Z</time>
      </trkpt>
      <trkpt lat="43.86628" lon="7.22926">
        <ele>548</ele>
        <time>2013-09-01T10:33:53Z</time>
      </trkpt>
      <trkpt lat="43.86637" lon="7.22926">
        <ele>548</ele>
        <time>2013-09-01T10:33:55Z</time>
      </trkpt>
      <trkpt lat="43.86652" lon="7.22932">
        <ele>548</ele>
        <time>2013-09-01T10:33:59Z</time>
      </trkpt>
      <trkpt lat="43.86662" lon="7.22927">
        <ele>548</ele>
        <time>2013-09-01T10:34:02Z</time>
      </trkpt>
      <trkpt lat="43.86654" lon="7.22922">
        <ele>554</ele>
        <time>2013-09-01T10:34:10Z</time>
      </trkpt>
      <trkpt lat="43.86645" lon="7.22901">
        <ele>554</ele>
        <time>2013-09-01T10:34:58Z</time>
      </trkpt>
      <trkpt lat="43.86654" lon="7.22905">
        <ele>554</ele>
        <time>2013-09-01T10:35:02Z</time>
      </trkpt>
      <trkpt lat="43.86663" lon="7.22904">
        <ele>554</ele>
        <time>2013-09-01T10:35:07Z</time>
      </trkpt>
      <trkpt lat="43.86648" lon="7.2289">
        <ele>535</ele>
        <time>2013-09-01T10:35:26Z</time>
      </trkpt>
      <trkpt lat="43.86643" lon="7.22879">
        <ele>529</ele>
        <time>2013-09-01T10:35:33Z</time>
      </trkpt>
      <trkpt lat="43.86632" lon="7.2287">
        <ele>529</ele>
        <time>2013-09-01T10:35:38Z</time>
      </trkpt>
      <trkpt lat="43.86624" lon="7.22861">
        <ele>521</ele>
        <time>2013-09-01T10:35:45Z</time>
      </trkpt>
      <trkpt lat="43.86615" lon="7.22855">
        <ele>521</ele>
        <time>2013-09-01T10:35:46Z</time>
      </trkpt>
      <trkpt lat="43.866" lon="7.22852">
        <ele>521</ele>
        <time>2013-09-01T10:35:48Z</time>
      </trkpt>
      <trkpt lat="43.86589" lon="7.22847">
        <ele>521</ele>
        <time>2013-09-01T10:35:50Z</time>
      </trkpt>
      <trkpt lat="43.8658" lon="7.22843">
        <ele>535</ele>
        <time>2013-09-01T10:36:07Z</time>
      </trkpt>
      <trkpt lat="43.86579" lon="7.2283">
        <ele>535</ele>
        <time>2013-09-01T10:36:14Z</time>
      </trkpt>
      <trkpt lat="43.86582" lon="7.22818">
        <ele>535</ele>
        <time>2013-09-01T10:36:26Z</time>
      </trkpt>
      <trkpt lat="43.86583" lon="7.22805">
        <ele>535</ele>
        <time>2013-09-01T10:36:48Z</time>
      </trkpt>
      <trkpt lat="43.86581" lon="7.22793">
        <ele>535</ele>
        <time>2013-09-01T10:36:55Z</time>
      </trkpt>
      <trkpt lat="43.86578" lon="7.2278">
        <ele>535</ele>
        <time>2013-09-01T10:37:03Z</time>
      </trkpt>
      <trkpt lat="43.86574" lon="7.22768">
        <ele>535</ele>
        <time>2013-09-01T10:37:16Z</time>
      </trkpt>
      <trkpt lat="43.86568" lon="7.22758">
        <ele>542</ele>
        <time>2013-09-01T10:37:42Z</time>
      </trkpt>
      <trkpt lat="43.86559" lon="7.22758">
        <ele>550</ele>
        <time>2013-09-01T10:38:04Z</time>
      </trkpt>
      <trkpt lat="43.8655" lon="7.22762">
        <ele>550</ele>
        <time>2013-09-01T10:38:08Z</time>
      </trkpt>
      <trkpt lat="43.86539" lon="7.22766">
        <ele>550</ele>
        <time>2013-09-01T10:38:12Z</time>
      </trkpt>
      <trkpt lat="43.86528" lon="7.22763">
        <ele>537</ele>
        <time>2013-09-01T10:38:31Z</time>
      </trkpt>
      <trkpt lat="43.86518" lon="7.2276">
        <ele>537</ele>
        <time>2013-09-01T10:38:38Z</time>
      </trkpt>
      <trkpt lat="43.86511" lon="7.22767">
        <ele>537</ele>
        <time>2013-09-01T10:38:41Z</time>
      </trkpt>
      <trkpt lat="43.86502" lon="7.22766">
        <ele>537</ele>
        <time>2013-09-01T10:38:51Z</time>
      </trkpt>
      <trkpt lat="43.86492" lon="7.22771">
        <ele>537</ele>
        <time>2013-09-01T10:38:57Z</time>
      </trkpt>
      <trkpt lat="43.86485" lon="7.22762">
        <ele>544</ele>
        <time>2013-09-01T10:39:08Z</time>
      </trkpt>
      <trkpt lat="43.86476" lon="7.22761">
        <ele>544</ele>
        <time>2013-09-01T10:39:15Z</time>
      </trkpt>
      <trkpt lat="43.86466" lon="7.22764">
        <ele>552</ele>
        <time>2013-09-01T10:39:26Z</time>
      </trkpt>
      <trkpt lat="43.86458" lon="7.22768">
        <ele>552</ele>
        <time>2013-09-01T10:39:34Z</time>
      </trkpt>
      <trkpt lat="43.86449" lon="7.22774">
        <ele>552</ele>
        <time>2013-09-01T10:39:44Z</time>
      </trkpt>
      <trkpt lat="43.86457" lon="7.22777">
        <ele>552</ele>
        <time>2013-09-01T10:40:06Z</time>
      </trkpt>
      <trkpt lat="43.86448" lon="7.22782">
        <ele>558</ele>
        <time>2013-09-01T10:40:14Z</time>
      </trkpt>
      <trkpt lat="43.86439" lon="7.22782">
        <ele>564</ele>
        <time>2013-09-01T10:40:17Z</time>
      </trkpt>
      <trkpt lat="43.86448" lon="7.22776">
        <ele>549</ele>
        <time>2013-09-01T10:41:05Z</time>
      </trkpt>
      <trkpt lat="43.86452" lon="7.22766">
        <ele>549</ele>
        <time>2013-09-01T10:41:18Z</time>
      </trkpt>
      <trkpt lat="43.86459" lon="7.22758">
        <ele>549</ele>
        <time>2013-09-01T10:41:20Z</time>
      </trkpt>
      <trkpt lat="43.86468" lon="7.22751">
        <ele>555</ele>
        <time>2013-09-01T10:41:24Z</time>
      </trkpt>
      <trkpt lat="43.86461" lon="7.22766">
        <ele>555</ele>
        <time>2013-09-01T10:41:29Z</time>
      </trkpt>
      <trkpt lat="43.86457" lon="7.22783">
        <ele>555</ele>
        <time>2013-09-01T10:41:33Z</time>
      </trkpt>
      <trkpt lat="43.8645" lon="7.22793">
        <ele>555</ele>
        <time>2013-09-01T10:41:35Z</time>
      </trkpt>
      <trkpt lat="43.86442" lon="7.228">
        <ele>555</ele>
        <time>2013-09-01T10:41:37Z</time>
      </trkpt>
      <trkpt lat="43.86431" lon="7.22799">
        <ele>565</ele>
        <time>2013-09-01T10:41:42Z</time>
      </trkpt>
      <trkpt lat="43.86429" lon="7.22785">
        <ele>572</ele>
        <time>2013-09-01T10:41:51Z</time>
      </trkpt>
      <trkpt lat="43.86427" lon="7.22771">
        <ele>566</ele>
        <time>2013-09-01T10:42:03Z</time>
      </trkpt>
      <trkpt lat="43.86417" lon="7.22776">
        <ele>566</ele>
        <time>2013-09-01T10:42:22Z</time>
      </trkpt>
      <trkpt lat="43.86407" lon="7.22779">
        <ele>566</ele>
        <time>2013-09-01T10:42:28Z</time>
      </trkpt>
      <trkpt lat="43.86397" lon="7.22783">
        <ele>566</ele>
        <time>2013-09-01T10:42:37Z</time>
      </trkpt>
      <trkpt lat="43.86388" lon="7.22787">
        <ele>566</ele>
        <time>2013-09-01T10:42:42Z</time>
      </trkpt>
      <trkpt lat="43.86377" lon="7.22788">
        <ele>566</ele>
        <time>2013-09-01T10:42:49Z</time>
      </trkpt>
      <trkpt lat="43.86367" lon="7.22785">
        <ele>555</ele>
        <time>2013-09-01T10:43:10Z</time>
      </trkpt>
      <trkpt lat="43.86356" lon="7.22785">
        <ele>562</ele>
        <time>2013-09-01T10:43:15Z</time>
      </trkpt>
      <trkpt lat="43.86347" lon="7.22788">
        <ele>562</ele>
        <time>2013-09-01T10:43:17Z</time>
      </trkpt>
      <trkpt lat="43.8634" lon="7.22795">
        <ele>562</ele>
        <time>2013-09-01T10:43:41Z</time>
      </trkpt>
      <trkpt lat="43.86331" lon="7.228">
        <ele>569</ele>
        <time>2013-09-01T10:43:56Z</time>
      </trkpt>
      <trkpt lat="43.86324" lon="7.22807">
        <ele>575</ele>
        <time>2013-09-01T10:44:10Z</time>
      </trkpt>
      <trkpt lat="43.86318" lon="7.22818">
        <ele>575</ele>
        <time>2013-09-01T10:44:15Z</time>
      </trkpt>
      <trkpt lat="43.8631" lon="7.22826">
        <ele>575</ele>
        <time>2013-09-01T10:44:26Z</time>
      </trkpt>
      <trkpt lat="43.86321" lon="7.22828">
        <ele>559</ele>
        <time>2013-09-01T10:44:46Z</time>
      </trkpt>
      <trkpt lat="43.86331" lon="7.22829">
        <ele>545</ele>
        <time>2013-09-01T10:44:50Z</time>
      </trkpt>
      <trkpt lat="43.86323" lon="7.22833">
        <ele>545</ele>
        <time>2013-09-01T10:45:00Z</time>
      </trkpt>
      <trkpt lat="43.86314" lon="7.22831">
        <ele>552</ele>
        <time>2013-09-01T10:45:10Z</time>
      </trkpt>
      <trkpt lat="43.8631" lon="7.22845">
        <ele>542</ele>
        <time>2013-09-01T10:45:29Z</time>
      </trkpt>
      <trkpt lat="43.86305" lon="7.22834">
        <ele>542</ele>
        <time>2013-09-01T10:45:44Z</time>
      </trkpt>
      <trkpt lat="43.86312" lon="7.2284">
        <ele>542</ele>
        <time>2013-09-01T10:45:50Z</time>
      </trkpt>
      <trkpt lat="43.86325" lon="7.22845">
        <ele>535</ele>
        <time>2013-09-01T10:45:52Z</time>
      </trkpt>
      <trkpt lat="43.86335" lon="7.22853">
        <ele>535</ele>
        <time>2013-09-01T10:45:54Z</time>
      </trkpt>
      <trkpt lat="43.86349" lon="7.22857">
        <ele>528</ele>
        <time>2013-09-01T10:45:56Z</time>
      </trkpt>
      <trkpt lat="43.8636" lon="7.22863">
        <ele>528</ele>
        <time>2013-09-01T10:45:59Z</time>
      </trkpt>
      <trkpt lat="43.8637" lon="7.22867">
        <ele>521</ele>
        <time>2013-09-01T10:46:02Z</time>
      </trkpt>
      <trkpt lat="43.86358" lon="7.22867">
        <ele>521</ele>
        <time>2013-09-01T10:46:11Z</time>
      </trkpt>
      <trkpt lat="43.86346" lon="7.22864">
        <ele>521</ele>
        <time>2013-09-01T10:46:16Z</time>
      </trkpt>
      <trkpt lat="43.86334" lon="7.22863">
        <ele>521</ele>
        <time>2013-09-01T10:46:19Z</time>
      </trkpt>
      <trkpt lat="43.86326" lon="7.22858">
        <ele>537</ele>
        <time>2013-09-01T10:46:25Z</time>
      </trkpt>
      <trkpt lat="43.86318" lon="7.22866">
        <ele>545</ele>
        <time>2013-09-01T10:46:35Z</time>
      </trkpt>
      <trkpt lat="43.86295" lon="7.22862">
        <ele>552</ele>
        <time>2013-09-01T10:46:38Z</time>
      </trkpt>
      <trkpt lat="43.86279" lon="7.22857">
        <ele>552</ele>
        <time>2013-09-01T10:46:40Z</time>
      </trkpt>
      <trkpt lat="43.86269" lon="7.22855">
        <ele>552</ele>
        <time>2013-09-01T10:46:42Z</time>
      </trkpt>
      <trkpt lat="43.86259" lon="7.22854">
        <ele>552</ele>
        <time>2013-09-01T10:46:43Z</time>
      </trkpt>
      <trkpt lat="43.86246" lon="7.22853">
        <ele>552</ele>
        <time>2013-09-01T10:46:45Z</time>
      </trkpt>
      <trkpt lat="43.86236" lon="7.22854">
        <ele>560</ele>
        <time>2013-09-01T10:46:46Z</time>
      </trkpt>
      <trkpt lat="43.86228" lon="7.22857">
        <ele>560</ele>
        <time>2013-09-01T10:46:49Z</time>
      </trkpt>
      <trkpt lat="43.86214" lon="7.22858">
        <ele>560</ele>
        <time>2013-09-01T10:46:51Z</time>
      </trkpt>
      <trkpt lat="43.86221" lon="7.22872">
        <ele>539</ele>
        <time>2013-09-01T10:47:00Z</time>
      </trkpt>
      <trkpt lat="43.86233" lon="7.22875">
        <ele>529</ele>
        <time>2013-09-01T10:47:02Z</time>
      </trkpt>
      <trkpt lat="43.86223" lon="7.22883">
        <ele>522</ele>
        <time>2013-09-01T10:47:11Z</time>
      </trkpt>
      <trkpt lat="43.86214" lon="7.22884">
        <ele>522</ele>
        <time>2013-09-01T10:47:15Z</time>
      </trkpt>
      <trkpt lat="43.862" lon="7.22886">
        <ele>522</ele>
        <time>2013-09-01T10:47:20Z</time>
      </trkpt>
      <trkpt lat="43.86192" lon="7.22897">
        <ele>522</ele>
        <time>2013-09-01T10:47:31Z</time>
      </trkpt>
      <trkpt lat="43.86184" lon="7.22904">
        <ele>531</ele>
        <time>2013-09-01T10:47:45Z</time>
      </trkpt>
      <trkpt lat="43.86173" lon="7.22905">
        <ele>539</ele>
        <time>2013-09-01T10:47:54Z</time>
      </trkpt>
      <trkpt lat="43.86164" lon="7.22905">
        <ele>539</ele>
        <time>2013-09-01T10:47:58Z</time>
      </trkpt>
      <trkpt lat="43.86174" lon="7.22908">
        <ele>531</ele>
        <time>2013-09-01T10:48:17Z</time>
      </trkpt>
      <trkpt lat="43.86165" lon="7.22908">
        <ele>531</ele>
        <time>2013-09-01T10:48:33Z</time>
      </trkpt>
      <trkpt lat="43.86156" lon="7.22906">
        <ele>526</ele>
        <time>2013-09-01T10:48:40Z</time>
      </trkpt>
      <trkpt lat="43.86147" lon="7.22906">
        <ele>526</ele>
        <time>2013-09-01T10:48:47Z</time>
      </trkpt>
      <trkpt lat="43.86137" lon="7.22907">
        <ele>526</ele>
        <time>2013-09-01T10:48:54Z</time>
      </trkpt>
      <trkpt lat="43.86127" lon="7.22907">
        <ele>526</ele>
        <time>2013-09-01T10:49:05Z</time>
      </trkpt>
      <trkpt lat="43.86117" lon="7.22906">
        <ele>526</ele>
        <time>2013-09-01T10:49:15Z</time>
      </trkpt>
      <trkpt lat="43.86108" lon="7.229">
        <ele>520</ele>
        <time>2013-09-01T10:49:25Z</time>
      </trkpt>
      <trkpt lat="43.86099" lon="7.22901">
        <ele>526</ele>
        <time>2013-09-01T10:49:37Z</time>
      </trkpt>
      <trkpt lat="43.8609" lon="7.22901">
        <ele>526</ele>
        <time>2013-09-01T10:49:46Z</time>
      </trkpt>
      <trkpt lat="43.86081" lon="7.22904">
        <ele>526</ele>
        <time>2013-09-01T10:49:51Z</time>
      </trkpt>
      <trkpt lat="43.86072" lon="7.22904">
        <ele>526</ele>
        <time>2013-09-01T10:50:03Z</time>
      </trkpt>
      <trkpt lat="43.86062" lon="7.22907">
        <ele>535</ele>
        <time>2013-09-01T10:50:09Z</time>
      </trkpt>
      <trkpt lat="43.86052" lon="7.22906">
        <ele>547</ele>
        <time>2013-09-01T10:50:17Z</time>
      </trkpt>
      <trkpt lat="43.8604" lon="7.22905">
        <ele>547</ele>
        <time>2013-09-01T10:50:26Z</time>
      </trkpt>
      <trkpt lat="43.8603" lon="7.22907">
        <ele>547</ele>
        <time>2013-09-01T10:50:36Z</time>
      </trkpt>
      <trkpt lat="43.86039" lon="7.22903">
        <ele>547</ele>
        <time>2013-09-01T10:50:57Z</time>
      </trkpt>
      <trkpt lat="43.86031" lon="7.22899">
        <ele>539</ele>
        <time>2013-09-01T10:51:03Z</time>
      </trkpt>
      <trkpt lat="43.86023" lon="7.22894">
        <ele>532</ele>
        <time>2013-09-01T10:51:08Z</time>
      </trkpt>
      <trkpt lat="43.86015" lon="7.22886">
        <ele>526</ele>
        <time>2013-09-01T10:51:19Z</time>
      </trkpt>
      <trkpt lat="43.8601" lon="7.22874">
        <ele>526</ele>
        <time>2013-09-01T10:51:28Z</time>
      </trkpt>
      <trkpt lat="43.86006" lon="7.22861">
        <ele>526</ele>
        <time>2013-09-01T10:51:35Z</time>
      </trkpt>
      <trkpt lat="43.86008" lon="7.22848">
        <ele>533</ele>
        <time>2013-09-01T10:51:46Z</time>
      </trkpt>
      <trkpt lat="43.86015" lon="7.22841">
        <ele>533</ele>
        <time>2013-09-01T10:51:49Z</time>
      </trkpt>
      <trkpt lat="43.86011" lon="7.22829">
        <ele>533</ele>
        <time>2013-09-01T10:52:05Z</time>
      </trkpt>
      <trkpt lat="43.8601" lon="7.22816">
        <ele>528</ele>
        <time>2013-09-01T10:52:13Z</time>
      </trkpt>
      <trkpt lat="43.86005" lon="7.22804">
        <ele>528</ele>
        <time>2013-09-01T10:52:26Z</time>
      </trkpt>
      <trkpt lat="43.86" lon="7.22794">
        <ele>528</ele>
        <time>2013-09-01T10:52:36Z</time>
      </trkpt>
      <trkpt lat="43.86" lon="7.22781">
        <ele>528</ele>
        <time>2013-09-01T10:52:50Z</time>
      </trkpt>
      <trkpt lat="43.85998" lon="7.22767">
        <ele>528</ele>
        <time>2013-09-01T10:53:00Z</time>
      </trkpt>
      <trkpt lat="43.85991" lon="7.2276">
        <ele>528</ele>
        <time>2013-09-01T10:53:05Z</time>
      </trkpt>
      <trkpt lat="43.85989" lon="7.22748">
        <ele>534</ele>
        <time>2013-09-01T10:53:20Z</time>
      </trkpt>
      <trkpt lat="43.8598" lon="7.22742">
        <ele>534</ele>
        <time>2013-09-01T10:53:33Z</time>
      </trkpt>
      <trkpt lat="43.85971" lon="7.22748">
        <ele>534</ele>
        <time>2013-09-01T10:53:42Z</time>
      </trkpt>
      <trkpt lat="43.85963" lon="7.22741">
        <ele>539</ele>
        <time>2013-09-01T10:53:57Z</time>
      </trkpt>
      <trkpt lat="43.85954" lon="7.22737">
        <ele>539</ele>
        <time>2013-09-01T10:54:07Z</time>
      </trkpt>
      <trkpt lat="43.85945" lon="7.22737">
        <ele>539</ele>
        <time>2013-09-01T10:54:16Z</time>
      </trkpt>
      <trkpt lat="43.85935" lon="7.22737">
        <ele>539</ele>
        <time>2013-09-01T10:54:24Z</time>
      </trkpt>
      <trkpt lat="43.85926" lon="7.22732">
        <ele>539</ele>
        <time>2013-09-01T10:54:38Z</time>
      </trkpt>
      <trkpt lat="43.85916" lon="7.2273">
        <ele>539</ele>
        <time>2013-09-01T10:54:49Z</time>
      </trkpt>
      <trkpt lat="43.85907" lon="7.22725">
        <ele>534</ele>
        <time>2013-09-01T10:54:57Z</time>
      </trkpt>
      <trkpt lat="43.85898" lon="7.22726">
        <ele>534</ele>
        <time>2013-09-01T10:55:08Z</time>
      </trkpt>
      <trkpt lat="43.85889" lon="7.22723">
        <ele>534</ele>
        <time>2013-09-01T10:55:17Z</time>
      </trkpt>
      <trkpt lat="43.8588" lon="7.22723">
        <ele>534</ele>
        <time>2013-09-01T10:55:28Z</time>
      </trkpt>
      <trkpt lat="43.85872" lon="7.22719">
        <ele>534</ele>
        <time>2013-09-01T10:55:38Z</time>
      </trkpt>
      <trkpt lat="43.85861" lon="7.22721">
        <ele>540</ele>
        <time>2013-09-01T10:55:58Z</time>
      </trkpt>
      <trkpt lat="43.85852" lon="7.22721">
        <ele>540</ele>
        <time>2013-09-01T10:56:08Z</time>
      </trkpt>
      <trkpt lat="43.85844" lon="7.22725">
        <ele>547</ele>
        <time>2013-09-01T10:56:18Z</time>
      </trkpt>
      <trkpt lat="43.85835" lon="7.2272">
        <ele>547</ele>
        <time>2013-09-01T10:56:26Z</time>
      </trkpt>
      <trkpt lat="43.85826" lon="7.22714">
        <ele>542</ele>
        <time>2013-09-01T10:56:34Z</time>
      </trkpt>
      <trkpt lat="43.85816" lon="7.22714">
        <ele>547</ele>
        <time>2013-09-01T10:56:48Z</time>
      </trkpt>
      <trkpt lat="43.85809" lon="7.22707">
        <ele>547</ele>
        <time>2013-09-01T10:56:59Z</time>
      </trkpt>
      <trkpt lat="43.85799" lon="7.22707">
        <ele>547</ele>
        <time>2013-09-01T10:57:14Z</time>
      </trkpt>
      <trkpt lat="43.8579" lon="7.227">
        <ele>553</ele>
        <time>2013-09-01T10:57:26Z</time>
      </trkpt>
      <trkpt lat="43.85781" lon="7.22698">
        <ele>553</ele>
        <time>2013-09-01T10:57:47Z</time>
      </trkpt>
      <trkpt lat="43.85775" lon="7.22688">
        <ele>553</ele>
        <time>2013-09-01T10:57:53Z</time>
      </trkpt>
      <trkpt lat="43.85771" lon="7.22676">
        <ele>547</ele>
        <time>2013-09-01T10:57:58Z</time>
      </trkpt>
      <trkpt lat="43.85762" lon="7.2267">
        <ele>547</ele>
        <time>2013-09-01T10:58:09Z</time>
      </trkpt>
      <trkpt lat="43.85753" lon="7.22661">
        <ele>547</ele>
        <time>2013-09-01T10:58:18Z</time>
      </trkpt>
      <trkpt lat="43.85746" lon="7.22653">
        <ele>555</ele>
        <time>2013-09-01T10:58:35Z</time>
      </trkpt>
      <trkpt lat="43.85743" lon="7.22642">
        <ele>555</ele>
        <time>2013-09-01T10:58:44Z</time>
      </trkpt>
      <trkpt lat="43.85748" lon="7.22631">
        <ele>545</ele>
        <time>2013-09-01T10:58:54Z</time>
      </trkpt>
      <trkpt lat="43.85748" lon="7.22643">
        <ele>545</ele>
        <time>2013-09-01T10:59:07Z</time>
      </trkpt>
      <trkpt lat="43.85742" lon="7.22654">
        <ele>550</ele>
        <time>2013-09-01T10:59:31Z</time>
      </trkpt>
      <trkpt lat="43.8575" lon="7.22648">
        <ele>550</ele>
        <time>2013-09-01T11:00:07Z</time>
      </trkpt>
      <trkpt lat="43.85759" lon="7.22643">
        <ele>550</ele>
        <time>2013-09-01T11:00:20Z</time>
      </trkpt>
      <trkpt lat="43.8575" lon="7.22648">
        <ele>550</ele>
        <time>2013-09-01T11:00:47Z</time>
      </trkpt>
      <trkpt lat="43.85746" lon="7.22659">
        <ele>563</ele>
        <time>2013-09-01T11:02:53Z</time>
      </trkpt>
      <trkpt lat="43.8575" lon="7.22648">
        <ele>536</ele>
        <time>2013-09-01T11:05:39Z</time>
      </trkpt>
      <trkpt lat="43.85744" lon="7.22658">
        <ele>555</ele>
        <time>2013-09-01T11:09:16Z</time>
      </trkpt>
      <trkpt lat="43.85751" lon="7.2265">
        <ele>532</ele>
        <time>2013-09-01T11:12:32Z</time>
      </trkpt>
      <trkpt lat="43.85743" lon="7.22655">
        <ele>551</ele>
        <time>2013-09-01T11:16:51Z</time>
      </trkpt>
      <trkpt lat="43.85734" lon="7.22656">
        <ele>551</ele>
        <time>2013-09-01T11:17:01Z</time>
      </trkpt>
      <trkpt lat="43.85743" lon="7.22658">
        <ele>558</ele>
        <time>2013-09-01T11:17:57Z</time>
      </trkpt>
      <trkpt lat="43.85752" lon="7.22654">
        <ele>524</ele>
        <time>2013-09-01T11:22:58Z</time>
      </trkpt>
      <trkpt lat="43.85743" lon="7.22654">
        <ele>544</ele>
        <time>2013-09-01T11:24:51Z</time>
      </trkpt>
      <trkpt lat="43.85751" lon="7.22651">
        <ele>537</ele>
        <time>2013-09-01T11:26:39Z</time>
      </trkpt>
      <trkpt lat="43.85753" lon="7.22664">
        <ele>550</ele>
        <time>2013-09-01T11:27:49Z</time>
      </trkpt>
      <trkpt lat="43.8575" lon="7.22652">
        <ele>519</ele>
        <time>2013-09-01T11:28:11Z</time>
      </trkpt>
      <trkpt lat="43.85759" lon="7.22648">
        <ele>519</ele>
        <time>2013-09-01T11:28:30Z</time>
      </trkpt>
      <trkpt lat="43.85748" lon="7.22649">
        <ele>514</ele>
        <time>2013-09-01T11:28:46Z</time>
      </trkpt>
      <trkpt lat="43.85757" lon="7.22648">
        <ele>514</ele>
        <time>2013-09-01T11:29:26Z</time>
      </trkpt>
      <trkpt lat="43.85759" lon="7.22661">
        <ele>536</ele>
        <time>2013-09-01T11:29:48Z</time>
      </trkpt>
      <trkpt lat="43.85753" lon="7.22651">
        <ele>536</ele>
        <time>2013-09-01T11:30:06Z</time>
      </trkpt>
      <trkpt lat="43.85745" lon="7.22643">
        <ele>536</ele>
        <time>2013-09-01T11:30:16Z</time>
      </trkpt>
      <trkpt lat="43.85736" lon="7.22639">
        <ele>536</ele>
        <time>2013-09-01T11:30:19Z</time>
      </trkpt>
      <trkpt lat="43.85738" lon="7.22626">
        <ele>536</ele>
        <time>2013-09-01T11:30:29Z</time>
      </trkpt>
      <trkpt lat="43.85729" lon="7.22626">
        <ele>536</ele>
        <time>2013-09-01T11:30:42Z</time>
      </trkpt>
      <trkpt lat="43.85724" lon="7.22638">
        <ele>536</ele>
        <time>2013-09-01T11:30:51Z</time>
      </trkpt>
      <trkpt lat="43.8572" lon="7.22651">
        <ele>536</ele>
        <time>2013-09-01T11:30:58Z</time>
      </trkpt>
      <trkpt lat="43.85714" lon="7.22661">
        <ele>536</ele>
        <time>2013-09-01T11:31:09Z</time>
      </trkpt>
      <trkpt lat="43.85717" lon="7.22674">
        <ele>529</ele>
        <time>2013-09-01T11:31:18Z</time>
      </trkpt>
      <trkpt lat="43.85714" lon="7.22687">
        <ele>529</ele>
        <time>2013-09-01T11:31:27Z</time>
      </trkpt>
      <trkpt lat="43.85707" lon="7.22678">
        <ele>529</ele>
        <time>2013-09-01T11:31:42Z</time>
      </trkpt>
      <trkpt lat="43.85698" lon="7.22677">
        <ele>529</ele>
        <time>2013-09-01T11:32:02Z</time>
      </trkpt>
      <trkpt lat="43.85692" lon="7.22688">
        <ele>529</ele>
        <time>2013-09-01T11:32:10Z</time>
      </trkpt>
      <trkpt lat="43.85685" lon="7.22678">
        <ele>529</ele>
        <time>2013-09-01T11:32:33Z</time>
      </trkpt>
      <trkpt lat="43.85677" lon="7.2267">
        <ele>523</ele>
        <time>2013-09-01T11:32:47Z</time>
      </trkpt>
      <trkpt lat="43.85673" lon="7.22681">
        <ele>523</ele>
        <time>2013-09-01T11:32:56Z</time>
      </trkpt>
      <trkpt lat="43.85664" lon="7.22682">
        <ele>523</ele>
        <time>2013-09-01T11:33:02Z</time>
      </trkpt>
      <trkpt lat="43.85654" lon="7.22696">
        <ele>530</ele>
        <time>2013-09-01T11:33:10Z</time>
      </trkpt>
      <trkpt lat="43.85662" lon="7.22704">
        <ele>530</ele>
        <time>2013-09-01T11:33:17Z</time>
      </trkpt>
      <trkpt lat="43.85664" lon="7.22715">
        <ele>530</ele>
        <time>2013-09-01T11:33:26Z</time>
      </trkpt>
      <trkpt lat="43.85658" lon="7.22705">
        <ele>530</ele>
        <time>2013-09-01T11:33:36Z</time>
      </trkpt>
      <trkpt lat="43.85649" lon="7.22711">
        <ele>530</ele>
        <time>2013-09-01T11:33:51Z</time>
      </trkpt>
      <trkpt lat="43.85642" lon="7.22717">
        <ele>524</ele>
        <time>2013-09-01T11:34:13Z</time>
      </trkpt>
      <trkpt lat="43.85634" lon="7.22725">
        <ele>503</ele>
        <time>2013-09-01T11:34:37Z</time>
      </trkpt>
      <trkpt lat="43.85632" lon="7.22713">
        <ele>503</ele>
        <time>2013-09-01T11:34:53Z</time>
      </trkpt>
      <trkpt lat="43.85623" lon="7.22706">
        <ele>503</ele>
        <time>2013-09-01T11:35:02Z</time>
      </trkpt>
      <trkpt lat="43.8562" lon="7.2272">
        <ele>503</ele>
        <time>2013-09-01T11:35:13Z</time>
      </trkpt>
      <trkpt lat="43.85612" lon="7.22713">
        <ele>496</ele>
        <time>2013-09-01T11:35:40Z</time>
      </trkpt>
      <trkpt lat="43.85607" lon="7.22703">
        <ele>503</ele>
        <time>2013-09-01T11:35:50Z</time>
      </trkpt>
      <trkpt lat="43.85597" lon="7.22705">
        <ele>496</ele>
        <time>2013-09-01T11:36:07Z</time>
      </trkpt>
      <trkpt lat="43.85589" lon="7.22713">
        <ele>514</ele>
        <time>2013-09-01T11:36:26Z</time>
      </trkpt>
      <trkpt lat="43.85579" lon="7.22716">
        <ele>501</ele>
        <time>2013-09-01T11:36:35Z</time>
      </trkpt>
      <trkpt lat="43.85569" lon="7.22716">
        <ele>507</ele>
        <time>2013-09-01T11:36:51Z</time>
      </trkpt>
      <trkpt lat="43.85562" lon="7.22726">
        <ele>507</ele>
        <time>2013-09-01T11:37:00Z</time>
      </trkpt>
      <trkpt lat="43.85551" lon="7.22731">
        <ele>507</ele>
        <time>2013-09-01T11:37:10Z</time>
      </trkpt>
      <trkpt lat="43.85544" lon="7.22741">
        <ele>499</ele>
        <time>2013-09-01T11:37:18Z</time>
      </trkpt>
      <trkpt lat="43.8554" lon="7.22753">
        <ele>499</ele>
        <time>2013-09-01T11:37:29Z</time>
      </trkpt>
      <trkpt lat="43.85537" lon="7.22766">
        <ele>491</ele>
        <time>2013-09-01T11:37:34Z</time>
      </trkpt>
      <trkpt lat="43.85534" lon="7.22779">
        <ele>491</ele>
        <time>2013-09-01T11:37:47Z</time>
      </trkpt>
      <trkpt lat="43.85534" lon="7.22792">
        <ele>486</ele>
        <time>2013-09-01T11:38:00Z</time>
      </trkpt>
      <trkpt lat="43.85534" lon="7.22804">
        <ele>486</ele>
        <time>2013-09-01T11:38:07Z</time>
      </trkpt>
      <trkpt lat="43.85528" lon="7.22815">
        <ele>486</ele>
        <time>2013-09-01T11:38:14Z</time>
      </trkpt>
      <trkpt lat="43.85523" lon="7.22826">
        <ele>486</ele>
        <time>2013-09-01T11:38:23Z</time>
      </trkpt>
      <trkpt lat="43.85519" lon="7.22837">
        <ele>494</ele>
        <time>2013-09-01T11:38:29Z</time>
      </trkpt>
      <trkpt lat="43.85516" lon="7.22848">
        <ele>494</ele>
        <time>2013-09-01T11:38:36Z</time>
      </trkpt>
      <trkpt lat="43.85512" lon="7.2286">
        <ele>503</ele>
        <time>2013-09-01T11:38:45Z</time>
      </trkpt>
      <trkpt lat="43.85509" lon="7.22873">
        <ele>503</ele>
        <time>2013-09-01T11:38:53Z</time>
      </trkpt>
      <trkpt lat="43.85507" lon="7.22885">
        <ele>503</ele>
        <time>2013-09-01T11:39:01Z</time>
      </trkpt>
      <trkpt lat="43.85504" lon="7.22898">
        <ele>503</ele>
        <time>2013-09-01T11:39:10Z</time>
      </trkpt>
      <trkpt lat="43.85501" lon="7.22909">
        <ele>503</ele>
        <time>2013-09-01T11:39:17Z</time>
      </trkpt>
      <trkpt lat="43.85497" lon="7.22922">
        <ele>503</ele>
        <time>2013-09-01T11:39:26Z</time>
      </trkpt>
      <trkpt lat="43.85493" lon="7.22934">
        <ele>503</ele>
        <time>2013-09-01T11:39:36Z</time>
      </trkpt>
      <trkpt lat="43.85486" lon="7.22944">
        <ele>503</ele>
        <time>2013-09-01T11:39:49Z</time>
      </trkpt>
      <trkpt lat="43.85477" lon="7.22949">
        <ele>503</ele>
        <time>2013-09-01T11:39:56Z</time>
      </trkpt>
      <trkpt lat="43.85468" lon="7.22953">
        <ele>503</ele>
        <time>2013-09-01T11:40:03Z</time>
      </trkpt>
      <trkpt lat="43.85467" lon="7.22966">
        <ele>503</ele>
        <time>2013-09-01T11:40:09Z</time>
      </trkpt>
      <trkpt lat="43.85462" lon="7.22978">
        <ele>503</ele>
        <time>2013-09-01T11:40:19Z</time>
      </trkpt>
      <trkpt lat="43.85456" lon="7.22989">
        <ele>498</ele>
        <time>2013-09-01T11:40:27Z</time>
      </trkpt>
      <trkpt lat="43.85458" lon="7.23003">
        <ele>504</ele>
        <time>2013-09-01T11:40:34Z</time>
      </trkpt>
      <trkpt lat="43.85456" lon="7.23015">
        <ele>504</ele>
        <time>2013-09-01T11:40:43Z</time>
      </trkpt>
      <trkpt lat="43.85458" lon="7.23028">
        <ele>512</ele>
        <time>2013-09-01T11:40:55Z</time>
      </trkpt>
      <trkpt lat="43.85454" lon="7.2304">
        <ele>512</ele>
        <time>2013-09-01T11:41:03Z</time>
      </trkpt>
      <trkpt lat="43.85454" lon="7.23053">
        <ele>512</ele>
        <time>2013-09-01T11:41:13Z</time>
      </trkpt>
      <trkpt lat="43.85451" lon="7.23066">
        <ele>512</ele>
        <time>2013-09-01T11:41:21Z</time>
      </trkpt>
      <trkpt lat="43.85449" lon="7.23077">
        <ele>512</ele>
        <time>2013-09-01T11:41:29Z</time>
      </trkpt>
      <trkpt lat="43.8545" lon="7.2309">
        <ele>512</ele>
        <time>2013-09-01T11:41:38Z</time>
      </trkpt>
      <trkpt lat="43.8545" lon="7.23103">
        <ele>512</ele>
        <time>2013-09-01T11:41:45Z</time>
      </trkpt>
      <trkpt lat="43.85449" lon="7.23115">
        <ele>512</ele>
        <time>2013-09-01T11:41:55Z</time>
      </trkpt>
      <trkpt lat="43.85448" lon="7.23128">
        <ele>512</ele>
        <time>2013-09-01T11:42:02Z</time>
      </trkpt>
      <trkpt lat="43.85445" lon="7.23139">
        <ele>512</ele>
        <time>2013-09-01T11:42:10Z</time>
      </trkpt>
      <trkpt lat="43.85442" lon="7.23152">
        <ele>512</ele>
        <time>2013-09-01T11:42:20Z</time>
      </trkpt>
      <trkpt lat="43.85435" lon="7.23159">
        <ele>512</ele>
        <time>2013-09-01T11:42:28Z</time>
      </trkpt>
      <trkpt lat="43.85426" lon="7.23159">
        <ele>525</ele>
        <time>2013-09-01T11:42:51Z</time>
      </trkpt>
      <trkpt lat="43.85418" lon="7.23165">
        <ele>525</ele>
        <time>2013-09-01T11:42:57Z</time>
      </trkpt>
      <trkpt lat="43.85414" lon="7.23177">
        <ele>525</ele>
        <time>2013-09-01T11:43:05Z</time>
      </trkpt>
      <trkpt lat="43.85412" lon="7.2319">
        <ele>525</ele>
        <time>2013-09-01T11:43:10Z</time>
      </trkpt>
      <trkpt lat="43.85414" lon="7.23202">
        <ele>525</ele>
        <time>2013-09-01T11:43:18Z</time>
      </trkpt>
      <trkpt lat="43.85412" lon="7.23215">
        <ele>512</ele>
        <time>2013-09-01T11:43:27Z</time>
      </trkpt>
      <trkpt lat="43.85415" lon="7.23226">
        <ele>512</ele>
        <time>2013-09-01T11:43:37Z</time>
      </trkpt>
      <trkpt lat="43.85411" lon="7.23238">
        <ele>522</ele>
        <time>2013-09-01T11:43:56Z</time>
      </trkpt>
      <trkpt lat="43.85403" lon="7.23242">
        <ele>522</ele>
        <time>2013-09-01T11:44:06Z</time>
      </trkpt>
      <trkpt lat="43.85393" lon="7.23244">
        <ele>522</ele>
        <time>2013-09-01T11:44:18Z</time>
      </trkpt>
      <trkpt lat="43.85385" lon="7.23249">
        <ele>522</ele>
        <time>2013-09-01T11:44:29Z</time>
      </trkpt>
      <trkpt lat="43.85381" lon="7.23261">
        <ele>522</ele>
        <time>2013-09-01T11:44:36Z</time>
      </trkpt>
      <trkpt lat="43.85386" lon="7.23272">
        <ele>522</ele>
        <time>2013-09-01T11:44:44Z</time>
      </trkpt>
      <trkpt lat="43.85379" lon="7.2328">
        <ele>522</ele>
        <time>2013-09-01T11:44:59Z</time>
      </trkpt>
      <trkpt lat="43.85374" lon="7.23292">
        <ele>522</ele>
        <time>2013-09-01T11:45:09Z</time>
      </trkpt>
      <trkpt lat="43.85369" lon="7.23302">
        <ele>522</ele>
        <time>2013-09-01T11:45:17Z</time>
      </trkpt>
      <trkpt lat="43.85369" lon="7.23316">
        <ele>515</ele>
        <time>2013-09-01T11:45:24Z</time>
      </trkpt>
      <trkpt lat="43.85365" lon="7.23328">
        <ele>505</ele>
        <time>2013-09-01T11:45:32Z</time>
      </trkpt>
      <trkpt lat="43.85357" lon="7.23335">
        <ele>511</ele>
        <time>2013-09-01T11:45:39Z</time>
      </trkpt>
      <trkpt lat="43.85347" lon="7.23335">
        <ele>511</ele>
        <time>2013-09-01T11:45:46Z</time>
      </trkpt>
      <trkpt lat="43.85337" lon="7.23338">
        <ele>511</ele>
        <time>2013-09-01T11:45:52Z</time>
      </trkpt>
      <trkpt lat="43.8533" lon="7.23348">
        <ele>511</ele>
        <time>2013-09-01T11:46:01Z</time>
      </trkpt>
      <trkpt lat="43.8532" lon="7.23358">
        <ele>511</ele>
        <time>2013-09-01T11:46:10Z</time>
      </trkpt>
      <trkpt lat="43.85315" lon="7.23368">
        <ele>521</ele>
        <time>2013-09-01T11:46:23Z</time>
      </trkpt>
      <trkpt lat="43.8531" lon="7.23379">
        <ele>515</ele>
        <time>2013-09-01T11:46:33Z</time>
      </trkpt>
      <trkpt lat="43.85301" lon="7.23381">
        <ele>515</ele>
        <time>2013-09-01T11:46:41Z</time>
      </trkpt>
      <trkpt lat="43.85296" lon="7.2337">
        <ele>521</ele>
        <time>2013-09-01T11:46:53Z</time>
      </trkpt>
      <trkpt lat="43.85287" lon="7.23368">
        <ele>521</ele>
        <time>2013-09-01T11:46:59Z</time>
      </trkpt>
      <trkpt lat="43.85278" lon="7.23372">
        <ele>515</ele>
        <time>2013-09-01T11:47:04Z</time>
      </trkpt>
      <trkpt lat="43.8527" lon="7.23378">
        <ele>521</ele>
        <time>2013-09-01T11:47:16Z</time>
      </trkpt>
      <trkpt lat="43.8526" lon="7.23378">
        <ele>521</ele>
        <time>2013-09-01T11:47:29Z</time>
      </trkpt>
      <trkpt lat="43.85252" lon="7.23386">
        <ele>521</ele>
        <time>2013-09-01T11:47:43Z</time>
      </trkpt>
      <trkpt lat="43.85242" lon="7.23386">
        <ele>510</ele>
        <time>2013-09-01T11:47:47Z</time>
      </trkpt>
      <trkpt lat="43.85239" lon="7.23397">
        <ele>510</ele>
        <time>2013-09-01T11:48:03Z</time>
      </trkpt>
      <trkpt lat="43.85234" lon="7.23409">
        <ele>526</ele>
        <time>2013-09-01T11:48:24Z</time>
      </trkpt>
      <trkpt lat="43.85227" lon="7.23417">
        <ele>526</ele>
        <time>2013-09-01T11:48:35Z</time>
      </trkpt>
      <trkpt lat="43.85217" lon="7.23417">
        <ele>526</ele>
        <time>2013-09-01T11:48:46Z</time>
      </trkpt>
      <trkpt lat="43.85209" lon="7.23421">
        <ele>520</ele>
        <time>2013-09-01T11:48:56Z</time>
      </trkpt>
      <trkpt lat="43.852" lon="7.23428">
        <ele>520</ele>
        <time>2013-09-01T11:49:14Z</time>
      </trkpt>
      <trkpt lat="43.85195" lon="7.23438">
        <ele>532</ele>
        <time>2013-09-01T11:49:31Z</time>
      </trkpt>
      <trkpt lat="43.85192" lon="7.2345">
        <ele>532</ele>
        <time>2013-09-01T11:49:41Z</time>
      </trkpt>
      <trkpt lat="43.85185" lon="7.2346">
        <ele>538</ele>
        <time>2013-09-01T11:49:56Z</time>
      </trkpt>
      <trkpt lat="43.85176" lon="7.23461">
        <ele>532</ele>
        <time>2013-09-01T11:50:03Z</time>
      </trkpt>
      <trkpt lat="43.8517" lon="7.2347">
        <ele>532</ele>
        <time>2013-09-01T11:50:11Z</time>
      </trkpt>
      <trkpt lat="43.85164" lon="7.2348">
        <ele>519</ele>
        <time>2013-09-01T11:50:21Z</time>
      </trkpt>
      <trkpt lat="43.85159" lon="7.23492">
        <ele>519</ele>
        <time>2013-09-01T11:50:33Z</time>
      </trkpt>
      <trkpt lat="43.8515" lon="7.23492">
        <ele>527</ele>
        <time>2013-09-01T11:50:42Z</time>
      </trkpt>
      <trkpt lat="43.8514" lon="7.23498">
        <ele>538</ele>
        <time>2013-09-01T11:50:59Z</time>
      </trkpt>
      <trkpt lat="43.85132" lon="7.23501">
        <ele>538</ele>
        <time>2013-09-01T11:51:06Z</time>
      </trkpt>
      <trkpt lat="43.85123" lon="7.23503">
        <ele>548</ele>
        <time>2013-09-01T11:51:28Z</time>
      </trkpt>
      <trkpt lat="43.85122" lon="7.23491">
        <ele>548</ele>
        <time>2013-09-01T11:51:52Z</time>
      </trkpt>
      <trkpt lat="43.8512" lon="7.23478">
        <ele>548</ele>
        <time>2013-09-01T11:52:13Z</time>
      </trkpt>
      <trkpt lat="43.85118" lon="7.23465">
        <ele>548</ele>
        <time>2013-09-01T11:52:24Z</time>
      </trkpt>
      <trkpt lat="43.85112" lon="7.23456">
        <ele>562</ele>
        <time>2013-09-01T11:52:36Z</time>
      </trkpt>
      <trkpt lat="43.85103" lon="7.23456">
        <ele>555</ele>
        <time>2013-09-01T11:53:04Z</time>
      </trkpt>
      <trkpt lat="43.85094" lon="7.23448">
        <ele>555</ele>
        <time>2013-09-01T11:53:21Z</time>
      </trkpt>
      <trkpt lat="43.85084" lon="7.23444">
        <ele>555</ele>
        <time>2013-09-01T11:53:33Z</time>
      </trkpt>
      <trkpt lat="43.85075" lon="7.23442">
        <ele>555</ele>
        <time>2013-09-01T11:53:41Z</time>
      </trkpt>
      <trkpt lat="43.85066" lon="7.23439">
        <ele>562</ele>
        <time>2013-09-01T11:53:49Z</time>
      </trkpt>
      <trkpt lat="43.85057" lon="7.23439">
        <ele>555</ele>
        <time>2013-09-01T11:53:54Z</time>
      </trkpt>
      <trkpt lat="43.85047" lon="7.2344">
        <ele>546</ele>
        <time>2013-09-01T11:54:01Z</time>
      </trkpt>
      <trkpt lat="43.8504" lon="7.23447">
        <ele>546</ele>
        <time>2013-09-01T11:54:10Z</time>
      </trkpt>
      <trkpt lat="43.85031" lon="7.23452">
        <ele>537</ele>
        <time>2013-09-01T11:54:14Z</time>
      </trkpt>
      <trkpt lat="43.85024" lon="7.2346">
        <ele>537</ele>
        <time>2013-09-01T11:54:23Z</time>
      </trkpt>
      <trkpt lat="43.85019" lon="7.2347">
        <ele>546</ele>
        <time>2013-09-01T11:54:32Z</time>
      </trkpt>
      <trkpt lat="43.85011" lon="7.23477">
        <ele>546</ele>
        <time>2013-09-01T11:54:41Z</time>
      </trkpt>
      <trkpt lat="43.85003" lon="7.23474">
        <ele>546</ele>
        <time>2013-09-01T11:54:49Z</time>
      </trkpt>
      <trkpt lat="43.84994" lon="7.23467">
        <ele>546</ele>
        <time>2013-09-01T11:54:57Z</time>
      </trkpt>
      <trkpt lat="43.84984" lon="7.23464">
        <ele>538</ele>
        <time>2013-09-01T11:55:04Z</time>
      </trkpt>
      <trkpt lat="43.84975" lon="7.23463">
        <ele>538</ele>
        <time>2013-09-01T11:55:12Z</time>
      </trkpt>
      <trkpt lat="43.84971" lon="7.23451">
        <ele>546</ele>
        <time>2013-09-01T11:55:21Z</time>
      </trkpt>
      <trkpt lat="43.84967" lon="7.23439">
        <ele>546</ele>
        <time>2013-09-01T11:55:30Z</time>
      </trkpt>
      <trkpt lat="43.84962" lon="7.23428">
        <ele>546</ele>
        <time>2013-09-01T11:55:39Z</time>
      </trkpt>
      <trkpt lat="43.84956" lon="7.23417">
        <ele>546</ele>
        <time>2013-09-01T11:55:47Z</time>
      </trkpt>
      <trkpt lat="43.84951" lon="7.23405">
        <ele>546</ele>
        <time>2013-09-01T11:55:54Z</time>
      </trkpt>
      <trkpt lat="43.84945" lon="7.23396">
        <ele>546</ele>
        <time>2013-09-01T11:56:01Z</time>
      </trkpt>
      <trkpt lat="43.84936" lon="7.23391">
        <ele>546</ele>
        <time>2013-09-01T11:56:08Z</time>
      </trkpt>
      <trkpt lat="43.84927" lon="7.23386">
        <ele>546</ele>
        <time>2013-09-01T11:56:15Z</time>
      </trkpt>
      <trkpt lat="43.8492" lon="7.23377">
        <ele>557</ele>
        <time>2013-09-01T11:56:27Z</time>
      </trkpt>
      <trkpt lat="43.84911" lon="7.23373">
        <ele>557</ele>
        <time>2013-09-01T11:56:35Z</time>
      </trkpt>
      <trkpt lat="43.84902" lon="7.23374">
        <ele>546</ele>
        <time>2013-09-01T11:56:40Z</time>
      </trkpt>
      <trkpt lat="43.84893" lon="7.23377">
        <ele>546</ele>
        <time>2013-09-01T11:56:47Z</time>
      </trkpt>
      <trkpt lat="43.84885" lon="7.23382">
        <ele>546</ele>
        <time>2013-09-01T11:56:57Z</time>
      </trkpt>
      <trkpt lat="43.84879" lon="7.23392">
        <ele>546</ele>
        <time>2013-09-01T11:57:04Z</time>
      </trkpt>
      <trkpt lat="43.84871" lon="7.23401">
        <ele>546</ele>
        <time>2013-09-01T11:57:12Z</time>
      </trkpt>
      <trkpt lat="43.84862" lon="7.23404">
        <ele>536</ele>
        <time>2013-09-01T11:57:18Z</time>
      </trkpt>
      <trkpt lat="43.84857" lon="7.23414">
        <ele>543</ele>
        <time>2013-09-01T11:57:27Z</time>
      </trkpt>
      <trkpt lat="43.84849" lon="7.23421">
        <ele>543</ele>
        <time>2013-09-01T11:57:35Z</time>
      </trkpt>
      <trkpt lat="43.84841" lon="7.23429">
        <ele>543</ele>
        <time>2013-09-01T11:57:44Z</time>
      </trkpt>
      <trkpt lat="43.84832" lon="7.2343">
        <ele>536</ele>
        <time>2013-09-01T11:57:50Z</time>
      </trkpt>
      <trkpt lat="43.84824" lon="7.23436">
        <ele>536</ele>
        <time>2013-09-01T11:57:58Z</time>
      </trkpt>
      <trkpt lat="43.84814" lon="7.23445">
        <ele>536</ele>
        <time>2013-09-01T11:58:07Z</time>
      </trkpt>
      <trkpt lat="43.84806" lon="7.23451">
        <ele>536</ele>
        <time>2013-09-01T11:58:15Z</time>
      </trkpt>
      <trkpt lat="43.84798" lon="7.23457">
        <ele>545</ele>
        <time>2013-09-01T11:58:22Z</time>
      </trkpt>
      <trkpt lat="43.84791" lon="7.23465">
        <ele>545</ele>
        <time>2013-09-01T11:58:30Z</time>
      </trkpt>
      <trkpt lat="43.84782" lon="7.23473">
        <ele>545</ele>
        <time>2013-09-01T11:58:39Z</time>
      </trkpt>
      <trkpt lat="43.84774" lon="7.23476">
        <ele>538</ele>
        <time>2013-09-01T11:58:45Z</time>
      </trkpt>
      <trkpt lat="43.84767" lon="7.23484">
        <ele>538</ele>
        <time>2013-09-01T11:58:54Z</time>
      </trkpt>
      <trkpt lat="43.84758" lon="7.2349">
        <ele>538</ele>
        <time>2013-09-01T11:59:03Z</time>
      </trkpt>
      <trkpt lat="43.8475" lon="7.23495">
        <ele>538</ele>
        <time>2013-09-01T11:59:12Z</time>
      </trkpt>
      <trkpt lat="43.84743" lon="7.23504">
        <ele>538</ele>
        <time>2013-09-01T11:59:20Z</time>
      </trkpt>
      <trkpt lat="43.84733" lon="7.23514">
        <ele>548</ele>
        <time>2013-09-01T11:59:31Z</time>
      </trkpt>
      <trkpt lat="43.84726" lon="7.23521">
        <ele>548</ele>
        <time>2013-09-01T11:59:37Z</time>
      </trkpt>
      <trkpt lat="43.84717" lon="7.23525">
        <ele>548</ele>
        <time>2013-09-01T11:59:47Z</time>
      </trkpt>
      <trkpt lat="43.84707" lon="7.23531">
        <ele>548</ele>
        <time>2013-09-01T11:59:56Z</time>
      </trkpt>
      <trkpt lat="43.84698" lon="7.23536">
        <ele>548</ele>
        <time>2013-09-01T12:00:04Z</time>
      </trkpt>
      <trkpt lat="43.84691" lon="7.23544">
        <ele>543</ele>
        <time>2013-09-01T12:00:11Z</time>
      </trkpt>
      <trkpt lat="43.84683" lon="7.23551">
        <ele>543</ele>
        <time>2013-09-01T12:00:19Z</time>
      </trkpt>
      <trkpt lat="43.84681" lon="7.23562">
        <ele>556</ele>
        <time>2013-09-01T12:00:28Z</time>
      </trkpt>
      <trkpt lat="43.84676" lon="7.23573">
        <ele>550</ele>
        <time>2013-09-01T12:00:35Z</time>
      </trkpt>
      <trkpt lat="43.84668" lon="7.23581">
        <ele>550</ele>
        <time>2013-09-01T12:00:43Z</time>
      </trkpt>
      <trkpt lat="43.84663" lon="7.23591">
        <ele>550</ele>
        <time>2013-09-01T12:00:50Z</time>
      </trkpt>
      <trkpt lat="43.84657" lon="7.236">
        <ele>550</ele>
        <time>2013-09-01T12:00:57Z</time>
      </trkpt>
      <trkpt lat="43.84648" lon="7.23609">
        <ele>550</ele>
        <time>2013-09-01T12:01:05Z</time>
      </trkpt>
      <trkpt lat="43.84642" lon="7.23619">
        <ele>550</ele>
        <time>2013-09-01T12:01:13Z</time>
      </trkpt>
      <trkpt lat="43.84635" lon="7.23627">
        <ele>550</ele>
        <time>2013-09-01T12:01:20Z</time>
      </trkpt>
      <trkpt lat="43.84627" lon="7.23634">
        <ele>534</ele>
        <time>2013-09-01T12:01:26Z</time>
      </trkpt>
      <trkpt lat="43.84623" lon="7.23646">
        <ele>541</ele>
        <time>2013-09-01T12:01:37Z</time>
      </trkpt>
      <trkpt lat="43.84616" lon="7.23656">
        <ele>547</ele>
        <time>2013-09-01T12:01:47Z</time>
      </trkpt>
      <trkpt lat="43.84611" lon="7.23666">
        <ele>547</ele>
        <time>2013-09-01T12:01:53Z</time>
      </trkpt>
      <trkpt lat="43.84603" lon="7.23672">
        <ele>542</ele>
        <time>2013-09-01T12:02:00Z</time>
      </trkpt>
      <trkpt lat="43.84594" lon="7.2368">
        <ele>542</ele>
        <time>2013-09-01T12:02:08Z</time>
      </trkpt>
      <trkpt lat="43.84587" lon="7.23687">
        <ele>531</ele>
        <time>2013-09-01T12:02:15Z</time>
      </trkpt>
      <trkpt lat="43.84584" lon="7.23699">
        <ele>537</ele>
        <time>2013-09-01T12:02:23Z</time>
      </trkpt>
      <trkpt lat="43.84577" lon="7.23706">
        <ele>537</ele>
        <time>2013-09-01T12:02:30Z</time>
      </trkpt>
      <trkpt lat="43.84572" lon="7.23717">
        <ele>537</ele>
        <time>2013-09-01T12:02:38Z</time>
      </trkpt>
      <trkpt lat="43.84564" lon="7.23724">
        <ele>537</ele>
        <time>2013-09-01T12:02:45Z</time>
      </trkpt>
      <trkpt lat="43.84556" lon="7.23733">
        <ele>528</ele>
        <time>2013-09-01T12:02:52Z</time>
      </trkpt>
      <trkpt lat="43.84551" lon="7.23745">
        <ele>528</ele>
        <time>2013-09-01T12:03:03Z</time>
      </trkpt>
      <trkpt lat="43.84544" lon="7.23755">
        <ele>539</ele>
        <time>2013-09-01T12:03:13Z</time>
      </trkpt>
      <trkpt lat="43.84536" lon="7.23759">
        <ele>539</ele>
        <time>2013-09-01T12:03:21Z</time>
      </trkpt>
      <trkpt lat="43.84529" lon="7.2377">
        <ele>539</ele>
        <time>2013-09-01T12:03:30Z</time>
      </trkpt>
      <trkpt lat="43.84523" lon="7.23779">
        <ele>539</ele>
        <time>2013-09-01T12:03:38Z</time>
      </trkpt>
      <trkpt lat="43.84516" lon="7.23788">
        <ele>539</ele>
        <time>2013-09-01T12:03:46Z</time>
      </trkpt>
      <trkpt lat="43.84509" lon="7.23797">
        <ele>527</ele>
        <time>2013-09-01T12:03:53Z</time>
      </trkpt>
      <trkpt lat="43.84502" lon="7.23806">
        <ele>527</ele>
        <time>2013-09-01T12:04:02Z</time>
      </trkpt>
      <trkpt lat="43.84493" lon="7.23814">
        <ele>527</ele>
        <time>2013-09-01T12:04:10Z</time>
      </trkpt>
      <trkpt lat="43.84488" lon="7.23825">
        <ele>534</ele>
        <time>2013-09-01T12:04:19Z</time>
      </trkpt>
      <trkpt lat="43.8448" lon="7.23831">
        <ele>534</ele>
        <time>2013-09-01T12:04:26Z</time>
      </trkpt>
      <trkpt lat="43.84471" lon="7.23839">
        <ele>534</ele>
        <time>2013-09-01T12:04:35Z</time>
      </trkpt>
      <trkpt lat="43.84464" lon="7.23848">
        <ele>534</ele>
        <time>2013-09-01T12:04:43Z</time>
      </trkpt>
      <trkpt lat="43.84461" lon="7.2386">
        <ele>546</ele>
        <time>2013-09-01T12:04:53Z</time>
      </trkpt>
      <trkpt lat="43.84453" lon="7.23867">
        <ele>546</ele>
        <time>2013-09-01T12:05:00Z</time>
      </trkpt>
      <trkpt lat="43.8445" lon="7.23879">
        <ele>546</ele>
        <time>2013-09-01T12:05:08Z</time>
      </trkpt>
      <trkpt lat="43.84443" lon="7.23887">
        <ele>546</ele>
        <time>2013-09-01T12:05:17Z</time>
      </trkpt>
      <trkpt lat="43.84438" lon="7.23898">
        <ele>546</ele>
        <time>2013-09-01T12:05:26Z</time>
      </trkpt>
      <trkpt lat="43.84429" lon="7.23904">
        <ele>529</ele>
        <time>2013-09-01T12:05:35Z</time>
      </trkpt>
      <trkpt lat="43.84426" lon="7.23892">
        <ele>557</ele>
        <time>2013-09-01T12:06:15Z</time>
      </trkpt>
      <trkpt lat="43.84419" lon="7.23885">
        <ele>557</ele>
        <time>2013-09-01T12:06:28Z</time>
      </trkpt>
      <trkpt lat="43.84412" lon="7.23876">
        <ele>557</ele>
        <time>2013-09-01T12:06:39Z</time>
      </trkpt>
      <trkpt lat="43.84416" lon="7.23864">
        <ele>557</ele>
        <time>2013-09-01T12:06:58Z</time>
      </trkpt>
      <trkpt lat="43.84409" lon="7.23855">
        <ele>557</ele>
        <time>2013-09-01T12:07:08Z</time>
      </trkpt>
      <trkpt lat="43.844" lon="7.23852">
        <ele>557</ele>
        <time>2013-09-01T12:07:23Z</time>
      </trkpt>
      <trkpt lat="43.84395" lon="7.23842">
        <ele>557</ele>
        <time>2013-09-01T12:08:07Z</time>
      </trkpt>
      <trkpt lat="43.84399" lon="7.23829">
        <ele>557</ele>
        <time>2013-09-01T12:08:21Z</time>
      </trkpt>
      <trkpt lat="43.84397" lon="7.23817">
        <ele>557</ele>
        <time>2013-09-01T12:08:29Z</time>
      </trkpt>
      <trkpt lat="43.84396" lon="7.23803">
        <ele>557</ele>
        <time>2013-09-01T12:08:39Z</time>
      </trkpt>
      <trkpt lat="43.84393" lon="7.23791">
        <ele>566</ele>
        <time>2013-09-01T12:08:51Z</time>
      </trkpt>
      <trkpt lat="43.84385" lon="7.23783">
        <ele>566</ele>
        <time>2013-09-01T12:08:58Z</time>
      </trkpt>
      <trkpt lat="43.84375" lon="7.23783">
        <ele>566</ele>
        <time>2013-09-01T12:09:12Z</time>
      </trkpt>
      <trkpt lat="43.84366" lon="7.23783">
        <ele>566</ele>
        <time>2013-09-01T12:09:26Z</time>
      </trkpt>
      <trkpt lat="43.84357" lon="7.23785">
        <ele>566</ele>
        <time>2013-09-01T12:09:38Z</time>
      </trkpt>
      <trkpt lat="43.84347" lon="7.23785">
        <ele>560</ele>
        <time>2013-09-01T12:09:49Z</time>
      </trkpt>
      <trkpt lat="43.84338" lon="7.23787">
        <ele>560</ele>
        <time>2013-09-01T12:10:03Z</time>
      </trkpt>
      <trkpt lat="43.84329" lon="7.23784">
        <ele>560</ele>
        <time>2013-09-01T12:10:19Z</time>
      </trkpt>
      <trkpt lat="43.8432" lon="7.2378">
        <ele>560</ele>
        <time>2013-09-01T12:10:29Z</time>
      </trkpt>
      <trkpt lat="43.84312" lon="7.23775">
        <ele>568</ele>
        <time>2013-09-01T12:10:42Z</time>
      </trkpt>
      <trkpt lat="43.84302" lon="7.23771">
        <ele>568</ele>
        <time>2013-09-01T12:10:49Z</time>
      </trkpt>
      <trkpt lat="43.84291" lon="7.23771">
        <ele>568</ele>
        <time>2013-09-01T12:11:05Z</time>
      </trkpt>
      <trkpt lat="43.84284" lon="7.23764">
        <ele>574</ele>
        <time>2013-09-01T12:11:13Z</time>
      </trkpt>
      <trkpt lat="43.84276" lon="7.23757">
        <ele>574</ele>
        <time>2013-09-01T12:11:21Z</time>
      </trkpt>
      <trkpt lat="43.84268" lon="7.23753">
        <ele>574</ele>
        <time>2013-09-01T12:11:29Z</time>
      </trkpt>
      <trkpt lat="43.8426" lon="7.23747">
        <ele>574</ele>
        <time>2013-09-01T12:11:37Z</time>
      </trkpt>
      <trkpt lat="43.84252" lon="7.2374">
        <ele>574</ele>
        <time>2013-09-01T12:11:46Z</time>
      </trkpt>
      <trkpt lat="43.84245" lon="7.23733">
        <ele>569</ele>
        <time>2013-09-01T12:11:54Z</time>
      </trkpt>
      <trkpt lat="43.84238" lon="7.23724">
        <ele>569</ele>
        <time>2013-09-01T12:12:04Z</time>
      </trkpt>
      <trkpt lat="43.84231" lon="7.23716">
        <ele>569</ele>
        <time>2013-09-01T12:12:11Z</time>
      </trkpt>
      <trkpt lat="43.84223" lon="7.2371">
        <ele>569</ele>
        <time>2013-09-01T12:12:17Z</time>
      </trkpt>
      <trkpt lat="43.84215" lon="7.23705">
        <ele>569</ele>
        <time>2013-09-01T12:12:27Z</time>
      </trkpt>
      <trkpt lat="43.84207" lon="7.23697">
        <ele>558</ele>
        <time>2013-09-01T12:12:36Z</time>
      </trkpt>
      <trkpt lat="43.84199" lon="7.23692">
        <ele>551</ele>
        <time>2013-09-01T12:12:45Z</time>
      </trkpt>
      <trkpt lat="43.84191" lon="7.23685">
        <ele>551</ele>
        <time>2013-09-01T12:12:55Z</time>
      </trkpt>
      <trkpt lat="43.84183" lon="7.23678">
        <ele>551</ele>
        <time>2013-09-01T12:13:05Z</time>
      </trkpt>
      <trkpt lat="43.84174" lon="7.23675">
        <ele>560</ele>
        <time>2013-09-01T12:13:15Z</time>
      </trkpt>
      <trkpt lat="43.84166" lon="7.23669">
        <ele>560</ele>
        <time>2013-09-01T12:13:21Z</time>
      </trkpt>
      <trkpt lat="43.84157" lon="7.23664">
        <ele>560</ele>
        <time>2013-09-01T12:13:30Z</time>
      </trkpt>
      <trkpt lat="43.84148" lon="7.23659">
        <ele>560</ele>
        <time>2013-09-01T12:13:46Z</time>
      </trkpt>
      <trkpt lat="43.8414" lon="7.23654">
        <ele>560</ele>
        <time>2013-09-01T12:13:57Z</time>
      </trkpt>
      <trkpt lat="43.84131" lon="7.23653">
        <ele>552</ele>
        <time>2013-09-01T12:14:05Z</time>
      </trkpt>
      <trkpt lat="43.84121" lon="7.23647">
        <ele>543</ele>
        <time>2013-09-01T12:14:14Z</time>
      </trkpt>
      <trkpt lat="43.84111" lon="7.23643">
        <ele>559</ele>
        <time>2013-09-01T12:14:29Z</time>
      </trkpt>
      <trkpt lat="43.84102" lon="7.23643">
        <ele>569</ele>
        <time>2013-09-01T12:14:37Z</time>
      </trkpt>
      <trkpt lat="43.84099" lon="7.23655">
        <ele>580</ele>
        <time>2013-09-01T12:14:47Z</time>
      </trkpt>
      <trkpt lat="43.84098" lon="7.23668">
        <ele>580</ele>
        <time>2013-09-01T12:14:56Z</time>
      </trkpt>
      <trkpt lat="43.84096" lon="7.23679">
        <ele>571</ele>
        <time>2013-09-01T12:15:10Z</time>
      </trkpt>
      <trkpt lat="43.84092" lon="7.23692">
        <ele>565</ele>
        <time>2013-09-01T12:15:20Z</time>
      </trkpt>
      <trkpt lat="43.84094" lon="7.23704">
        <ele>565</ele>
        <time>2013-09-01T12:15:32Z</time>
      </trkpt>
      <trkpt lat="43.84089" lon="7.23715">
        <ele>565</ele>
        <time>2013-09-01T12:15:49Z</time>
      </trkpt>
      <trkpt lat="43.8408" lon="7.23719">
        <ele>557</ele>
        <time>2013-09-01T12:16:06Z</time>
      </trkpt>
      <trkpt lat="43.84074" lon="7.23729">
        <ele>557</ele>
        <time>2013-09-01T12:16:24Z</time>
      </trkpt>
      <trkpt lat="43.84072" lon="7.23741">
        <ele>572</ele>
        <time>2013-09-01T12:16:45Z</time>
      </trkpt>
      <trkpt lat="43.84068" lon="7.23752">
        <ele>580</ele>
        <time>2013-09-01T12:17:00Z</time>
      </trkpt>
      <trkpt lat="43.84059" lon="7.23752">
        <ele>569</ele>
        <time>2013-09-01T12:18:04Z</time>
      </trkpt>
      <trkpt lat="43.8405" lon="7.23756">
        <ele>589</ele>
        <time>2013-09-01T12:18:27Z</time>
      </trkpt>
      <trkpt lat="43.84046" lon="7.23745">
        <ele>589</ele>
        <time>2013-09-01T12:18:40Z</time>
      </trkpt>
      <trkpt lat="43.84044" lon="7.23732">
        <ele>589</ele>
        <time>2013-09-01T12:18:56Z</time>
      </trkpt>
      <trkpt lat="43.84037" lon="7.23722">
        <ele>589</ele>
        <time>2013-09-01T12:19:10Z</time>
      </trkpt>
      <trkpt lat="43.84029" lon="7.23719">
        <ele>582</ele>
        <time>2013-09-01T12:19:22Z</time>
      </trkpt>
      <trkpt lat="43.8402" lon="7.23721">
        <ele>582</ele>
        <time>2013-09-01T12:19:36Z</time>
      </trkpt>
      <trkpt lat="43.8401" lon="7.23722">
        <ele>589</ele>
        <time>2013-09-01T12:19:48Z</time>
      </trkpt>
      <trkpt lat="43.84002" lon="7.23719">
        <ele>589</ele>
        <time>2013-09-01T12:20:05Z</time>
      </trkpt>
      <trkpt lat="43.83993" lon="7.23713">
        <ele>589</ele>
        <time>2013-09-01T12:20:20Z</time>
      </trkpt>
      <trkpt lat="43.83984" lon="7.2371">
        <ele>589</ele>
        <time>2013-09-01T12:20:30Z</time>
      </trkpt>
      <trkpt lat="43.83973" lon="7.23709">
        <ele>589</ele>
        <time>2013-09-01T12:20:40Z</time>
      </trkpt>
      <trkpt lat="43.83964" lon="7.23713">
        <ele>589</ele>
        <time>2013-09-01T12:20:46Z</time>
      </trkpt>
      <trkpt lat="43.83954" lon="7.23717">
        <ele>594</ele>
        <time>2013-09-01T12:21:01Z</time>
      </trkpt>
      <trkpt lat="43.83945" lon="7.2372">
        <ele>594</ele>
        <time>2013-09-01T12:21:10Z</time>
      </trkpt>
      <trkpt lat="43.83936" lon="7.23726">
        <ele>594</ele>
        <time>2013-09-01T12:21:17Z</time>
      </trkpt>
      <trkpt lat="43.83929" lon="7.23733">
        <ele>588</ele>
        <time>2013-09-01T12:21:27Z</time>
      </trkpt>
      <trkpt lat="43.8392" lon="7.23731">
        <ele>588</ele>
        <time>2013-09-01T12:21:44Z</time>
      </trkpt>
      <trkpt lat="43.83911" lon="7.23727">
        <ele>582</ele>
        <time>2013-09-01T12:22:29Z</time>
      </trkpt>
      <trkpt lat="43.83904" lon="7.23719">
        <ele>574</ele>
        <time>2013-09-01T12:22:43Z</time>
      </trkpt>
      <trkpt lat="43.83895" lon="7.23719">
        <ele>581</ele>
        <time>2013-09-01T12:23:00Z</time>
      </trkpt>
      <trkpt lat="43.83887" lon="7.23725">
        <ele>581</ele>
        <time>2013-09-01T12:23:10Z</time>
      </trkpt>
      <trkpt lat="43.83878" lon="7.2373">
        <ele>571</ele>
        <time>2013-09-01T12:23:24Z</time>
      </trkpt>
      <trkpt lat="43.83869" lon="7.2373">
        <ele>565</ele>
        <time>2013-09-01T12:23:39Z</time>
      </trkpt>
      <trkpt lat="43.83861" lon="7.23736">
        <ele>560</ele>
        <time>2013-09-01T12:23:54Z</time>
      </trkpt>
      <trkpt lat="43.83851" lon="7.23732">
        <ele>560</ele>
        <time>2013-09-01T12:24:05Z</time>
      </trkpt>
      <trkpt lat="43.83843" lon="7.23739">
        <ele>560</ele>
        <time>2013-09-01T12:24:18Z</time>
      </trkpt>
      <trkpt lat="43.83836" lon="7.23746">
        <ele>554</ele>
        <time>2013-09-01T12:24:29Z</time>
      </trkpt>
      <trkpt lat="43.83828" lon="7.23751">
        <ele>554</ele>
        <time>2013-09-01T12:24:37Z</time>
      </trkpt>
      <trkpt lat="43.8382" lon="7.23759">
        <ele>554</ele>
        <time>2013-09-01T12:24:47Z</time>
      </trkpt>
      <trkpt lat="43.83811" lon="7.23763">
        <ele>561</ele>
        <time>2013-09-01T12:24:57Z</time>
      </trkpt>
      <trkpt lat="43.83804" lon="7.23773">
        <ele>561</ele>
        <time>2013-09-01T12:25:07Z</time>
      </trkpt>
      <trkpt lat="43.83801" lon="7.23785">
        <ele>561</ele>
        <time>2013-09-01T12:25:14Z</time>
      </trkpt>
      <trkpt lat="43.83797" lon="7.23796">
        <ele>555</ele>
        <time>2013-09-01T12:25:24Z</time>
      </trkpt>
      <trkpt lat="43.83791" lon="7.23807">
        <ele>546</ele>
        <time>2013-09-01T12:25:35Z</time>
      </trkpt>
      <trkpt lat="43.83785" lon="7.23816">
        <ele>546</ele>
        <time>2013-09-01T12:25:44Z</time>
      </trkpt>
      <trkpt lat="43.8378" lon="7.23827">
        <ele>546</ele>
        <time>2013-09-01T12:25:56Z</time>
      </trkpt>
      <trkpt lat="43.83772" lon="7.23832">
        <ele>546</ele>
        <time>2013-09-01T12:26:04Z</time>
      </trkpt>
      <trkpt lat="43.83763" lon="7.23827">
        <ele>553</ele>
        <time>2013-09-01T12:26:15Z</time>
      </trkpt>
      <trkpt lat="43.83751" lon="7.23827">
        <ele>553</ele>
        <time>2013-09-01T12:26:26Z</time>
      </trkpt>
      <trkpt lat="43.83741" lon="7.23829">
        <ele>553</ele>
        <time>2013-09-01T12:26:36Z</time>
      </trkpt>
      <trkpt lat="43.83734" lon="7.23822">
        <ele>553</ele>
        <time>2013-09-01T12:26:43Z</time>
      </trkpt>
      <trkpt lat="43.83726" lon="7.23818">
        <ele>563</ele>
        <time>2013-09-01T12:26:53Z</time>
      </trkpt>
      <trkpt lat="43.83718" lon="7.23825">
        <ele>557</ele>
        <time>2013-09-01T12:27:09Z</time>
      </trkpt>
      <trkpt lat="43.83709" lon="7.23826">
        <ele>527</ele>
        <time>2013-09-01T12:27:32Z</time>
      </trkpt>
      <trkpt lat="43.83706" lon="7.23814">
        <ele>527</ele>
        <time>2013-09-01T12:27:57Z</time>
      </trkpt>
      <trkpt lat="43.83697" lon="7.23815">
        <ele>527</ele>
        <time>2013-09-01T12:28:10Z</time>
      </trkpt>
      <trkpt lat="43.83698" lon="7.23802">
        <ele>515</ele>
        <time>2013-09-01T12:28:28Z</time>
      </trkpt>
      <trkpt lat="43.83702" lon="7.23791">
        <ele>515</ele>
        <time>2013-09-01T12:28:45Z</time>
      </trkpt>
      <trkpt lat="43.83695" lon="7.23781">
        <ele>528</ele>
        <time>2013-09-01T12:28:54Z</time>
      </trkpt>
      <trkpt lat="43.83686" lon="7.23784">
        <ele>521</ele>
        <time>2013-09-01T12:29:03Z</time>
      </trkpt>
      <trkpt lat="43.83678" lon="7.23792">
        <ele>514</ele>
        <time>2013-09-01T12:29:11Z</time>
      </trkpt>
      <trkpt lat="43.8367" lon="7.23785">
        <ele>514</ele>
        <time>2013-09-01T12:29:19Z</time>
      </trkpt>
      <trkpt lat="43.83661" lon="7.23782">
        <ele>514</ele>
        <time>2013-09-01T12:29:29Z</time>
      </trkpt>
      <trkpt lat="43.83667" lon="7.23792">
        <ele>496</ele>
        <time>2013-09-01T12:29:42Z</time>
      </trkpt>
      <trkpt lat="43.83661" lon="7.23782">
        <ele>496</ele>
        <time>2013-09-01T12:29:52Z</time>
      </trkpt>
      <trkpt lat="43.83662" lon="7.23767">
        <ele>496</ele>
        <time>2013-09-01T12:30:08Z</time>
      </trkpt>
      <trkpt lat="43.83655" lon="7.23758">
        <ele>485</ele>
        <time>2013-09-01T12:30:20Z</time>
      </trkpt>
      <trkpt lat="43.83646" lon="7.23757">
        <ele>485</ele>
        <time>2013-09-01T12:30:28Z</time>
      </trkpt>
      <trkpt lat="43.83637" lon="7.23754">
        <ele>497</ele>
        <time>2013-09-01T12:30:37Z</time>
      </trkpt>
      <trkpt lat="43.83629" lon="7.23748">
        <ele>511</ele>
        <time>2013-09-01T12:30:46Z</time>
      </trkpt>
      <trkpt lat="43.83619" lon="7.23745">
        <ele>525</ele>
        <time>2013-09-01T12:30:53Z</time>
      </trkpt>
      <trkpt lat="43.83609" lon="7.23751">
        <ele>532</ele>
        <time>2013-09-01T12:31:02Z</time>
      </trkpt>
      <trkpt lat="43.83601" lon="7.23757">
        <ele>532</ele>
        <time>2013-09-01T12:31:10Z</time>
      </trkpt>
      <trkpt lat="43.83592" lon="7.23762">
        <ele>532</ele>
        <time>2013-09-01T12:31:20Z</time>
      </trkpt>
      <trkpt lat="43.83584" lon="7.2377">
        <ele>532</ele>
        <time>2013-09-01T12:31:29Z</time>
      </trkpt>
      <trkpt lat="43.83579" lon="7.2378">
        <ele>532</ele>
        <time>2013-09-01T12:31:37Z</time>
      </trkpt>
      <trkpt lat="43.83574" lon="7.23792">
        <ele>532</ele>
        <time>2013-09-01T12:31:44Z</time>
      </trkpt>
      <trkpt lat="43.83569" lon="7.23802">
        <ele>532</ele>
        <time>2013-09-01T12:31:52Z</time>
      </trkpt>
      <trkpt lat="43.83562" lon="7.23812">
        <ele>532</ele>
        <time>2013-09-01T12:32:02Z</time>
      </trkpt>
      <trkpt lat="43.83558" lon="7.23823">
        <ele>526</ele>
        <time>2013-09-01T12:32:10Z</time>
      </trkpt>
      <trkpt lat="43.83554" lon="7.23836">
        <ele>526</ele>
        <time>2013-09-01T12:32:19Z</time>
      </trkpt>
      <trkpt lat="43.83553" lon="7.23852">
        <ele>512</ele>
        <time>2013-09-01T12:32:24Z</time>
      </trkpt>
      <trkpt lat="43.83547" lon="7.23863">
        <ele>504</ele>
        <time>2013-09-01T12:32:31Z</time>
      </trkpt>
      <trkpt lat="43.8354" lon="7.2387">
        <ele>504</ele>
        <time>2013-09-01T12:32:38Z</time>
      </trkpt>
      <trkpt lat="43.8354" lon="7.23884">
        <ele>493</ele>
        <time>2013-09-01T12:32:46Z</time>
      </trkpt>
      <trkpt lat="43.83547" lon="7.23892">
        <ele>483</ele>
        <time>2013-09-01T12:32:52Z</time>
      </trkpt>
      <trkpt lat="43.83537" lon="7.23891">
        <ele>492</ele>
        <time>2013-09-01T12:33:39Z</time>
      </trkpt>
      <trkpt lat="43.83531" lon="7.23901">
        <ele>492</ele>
        <time>2013-09-01T12:34:05Z</time>
      </trkpt>
      <trkpt lat="43.83525" lon="7.23911">
        <ele>492</ele>
        <time>2013-09-01T12:34:13Z</time>
      </trkpt>
      <trkpt lat="43.83521" lon="7.23923">
        <ele>492</ele>
        <time>2013-09-01T12:34:22Z</time>
      </trkpt>
      <trkpt lat="43.83517" lon="7.23934">
        <ele>492</ele>
        <time>2013-09-01T12:34:33Z</time>
      </trkpt>
      <trkpt lat="43.83512" lon="7.23946">
        <ele>492</ele>
        <time>2013-09-01T12:34:44Z</time>
      </trkpt>
      <trkpt lat="43.83507" lon="7.23957">
        <ele>499</ele>
        <time>2013-09-01T12:34:53Z</time>
      </trkpt>
      <trkpt lat="43.83501" lon="7.23966">
        <ele>499</ele>
        <time>2013-09-01T12:35:04Z</time>
      </trkpt>
      <trkpt lat="43.83494" lon="7.23974">
        <ele>499</ele>
        <time>2013-09-01T12:35:13Z</time>
      </trkpt>
      <trkpt lat="43.83485" lon="7.23977">
        <ele>506</ele>
        <time>2013-09-01T12:35:22Z</time>
      </trkpt>
      <trkpt lat="43.83477" lon="7.23986">
        <ele>506</ele>
        <time>2013-09-01T12:35:32Z</time>
      </trkpt>
      <trkpt lat="43.83472" lon="7.23995">
        <ele>506</ele>
        <time>2013-09-01T12:35:39Z</time>
      </trkpt>
      <trkpt lat="43.83465" lon="7.24004">
        <ele>506</ele>
        <time>2013-09-01T12:35:48Z</time>
      </trkpt>
      <trkpt lat="43.8346" lon="7.24015">
        <ele>506</ele>
        <time>2013-09-01T12:35:56Z</time>
      </trkpt>
      <trkpt lat="43.83459" lon="7.24029">
        <ele>506</ele>
        <time>2013-09-01T12:36:03Z</time>
      </trkpt>
      <trkpt lat="43.8346" lon="7.24041">
        <ele>496</ele>
        <time>2013-09-01T12:36:09Z</time>
      </trkpt>
      <trkpt lat="43.8346" lon="7.24054">
        <ele>496</ele>
        <time>2013-09-01T12:36:17Z</time>
      </trkpt>
      <trkpt lat="43.83462" lon="7.24066">
        <ele>496</ele>
        <time>2013-09-01T12:36:27Z</time>
      </trkpt>
      <trkpt lat="43.83469" lon="7.24078">
        <ele>506</ele>
        <time>2013-09-01T12:36:40Z</time>
      </trkpt>
      <trkpt lat="43.83473" lon="7.2409">
        <ele>506</ele>
        <time>2013-09-01T12:36:52Z</time>
      </trkpt>
      <trkpt lat="43.8348" lon="7.24099">
        <ele>506</ele>
        <time>2013-09-01T12:37:14Z</time>
      </trkpt>
      <trkpt lat="43.83488" lon="7.24107">
        <ele>506</ele>
        <time>2013-09-01T12:37:25Z</time>
      </trkpt>
      <trkpt lat="43.83494" lon="7.24118">
        <ele>506</ele>
        <time>2013-09-01T12:37:37Z</time>
      </trkpt>
      <trkpt lat="43.83499" lon="7.24128">
        <ele>506</ele>
        <time>2013-09-01T12:37:53Z</time>
      </trkpt>
      <trkpt lat="43.83505" lon="7.24137">
        <ele>514</ele>
        <time>2013-09-01T12:38:14Z</time>
      </trkpt>
      <trkpt lat="43.83512" lon="7.24145">
        <ele>514</ele>
        <time>2013-09-01T12:38:28Z</time>
      </trkpt>
      <trkpt lat="43.8352" lon="7.24154">
        <ele>514</ele>
        <time>2013-09-01T12:38:37Z</time>
      </trkpt>
      <trkpt lat="43.83523" lon="7.24165">
        <ele>514</ele>
        <time>2013-09-01T12:38:51Z</time>
      </trkpt>
      <trkpt lat="43.83528" lon="7.24175">
        <ele>523</ele>
        <time>2013-09-01T12:39:05Z</time>
      </trkpt>
      <trkpt lat="43.83537" lon="7.24177">
        <ele>523</ele>
        <time>2013-09-01T12:39:17Z</time>
      </trkpt>
      <trkpt lat="43.83548" lon="7.24178">
        <ele>523</ele>
        <time>2013-09-01T12:39:27Z</time>
      </trkpt>
      <trkpt lat="43.83557" lon="7.24179">
        <ele>523</ele>
        <time>2013-09-01T12:39:40Z</time>
      </trkpt>
      <trkpt lat="43.83564" lon="7.24185">
        <ele>523</ele>
        <time>2013-09-01T12:39:56Z</time>
      </trkpt>
      <trkpt lat="43.83574" lon="7.24188">
        <ele>523</ele>
        <time>2013-09-01T12:40:07Z</time>
      </trkpt>
      <trkpt lat="43.83583" lon="7.24184">
        <ele>523</ele>
        <time>2013-09-01T12:40:17Z</time>
      </trkpt>
      <trkpt lat="43.83592" lon="7.24189">
        <ele>523</ele>
        <time>2013-09-01T12:40:34Z</time>
      </trkpt>
      <trkpt lat="43.83585" lon="7.242">
        <ele>534</ele>
        <time>2013-09-01T12:40:41Z</time>
      </trkpt>
      <trkpt lat="43.8358" lon="7.24211">
        <ele>523</ele>
        <time>2013-09-01T12:41:13Z</time>
      </trkpt>
      <trkpt lat="43.83576" lon="7.24224">
        <ele>523</ele>
        <time>2013-09-01T12:41:21Z</time>
      </trkpt>
      <trkpt lat="43.83575" lon="7.24236">
        <ele>523</ele>
        <time>2013-09-01T12:41:30Z</time>
      </trkpt>
      <trkpt lat="43.83575" lon="7.24249">
        <ele>523</ele>
        <time>2013-09-01T12:41:40Z</time>
      </trkpt>
      <trkpt lat="43.83574" lon="7.24261">
        <ele>529</ele>
        <time>2013-09-01T12:41:53Z</time>
      </trkpt>
      <trkpt lat="43.83575" lon="7.24275">
        <ele>529</ele>
        <time>2013-09-01T12:42:07Z</time>
      </trkpt>
      <trkpt lat="43.83578" lon="7.24287">
        <ele>529</ele>
        <time>2013-09-01T12:42:20Z</time>
      </trkpt>
      <trkpt lat="43.83581" lon="7.24298">
        <ele>534</ele>
        <time>2013-09-01T12:42:37Z</time>
      </trkpt>
      <trkpt lat="43.83584" lon="7.2431">
        <ele>534</ele>
        <time>2013-09-01T12:42:51Z</time>
      </trkpt>
      <trkpt lat="43.83588" lon="7.24322">
        <ele>534</ele>
        <time>2013-09-01T12:43:00Z</time>
      </trkpt>
      <trkpt lat="43.83588" lon="7.24335">
        <ele>534</ele>
        <time>2013-09-01T12:43:13Z</time>
      </trkpt>
      <trkpt lat="43.83589" lon="7.24348">
        <ele>550</ele>
        <time>2013-09-01T12:43:38Z</time>
      </trkpt>
      <trkpt lat="43.83585" lon="7.24359">
        <ele>550</ele>
        <time>2013-09-01T12:43:52Z</time>
      </trkpt>
      <trkpt lat="43.83584" lon="7.24375">
        <ele>550</ele>
        <time>2013-09-01T12:44:04Z</time>
      </trkpt>
      <trkpt lat="43.83581" lon="7.24388">
        <ele>550</ele>
        <time>2013-09-01T12:44:14Z</time>
      </trkpt>
      <trkpt lat="43.83578" lon="7.244">
        <ele>550</ele>
        <time>2013-09-01T12:44:23Z</time>
      </trkpt>
      <trkpt lat="43.83577" lon="7.24413">
        <ele>545</ele>
        <time>2013-09-01T12:44:32Z</time>
      </trkpt>
      <trkpt lat="43.83579" lon="7.24426">
        <ele>545</ele>
        <time>2013-09-01T12:44:40Z</time>
      </trkpt>
      <trkpt lat="43.83579" lon="7.24438">
        <ele>545</ele>
        <time>2013-09-01T12:44:50Z</time>
      </trkpt>
      <trkpt lat="43.83584" lon="7.24449">
        <ele>545</ele>
        <time>2013-09-01T12:44:58Z</time>
      </trkpt>
      <trkpt lat="43.83585" lon="7.24463">
        <ele>545</ele>
        <time>2013-09-01T12:45:10Z</time>
      </trkpt>
      <trkpt lat="43.83592" lon="7.24472">
        <ele>545</ele>
        <time>2013-09-01T12:45:16Z</time>
      </trkpt>
      <trkpt lat="43.8359" lon="7.24485">
        <ele>537</ele>
        <time>2013-09-01T12:45:24Z</time>
      </trkpt>
      <trkpt lat="43.8359" lon="7.24499">
        <ele>537</ele>
        <time>2013-09-01T12:45:32Z</time>
      </trkpt>
      <trkpt lat="43.83585" lon="7.2451">
        <ele>537</ele>
        <time>2013-09-01T12:45:44Z</time>
      </trkpt>
      <trkpt lat="43.83587" lon="7.24523">
        <ele>537</ele>
        <time>2013-09-01T12:45:50Z</time>
      </trkpt>
      <trkpt lat="43.8359" lon="7.24535">
        <ele>537</ele>
        <time>2013-09-01T12:45:57Z</time>
      </trkpt>
      <trkpt lat="43.83591" lon="7.24548">
        <ele>537</ele>
        <time>2013-09-01T12:46:06Z</time>
      </trkpt>
      <trkpt lat="43.83584" lon="7.24556">
        <ele>537</ele>
        <time>2013-09-01T12:46:17Z</time>
      </trkpt>
      <trkpt lat="43.83583" lon="7.24569">
        <ele>537</ele>
        <time>2013-09-01T12:46:28Z</time>
      </trkpt>
      <trkpt lat="43.83587" lon="7.24582">
        <ele>544</ele>
        <time>2013-09-01T12:46:33Z</time>
      </trkpt>
      <trkpt lat="43.83581" lon="7.24593">
        <ele>544</ele>
        <time>2013-09-01T12:46:41Z</time>
      </trkpt>
      <trkpt lat="43.83574" lon="7.246">
        <ele>536</ele>
        <time>2013-09-01T12:46:49Z</time>
      </trkpt>
      <trkpt lat="43.83568" lon="7.24611">
        <ele>531</ele>
        <time>2013-09-01T12:46:59Z</time>
      </trkpt>
      <trkpt lat="43.8356" lon="7.24622">
        <ele>531</ele>
        <time>2013-09-01T12:47:12Z</time>
      </trkpt>
      <trkpt lat="43.83558" lon="7.24635">
        <ele>525</ele>
        <time>2013-09-01T12:47:22Z</time>
      </trkpt>
      <trkpt lat="43.83549" lon="7.24634">
        <ele>519</ele>
        <time>2013-09-01T12:47:40Z</time>
      </trkpt>
      <trkpt lat="43.83557" lon="7.24641">
        <ele>527</ele>
        <time>2013-09-01T12:48:22Z</time>
      </trkpt>
      <trkpt lat="43.83548" lon="7.24644">
        <ele>527</ele>
        <time>2013-09-01T12:49:24Z</time>
      </trkpt>
      <trkpt lat="43.83538" lon="7.24645">
        <ele>517</ele>
        <time>2013-09-01T12:50:30Z</time>
      </trkpt>
      <trkpt lat="43.83529" lon="7.24648">
        <ele>528</ele>
        <time>2013-09-01T12:50:40Z</time>
      </trkpt>
      <trkpt lat="43.83521" lon="7.24652">
        <ele>528</ele>
        <time>2013-09-01T12:50:46Z</time>
      </trkpt>
      <trkpt lat="43.83512" lon="7.24656">
        <ele>528</ele>
        <time>2013-09-01T12:50:54Z</time>
      </trkpt>
      <trkpt lat="43.83504" lon="7.24659">
        <ele>528</ele>
        <time>2013-09-01T12:51:02Z</time>
      </trkpt>
      <trkpt lat="43.83495" lon="7.24658">
        <ele>528</ele>
        <time>2013-09-01T12:51:12Z</time>
      </trkpt>
      <trkpt lat="43.83485" lon="7.24658">
        <ele>539</ele>
        <time>2013-09-01T12:51:19Z</time>
      </trkpt>
      <trkpt lat="43.83475" lon="7.24663">
        <ele>539</ele>
        <time>2013-09-01T12:51:26Z</time>
      </trkpt>
      <trkpt lat="43.83468" lon="7.24673">
        <ele>539</ele>
        <time>2013-09-01T12:51:36Z</time>
      </trkpt>
      <trkpt lat="43.83464" lon="7.24684">
        <ele>530</ele>
        <time>2013-09-01T12:51:43Z</time>
      </trkpt>
      <trkpt lat="43.83455" lon="7.24691">
        <ele>530</ele>
        <time>2013-09-01T12:51:52Z</time>
      </trkpt>
      <trkpt lat="43.83445" lon="7.24694">
        <ele>530</ele>
        <time>2013-09-01T12:51:58Z</time>
      </trkpt>
      <trkpt lat="43.83436" lon="7.24695">
        <ele>530</ele>
        <time>2013-09-01T12:52:05Z</time>
      </trkpt>
      <trkpt lat="43.83428" lon="7.247">
        <ele>530</ele>
        <time>2013-09-01T12:52:13Z</time>
      </trkpt>
      <trkpt lat="43.83419" lon="7.24704">
        <ele>530</ele>
        <time>2013-09-01T12:52:22Z</time>
      </trkpt>
      <trkpt lat="43.8341" lon="7.24706">
        <ele>524</ele>
        <time>2013-09-01T12:52:29Z</time>
      </trkpt>
      <trkpt lat="43.83403" lon="7.24713">
        <ele>524</ele>
        <time>2013-09-01T12:52:35Z</time>
      </trkpt>
      <trkpt lat="43.83394" lon="7.24718">
        <ele>524</ele>
        <time>2013-09-01T12:52:45Z</time>
      </trkpt>
      <trkpt lat="43.83384" lon="7.24719">
        <ele>517</ele>
        <time>2013-09-01T12:52:55Z</time>
      </trkpt>
      <trkpt lat="43.83374" lon="7.2472">
        <ele>517</ele>
        <time>2013-09-01T12:53:02Z</time>
      </trkpt>
      <trkpt lat="43.83365" lon="7.24725">
        <ele>511</ele>
        <time>2013-09-01T12:53:13Z</time>
      </trkpt>
      <trkpt lat="43.83358" lon="7.24719">
        <ele>526</ele>
        <time>2013-09-01T12:53:21Z</time>
      </trkpt>
      <trkpt lat="43.83348" lon="7.24717">
        <ele>526</ele>
        <time>2013-09-01T12:53:29Z</time>
      </trkpt>
      <trkpt lat="43.83339" lon="7.24719">
        <ele>526</ele>
        <time>2013-09-01T12:53:36Z</time>
      </trkpt>
      <trkpt lat="43.8333" lon="7.24713">
        <ele>536</ele>
        <time>2013-09-01T12:53:41Z</time>
      </trkpt>
      <trkpt lat="43.83322" lon="7.24707">
        <ele>549</ele>
        <time>2013-09-01T12:53:46Z</time>
      </trkpt>
      <trkpt lat="43.83313" lon="7.24708">
        <ele>557</ele>
        <time>2013-09-01T12:53:53Z</time>
      </trkpt>
      <trkpt lat="43.83304" lon="7.24713">
        <ele>557</ele>
        <time>2013-09-01T12:54:02Z</time>
      </trkpt>
      <trkpt lat="43.83297" lon="7.24719">
        <ele>557</ele>
        <time>2013-09-01T12:54:10Z</time>
      </trkpt>
      <trkpt lat="43.83291" lon="7.24732">
        <ele>537</ele>
        <time>2013-09-01T12:54:23Z</time>
      </trkpt>
      <trkpt lat="43.8328" lon="7.24735">
        <ele>537</ele>
        <time>2013-09-01T12:54:31Z</time>
      </trkpt>
      <trkpt lat="43.83274" lon="7.24745">
        <ele>529</ele>
        <time>2013-09-01T12:54:40Z</time>
      </trkpt>
      <trkpt lat="43.83265" lon="7.24741">
        <ele>529</ele>
        <time>2013-09-01T12:54:47Z</time>
      </trkpt>
      <trkpt lat="43.83257" lon="7.24751">
        <ele>529</ele>
        <time>2013-09-01T12:54:55Z</time>
      </trkpt>
      <trkpt lat="43.83252" lon="7.24761">
        <ele>524</ele>
        <time>2013-09-01T12:55:03Z</time>
      </trkpt>
      <trkpt lat="43.83243" lon="7.24765">
        <ele>517</ele>
        <time>2013-09-01T12:55:14Z</time>
      </trkpt>
      <trkpt lat="43.83234" lon="7.24772">
        <ele>517</ele>
        <time>2013-09-01T12:55:27Z</time>
      </trkpt>
      <trkpt lat="43.83226" lon="7.24778">
        <ele>511</ele>
        <time>2013-09-01T12:55:34Z</time>
      </trkpt>
      <trkpt lat="43.83221" lon="7.24789">
        <ele>501</ele>
        <time>2013-09-01T12:55:41Z</time>
      </trkpt>
      <trkpt lat="43.83211" lon="7.24788">
        <ele>501</ele>
        <time>2013-09-01T12:55:50Z</time>
      </trkpt>
      <trkpt lat="43.83204" lon="7.24778">
        <ele>513</ele>
        <time>2013-09-01T12:55:54Z</time>
      </trkpt>
      <trkpt lat="43.83194" lon="7.24777">
        <ele>521</ele>
        <time>2013-09-01T12:56:05Z</time>
      </trkpt>
      <trkpt lat="43.83185" lon="7.24781">
        <ele>529</ele>
        <time>2013-09-01T12:56:11Z</time>
      </trkpt>
      <trkpt lat="43.83175" lon="7.24781">
        <ele>529</ele>
        <time>2013-09-01T12:56:21Z</time>
      </trkpt>
      <trkpt lat="43.83166" lon="7.24785">
        <ele>535</ele>
        <time>2013-09-01T12:56:30Z</time>
      </trkpt>
      <trkpt lat="43.83157" lon="7.2479">
        <ele>535</ele>
        <time>2013-09-01T12:56:40Z</time>
      </trkpt>
      <trkpt lat="43.8315" lon="7.24798">
        <ele>535</ele>
        <time>2013-09-01T12:56:51Z</time>
      </trkpt>
      <trkpt lat="43.83146" lon="7.2481">
        <ele>529</ele>
        <time>2013-09-01T12:56:58Z</time>
      </trkpt>
      <trkpt lat="43.83138" lon="7.24814">
        <ele>529</ele>
        <time>2013-09-01T12:57:10Z</time>
      </trkpt>
      <trkpt lat="43.83132" lon="7.24825">
        <ele>529</ele>
        <time>2013-09-01T12:57:20Z</time>
      </trkpt>
      <trkpt lat="43.83122" lon="7.24827">
        <ele>529</ele>
        <time>2013-09-01T12:57:29Z</time>
      </trkpt>
      <trkpt lat="43.83115" lon="7.2482">
        <ele>529</ele>
        <time>2013-09-01T12:57:39Z</time>
      </trkpt>
      <trkpt lat="43.83106" lon="7.24818">
        <ele>540</ele>
        <time>2013-09-01T12:57:45Z</time>
      </trkpt>
      <trkpt lat="43.83096" lon="7.24817">
        <ele>540</ele>
        <time>2013-09-01T12:57:52Z</time>
      </trkpt>
      <trkpt lat="43.83086" lon="7.24817">
        <ele>546</ele>
        <time>2013-09-01T12:57:59Z</time>
      </trkpt>
      <trkpt lat="43.83076" lon="7.24818">
        <ele>552</ele>
        <time>2013-09-01T12:58:08Z</time>
      </trkpt>
      <trkpt lat="43.83067" lon="7.24816">
        <ele>552</ele>
        <time>2013-09-01T12:58:15Z</time>
      </trkpt>
      <trkpt lat="43.83059" lon="7.24822">
        <ele>552</ele>
        <time>2013-09-01T12:58:24Z</time>
      </trkpt>
      <trkpt lat="43.83058" lon="7.24836">
        <ele>540</ele>
        <time>2013-09-01T12:58:28Z</time>
      </trkpt>
      <trkpt lat="43.83057" lon="7.24851">
        <ele>525</ele>
        <time>2013-09-01T12:58:33Z</time>
      </trkpt>
      <trkpt lat="43.83048" lon="7.24858">
        <ele>525</ele>
        <time>2013-09-01T12:58:40Z</time>
      </trkpt>
      <trkpt lat="43.83042" lon="7.24867">
        <ele>525</ele>
        <time>2013-09-01T12:58:47Z</time>
      </trkpt>
      <trkpt lat="43.83037" lon="7.24879">
        <ele>517</ele>
        <time>2013-09-01T12:58:57Z</time>
      </trkpt>
      <trkpt lat="43.83027" lon="7.24881">
        <ele>530</ele>
        <time>2013-09-01T12:59:09Z</time>
      </trkpt>
      <trkpt lat="43.83017" lon="7.24882">
        <ele>530</ele>
        <time>2013-09-01T12:59:18Z</time>
      </trkpt>
      <trkpt lat="43.83007" lon="7.24876">
        <ele>524</ele>
        <time>2013-09-01T12:59:28Z</time>
      </trkpt>
      <trkpt lat="43.83003" lon="7.24864">
        <ele>524</ele>
        <time>2013-09-01T12:59:38Z</time>
      </trkpt>
      <trkpt lat="43.82994" lon="7.2486">
        <ele>524</ele>
        <time>2013-09-01T12:59:45Z</time>
      </trkpt>
      <trkpt lat="43.82984" lon="7.24852">
        <ele>537</ele>
        <time>2013-09-01T12:59:57Z</time>
      </trkpt>
      <trkpt lat="43.82976" lon="7.24849">
        <ele>537</ele>
        <time>2013-09-01T13:00:04Z</time>
      </trkpt>
      <trkpt lat="43.82963" lon="7.2485">
        <ele>537</ele>
        <time>2013-09-01T13:00:16Z</time>
      </trkpt>
      <trkpt lat="43.82952" lon="7.24852">
        <ele>537</ele>
        <time>2013-09-01T13:00:20Z</time>
      </trkpt>
      <trkpt lat="43.82943" lon="7.24845">
        <ele>537</ele>
        <time>2013-09-01T13:00:28Z</time>
      </trkpt>
      <trkpt lat="43.82934" lon="7.24848">
        <ele>544</ele>
        <time>2013-09-01T13:00:37Z</time>
      </trkpt>
      <trkpt lat="43.82925" lon="7.24849">
        <ele>544</ele>
        <time>2013-09-01T13:00:43Z</time>
      </trkpt>
      <trkpt lat="43.82915" lon="7.24855">
        <ele>544</ele>
        <time>2013-09-01T13:00:54Z</time>
      </trkpt>
      <trkpt lat="43.82911" lon="7.24866">
        <ele>531</ele>
        <time>2013-09-01T13:01:01Z</time>
      </trkpt>
      <trkpt lat="43.82904" lon="7.24877">
        <ele>531</ele>
        <time>2013-09-01T13:01:09Z</time>
      </trkpt>
      <trkpt lat="43.82895" lon="7.24884">
        <ele>531</ele>
        <time>2013-09-01T13:01:18Z</time>
      </trkpt>
      <trkpt lat="43.82887" lon="7.2489">
        <ele>531</ele>
        <time>2013-09-01T13:01:26Z</time>
      </trkpt>
      <trkpt lat="43.82882" lon="7.24901">
        <ele>520</ele>
        <time>2013-09-01T13:01:35Z</time>
      </trkpt>
      <trkpt lat="43.82876" lon="7.24913">
        <ele>520</ele>
        <time>2013-09-01T13:01:42Z</time>
      </trkpt>
      <trkpt lat="43.82869" lon="7.24921">
        <ele>520</ele>
        <time>2013-09-01T13:01:49Z</time>
      </trkpt>
      <trkpt lat="43.82863" lon="7.24931">
        <ele>520</ele>
        <time>2013-09-01T13:01:58Z</time>
      </trkpt>
      <trkpt lat="43.82858" lon="7.2494">
        <ele>520</ele>
        <time>2013-09-01T13:02:03Z</time>
      </trkpt>
      <trkpt lat="43.82852" lon="7.24952">
        <ele>520</ele>
        <time>2013-09-01T13:02:14Z</time>
      </trkpt>
      <trkpt lat="43.82843" lon="7.24957">
        <ele>530</ele>
        <time>2013-09-01T13:02:28Z</time>
      </trkpt>
      <trkpt lat="43.82833" lon="7.24955">
        <ele>541</ele>
        <time>2013-09-01T13:02:35Z</time>
      </trkpt>
      <trkpt lat="43.82823" lon="7.24952">
        <ele>541</ele>
        <time>2013-09-01T13:02:48Z</time>
      </trkpt>
      <trkpt lat="43.82813" lon="7.24949">
        <ele>541</ele>
        <time>2013-09-01T13:02:54Z</time>
      </trkpt>
      <trkpt lat="43.82803" lon="7.24944">
        <ele>541</ele>
        <time>2013-09-01T13:03:05Z</time>
      </trkpt>
      <trkpt lat="43.82795" lon="7.24938">
        <ele>541</ele>
        <time>2013-09-01T13:03:11Z</time>
      </trkpt>
      <trkpt lat="43.82788" lon="7.24931">
        <ele>550</ele>
        <time>2013-09-01T13:03:18Z</time>
      </trkpt>
      <trkpt lat="43.82779" lon="7.24932">
        <ele>550</ele>
        <time>2013-09-01T13:03:25Z</time>
      </trkpt>
      <trkpt lat="43.8277" lon="7.2493">
        <ele>550</ele>
        <time>2013-09-01T13:03:31Z</time>
      </trkpt>
      <trkpt lat="43.82761" lon="7.24933">
        <ele>550</ele>
        <time>2013-09-01T13:03:38Z</time>
      </trkpt>
      <trkpt lat="43.82753" lon="7.2494">
        <ele>540</ele>
        <time>2013-09-01T13:03:44Z</time>
      </trkpt>
      <trkpt lat="43.8275" lon="7.24952">
        <ele>523</ele>
        <time>2013-09-01T13:03:58Z</time>
      </trkpt>
      <trkpt lat="43.82755" lon="7.24963">
        <ele>523</ele>
        <time>2013-09-01T13:04:29Z</time>
      </trkpt>
      <trkpt lat="43.8275" lon="7.24953">
        <ele>523</ele>
        <time>2013-09-01T13:05:00Z</time>
      </trkpt>
      <trkpt lat="43.8275" lon="7.24966">
        <ele>529</ele>
        <time>2013-09-01T13:06:09Z</time>
      </trkpt>
      <trkpt lat="43.82741" lon="7.24968">
        <ele>529</ele>
        <time>2013-09-01T13:06:37Z</time>
      </trkpt>
      <trkpt lat="43.82732" lon="7.2497">
        <ele>529</ele>
        <time>2013-09-01T13:06:52Z</time>
      </trkpt>
      <trkpt lat="43.82723" lon="7.24976">
        <ele>529</ele>
        <time>2013-09-01T13:07:03Z</time>
      </trkpt>
      <trkpt lat="43.82714" lon="7.2498">
        <ele>529</ele>
        <time>2013-09-01T13:07:13Z</time>
      </trkpt>
      <trkpt lat="43.82711" lon="7.24993">
        <ele>529</ele>
        <time>2013-09-01T13:07:25Z</time>
      </trkpt>
      <trkpt lat="43.82702" lon="7.24999">
        <ele>529</ele>
        <time>2013-09-01T13:07:35Z</time>
      </trkpt>
      <trkpt lat="43.82694" lon="7.25006">
        <ele>535</ele>
        <time>2013-09-01T13:07:45Z</time>
      </trkpt>
      <trkpt lat="43.82686" lon="7.25011">
        <ele>535</ele>
        <time>2013-09-01T13:07:55Z</time>
      </trkpt>
      <trkpt lat="43.82679" lon="7.2502">
        <ele>535</ele>
        <time>2013-09-01T13:08:07Z</time>
      </trkpt>
      <trkpt lat="43.82672" lon="7.25028">
        <ele>535</ele>
        <time>2013-09-01T13:08:20Z</time>
      </trkpt>
      <trkpt lat="43.82663" lon="7.25032">
        <ele>535</ele>
        <time>2013-09-01T13:08:32Z</time>
      </trkpt>
      <trkpt lat="43.82655" lon="7.25039">
        <ele>535</ele>
        <time>2013-09-01T13:08:41Z</time>
      </trkpt>
      <trkpt lat="43.82647" lon="7.25046">
        <ele>535</ele>
        <time>2013-09-01T13:08:51Z</time>
      </trkpt>
      <trkpt lat="43.8264" lon="7.25054">
        <ele>535</ele>
        <time>2013-09-01T13:09:02Z</time>
      </trkpt>
      <trkpt lat="43.82636" lon="7.25064">
        <ele>541</ele>
        <time>2013-09-01T13:09:13Z</time>
      </trkpt>
      <trkpt lat="43.82629" lon="7.25073">
        <ele>541</ele>
        <time>2013-09-01T13:09:25Z</time>
      </trkpt>
      <trkpt lat="43.82623" lon="7.25083">
        <ele>541</ele>
        <time>2013-09-01T13:09:36Z</time>
      </trkpt>
      <trkpt lat="43.82615" lon="7.25088">
        <ele>541</ele>
        <time>2013-09-01T13:09:46Z</time>
      </trkpt>
      <trkpt lat="43.82608" lon="7.25096">
        <ele>541</ele>
        <time>2013-09-01T13:09:56Z</time>
      </trkpt>
      <trkpt lat="43.82599" lon="7.25102">
        <ele>541</ele>
        <time>2013-09-01T13:10:08Z</time>
      </trkpt>
      <trkpt lat="43.82591" lon="7.25109">
        <ele>546</ele>
        <time>2013-09-01T13:10:20Z</time>
      </trkpt>
      <trkpt lat="43.82583" lon="7.25117">
        <ele>546</ele>
        <time>2013-09-01T13:10:30Z</time>
      </trkpt>
      <trkpt lat="43.82576" lon="7.25126">
        <ele>546</ele>
        <time>2013-09-01T13:10:41Z</time>
      </trkpt>
      <trkpt lat="43.82567" lon="7.25129">
        <ele>552</ele>
        <time>2013-09-01T13:10:50Z</time>
      </trkpt>
      <trkpt lat="43.82558" lon="7.25129">
        <ele>552</ele>
        <time>2013-09-01T13:10:58Z</time>
      </trkpt>
      <trkpt lat="43.82549" lon="7.25135">
        <ele>560</ele>
        <time>2013-09-01T13:11:09Z</time>
      </trkpt>
      <trkpt lat="43.82546" lon="7.25147">
        <ele>553</ele>
        <time>2013-09-01T13:11:17Z</time>
      </trkpt>
      <trkpt lat="43.82539" lon="7.25154">
        <ele>553</ele>
        <time>2013-09-01T13:11:28Z</time>
      </trkpt>
      <trkpt lat="43.82529" lon="7.25157">
        <ele>553</ele>
        <time>2013-09-01T13:11:40Z</time>
      </trkpt>
      <trkpt lat="43.82519" lon="7.25158">
        <ele>560</ele>
        <time>2013-09-01T13:11:47Z</time>
      </trkpt>
      <trkpt lat="43.8251" lon="7.25161">
        <ele>560</ele>
        <time>2013-09-01T13:11:54Z</time>
      </trkpt>
      <trkpt lat="43.82502" lon="7.25167">
        <ele>560</ele>
        <time>2013-09-01T13:12:03Z</time>
      </trkpt>
      <trkpt lat="43.82494" lon="7.25173">
        <ele>560</ele>
        <time>2013-09-01T13:12:12Z</time>
      </trkpt>
      <trkpt lat="43.82489" lon="7.25186">
        <ele>560</ele>
        <time>2013-09-01T13:12:21Z</time>
      </trkpt>
      <trkpt lat="43.82481" lon="7.25191">
        <ele>560</ele>
        <time>2013-09-01T13:12:30Z</time>
      </trkpt>
      <trkpt lat="43.82475" lon="7.25202">
        <ele>560</ele>
        <time>2013-09-01T13:12:40Z</time>
      </trkpt>
      <trkpt lat="43.8247" lon="7.25212">
        <ele>560</ele>
        <time>2013-09-01T13:12:53Z</time>
      </trkpt>
      <trkpt lat="43.82461" lon="7.25209">
        <ele>560</ele>
        <time>2013-09-01T13:13:00Z</time>
      </trkpt>
      <trkpt lat="43.82452" lon="7.25213">
        <ele>560</ele>
        <time>2013-09-01T13:13:10Z</time>
      </trkpt>
      <trkpt lat="43.82443" lon="7.25216">
        <ele>560</ele>
        <time>2013-09-01T13:13:21Z</time>
      </trkpt>
      <trkpt lat="43.82434" lon="7.25219">
        <ele>560</ele>
        <time>2013-09-01T13:13:27Z</time>
      </trkpt>
      <trkpt lat="43.82427" lon="7.25226">
        <ele>560</ele>
        <time>2013-09-01T13:13:36Z</time>
      </trkpt>
      <trkpt lat="43.82419" lon="7.2523">
        <ele>560</ele>
        <time>2013-09-01T13:13:43Z</time>
      </trkpt>
      <trkpt lat="43.82411" lon="7.2524">
        <ele>560</ele>
        <time>2013-09-01T13:13:52Z</time>
      </trkpt>
      <trkpt lat="43.82404" lon="7.25247">
        <ele>560</ele>
        <time>2013-09-01T13:14:00Z</time>
      </trkpt>
      <trkpt lat="43.82394" lon="7.25248">
        <ele>567</ele>
        <time>2013-09-01T13:14:09Z</time>
      </trkpt>
      <trkpt lat="43.82385" lon="7.25248">
        <ele>567</ele>
        <time>2013-09-01T13:14:16Z</time>
      </trkpt>
      <trkpt lat="43.82376" lon="7.25252">
        <ele>567</ele>
        <time>2013-09-01T13:14:24Z</time>
      </trkpt>
      <trkpt lat="43.82368" lon="7.25258">
        <ele>567</ele>
        <time>2013-09-01T13:14:32Z</time>
      </trkpt>
      <trkpt lat="43.82359" lon="7.25263">
        <ele>567</ele>
        <time>2013-09-01T13:14:40Z</time>
      </trkpt>
      <trkpt lat="43.8235" lon="7.25268">
        <ele>567</ele>
        <time>2013-09-01T13:14:49Z</time>
      </trkpt>
      <trkpt lat="43.82342" lon="7.25276">
        <ele>567</ele>
        <time>2013-09-01T13:14:57Z</time>
      </trkpt>
      <trkpt lat="43.82333" lon="7.25282">
        <ele>561</ele>
        <time>2013-09-01T13:15:07Z</time>
      </trkpt>
      <trkpt lat="43.82324" lon="7.25288">
        <ele>561</ele>
        <time>2013-09-01T13:15:17Z</time>
      </trkpt>
      <trkpt lat="43.82316" lon="7.25294">
        <ele>561</ele>
        <time>2013-09-01T13:15:24Z</time>
      </trkpt>
      <trkpt lat="43.82308" lon="7.253">
        <ele>561</ele>
        <time>2013-09-01T13:15:31Z</time>
      </trkpt>
      <trkpt lat="43.823" lon="7.25306">
        <ele>561</ele>
        <time>2013-09-01T13:15:39Z</time>
      </trkpt>
      <trkpt lat="43.8229" lon="7.25312">
        <ele>561</ele>
        <time>2013-09-01T13:15:47Z</time>
      </trkpt>
      <trkpt lat="43.82282" lon="7.25318">
        <ele>561</ele>
        <time>2013-09-01T13:15:55Z</time>
      </trkpt>
      <trkpt lat="43.82274" lon="7.25323">
        <ele>561</ele>
        <time>2013-09-01T13:16:02Z</time>
      </trkpt>
      <trkpt lat="43.82265" lon="7.25328">
        <ele>568</ele>
        <time>2013-09-01T13:16:09Z</time>
      </trkpt>
      <trkpt lat="43.82257" lon="7.25334">
        <ele>568</ele>
        <time>2013-09-01T13:16:17Z</time>
      </trkpt>
      <trkpt lat="43.82251" lon="7.25344">
        <ele>568</ele>
        <time>2013-09-01T13:16:25Z</time>
      </trkpt>
      <trkpt lat="43.82244" lon="7.25351">
        <ele>568</ele>
        <time>2013-09-01T13:16:32Z</time>
      </trkpt>
      <trkpt lat="43.82237" lon="7.2536">
        <ele>568</ele>
        <time>2013-09-01T13:16:40Z</time>
      </trkpt>
      <trkpt lat="43.82231" lon="7.2537">
        <ele>568</ele>
        <time>2013-09-01T13:16:47Z</time>
      </trkpt>
      <trkpt lat="43.82223" lon="7.25376">
        <ele>568</ele>
        <time>2013-09-01T13:16:55Z</time>
      </trkpt>
      <trkpt lat="43.82217" lon="7.25385">
        <ele>568</ele>
        <time>2013-09-01T13:17:03Z</time>
      </trkpt>
      <trkpt lat="43.82209" lon="7.25392">
        <ele>568</ele>
        <time>2013-09-01T13:17:11Z</time>
      </trkpt>
      <trkpt lat="43.82201" lon="7.25398">
        <ele>568</ele>
        <time>2013-09-01T13:17:19Z</time>
      </trkpt>
      <trkpt lat="43.8219" lon="7.25401">
        <ele>568</ele>
        <time>2013-09-01T13:17:27Z</time>
      </trkpt>
      <trkpt lat="43.82182" lon="7.25405">
        <ele>568</ele>
        <time>2013-09-01T13:17:35Z</time>
      </trkpt>
      <trkpt lat="43.82173" lon="7.2541">
        <ele>568</ele>
        <time>2013-09-01T13:17:43Z</time>
      </trkpt>
      <trkpt lat="43.82164" lon="7.25417">
        <ele>568</ele>
        <time>2013-09-01T13:17:51Z</time>
      </trkpt>
      <trkpt lat="43.82159" lon="7.25427">
        <ele>568</ele>
        <time>2013-09-01T13:17:59Z</time>
      </trkpt>
      <trkpt lat="43.82151" lon="7.25436">
        <ele>568</ele>
        <time>2013-09-01T13:18:08Z</time>
      </trkpt>
      <trkpt lat="43.82143" lon="7.25443">
        <ele>568</ele>
        <time>2013-09-01T13:18:16Z</time>
      </trkpt>
      <trkpt lat="43.82136" lon="7.2545">
        <ele>568</ele>
        <time>2013-09-01T13:18:24Z</time>
      </trkpt>
      <trkpt lat="43.82128" lon="7.25457">
        <ele>568</ele>
        <time>2013-09-01T13:18:33Z</time>
      </trkpt>
      <trkpt lat="43.82119" lon="7.25461">
        <ele>568</ele>
        <time>2013-09-01T13:18:40Z</time>
      </trkpt>
      <trkpt lat="43.82115" lon="7.25471">
        <ele>568</ele>
        <time>2013-09-01T13:18:48Z</time>
      </trkpt>
      <trkpt lat="43.82106" lon="7.25479">
        <ele>568</ele>
        <time>2013-09-01T13:18:56Z</time>
      </trkpt>
      <trkpt lat="43.82099" lon="7.25488">
        <ele>559</ele>
        <time>2013-09-01T13:19:04Z</time>
      </trkpt>
      <trkpt lat="43.82091" lon="7.25493">
        <ele>559</ele>
        <time>2013-09-01T13:19:13Z</time>
      </trkpt>
      <trkpt lat="43.82085" lon="7.25503">
        <ele>559</ele>
        <time>2013-09-01T13:19:21Z</time>
      </trkpt>
      <trkpt lat="43.82075" lon="7.25505">
        <ele>559</ele>
        <time>2013-09-01T13:19:30Z</time>
      </trkpt>
      <trkpt lat="43.82066" lon="7.25508">
        <ele>559</ele>
        <time>2013-09-01T13:19:37Z</time>
      </trkpt>
      <trkpt lat="43.8206" lon="7.25519">
        <ele>559</ele>
        <time>2013-09-01T13:19:47Z</time>
      </trkpt>
      <trkpt lat="43.82051" lon="7.25522">
        <ele>559</ele>
        <time>2013-09-01T13:19:55Z</time>
      </trkpt>
      <trkpt lat="43.82045" lon="7.25532">
        <ele>559</ele>
        <time>2013-09-01T13:20:06Z</time>
      </trkpt>
      <trkpt lat="43.82035" lon="7.25536">
        <ele>565</ele>
        <time>2013-09-01T13:20:13Z</time>
      </trkpt>
      <trkpt lat="43.82027" lon="7.25544">
        <ele>565</ele>
        <time>2013-09-01T13:20:20Z</time>
      </trkpt>
      <trkpt lat="43.8202" lon="7.25551">
        <ele>565</ele>
        <time>2013-09-01T13:20:27Z</time>
      </trkpt>
      <trkpt lat="43.82012" lon="7.25558">
        <ele>565</ele>
        <time>2013-09-01T13:20:35Z</time>
      </trkpt>
      <trkpt lat="43.82004" lon="7.25568">
        <ele>565</ele>
        <time>2013-09-01T13:20:47Z</time>
      </trkpt>
      <trkpt lat="43.81994" lon="7.25574">
        <ele>565</ele>
        <time>2013-09-01T13:20:55Z</time>
      </trkpt>
      <trkpt lat="43.81986" lon="7.2557">
        <ele>565</ele>
        <time>2013-09-01T13:21:07Z</time>
      </trkpt>
      <trkpt lat="43.81982" lon="7.25559">
        <ele>565</ele>
        <time>2013-09-01T13:22:05Z</time>
      </trkpt>
      <trkpt lat="43.81974" lon="7.25554">
        <ele>565</ele>
        <time>2013-09-01T13:22:13Z</time>
      </trkpt>
      <trkpt lat="43.81965" lon="7.25555">
        <ele>565</ele>
        <time>2013-09-01T13:22:55Z</time>
      </trkpt>
      <trkpt lat="43.81955" lon="7.25556">
        <ele>565</ele>
        <time>2013-09-01T13:23:06Z</time>
      </trkpt>
      <trkpt lat="43.81968" lon="7.25558">
        <ele>572</ele>
        <time>2013-09-01T13:23:19Z</time>
      </trkpt>
      <trkpt lat="43.81959" lon="7.25559">
        <ele>572</ele>
        <time>2013-09-01T13:23:32Z</time>
      </trkpt>
      <trkpt lat="43.81969" lon="7.25563">
        <ele>572</ele>
        <time>2013-09-01T13:23:39Z</time>
      </trkpt>
      <trkpt lat="43.81965" lon="7.25552">
        <ele>572</ele>
        <time>2013-09-01T13:23:48Z</time>
      </trkpt>
      <trkpt lat="43.81974" lon="7.25558">
        <ele>565</ele>
        <time>2013-09-01T13:23:59Z</time>
      </trkpt>
      <trkpt lat="43.81984" lon="7.25558">
        <ele>565</ele>
        <time>2013-09-01T13:24:02Z</time>
      </trkpt>
      <trkpt lat="43.81973" lon="7.25558">
        <ele>560</ele>
        <time>2013-09-01T13:24:12Z</time>
      </trkpt>
      <trkpt lat="43.81963" lon="7.25554">
        <ele>560</ele>
        <time>2013-09-01T13:24:24Z</time>
      </trkpt>
      <trkpt lat="43.81977" lon="7.2556">
        <ele>560</ele>
        <time>2013-09-01T13:24:37Z</time>
      </trkpt>
      <trkpt lat="43.81986" lon="7.25562">
        <ele>566</ele>
        <time>2013-09-01T13:24:42Z</time>
      </trkpt>
      <trkpt lat="43.81976" lon="7.2556">
        <ele>566</ele>
        <time>2013-09-01T13:24:46Z</time>
      </trkpt>
      <trkpt lat="43.81985" lon="7.25557">
        <ele>566</ele>
        <time>2013-09-01T13:25:03Z</time>
      </trkpt>
      <trkpt lat="43.81976" lon="7.25557">
        <ele>566</ele>
        <time>2013-09-01T13:25:13Z</time>
      </trkpt>
      <trkpt lat="43.81966" lon="7.25555">
        <ele>566</ele>
        <time>2013-09-01T13:25:18Z</time>
      </trkpt>
      <trkpt lat="43.81957" lon="7.2555">
        <ele>571</ele>
        <time>2013-09-01T13:25:48Z</time>
      </trkpt>
      <trkpt lat="43.81946" lon="7.2555">
        <ele>577</ele>
        <time>2013-09-01T13:25:57Z</time>
      </trkpt>
      <trkpt lat="43.81957" lon="7.25557">
        <ele>567</ele>
        <time>2013-09-01T13:26:02Z</time>
      </trkpt>
      <trkpt lat="43.81966" lon="7.25568">
        <ele>559</ele>
        <time>2013-09-01T13:26:13Z</time>
      </trkpt>
      <trkpt lat="43.81961" lon="7.25558">
        <ele>584</ele>
        <time>2013-09-01T13:26:25Z</time>
      </trkpt>
      <trkpt lat="43.81952" lon="7.25557">
        <ele>569</ele>
        <time>2013-09-01T13:28:31Z</time>
      </trkpt>
      <trkpt lat="43.81963" lon="7.25559">
        <ele>569</ele>
        <time>2013-09-01T13:28:37Z</time>
      </trkpt>
      <trkpt lat="43.81955" lon="7.25554">
        <ele>569</ele>
        <time>2013-09-01T13:29:06Z</time>
      </trkpt>
      <trkpt lat="43.81944" lon="7.25554">
        <ele>569</ele>
        <time>2013-09-01T13:29:17Z</time>
      </trkpt>
      <trkpt lat="43.81933" lon="7.25552">
        <ele>569</ele>
        <time>2013-09-01T13:29:19Z</time>
      </trkpt>
      <trkpt lat="43.81945" lon="7.25557">
        <ele>569</ele>
        <time>2013-09-01T13:29:26Z</time>
      </trkpt>
      <trkpt lat="43.81954" lon="7.25556">
        <ele>569</ele>
        <time>2013-09-01T13:29:34Z</time>
      </trkpt>
      <trkpt lat="43.81963" lon="7.25559">
        <ele>563</ele>
        <time>2013-09-01T13:29:40Z</time>
      </trkpt>
      <trkpt lat="43.8196" lon="7.25547">
        <ele>563</ele>
        <time>2013-09-01T13:30:04Z</time>
      </trkpt>
      <trkpt lat="43.81957" lon="7.25534">
        <ele>571</ele>
        <time>2013-09-01T13:30:26Z</time>
      </trkpt>
      <trkpt lat="43.81948" lon="7.25529">
        <ele>571</ele>
        <time>2013-09-01T13:30:29Z</time>
      </trkpt>
      <trkpt lat="43.81955" lon="7.25521">
        <ele>581</ele>
        <time>2013-09-01T13:30:37Z</time>
      </trkpt>
      <trkpt lat="43.81946" lon="7.25514">
        <ele>590</ele>
        <time>2013-09-01T13:30:46Z</time>
      </trkpt>
      <trkpt lat="43.81955" lon="7.25518">
        <ele>585</ele>
        <time>2013-09-01T13:31:02Z</time>
      </trkpt>
      <trkpt lat="43.81965" lon="7.25524">
        <ele>576</ele>
        <time>2013-09-01T13:31:07Z</time>
      </trkpt>
      <trkpt lat="43.81955" lon="7.25517">
        <ele>576</ele>
        <time>2013-09-01T13:31:25Z</time>
      </trkpt>
      <trkpt lat="43.81965" lon="7.25516">
        <ele>570</ele>
        <time>2013-09-01T13:31:31Z</time>
      </trkpt>
      <trkpt lat="43.81961" lon="7.25505">
        <ele>576</ele>
        <time>2013-09-01T13:31:42Z</time>
      </trkpt>
      <trkpt lat="43.81827" lon="7.25456">
        <ele>596</ele>
        <time>2013-09-01T13:34:49Z</time>
      </trkpt>
      <trkpt lat="43.81818" lon="7.25443">
        <ele>596</ele>
        <time>2013-09-01T13:35:21Z</time>
      </trkpt>
      <trkpt lat="43.81807" lon="7.25451">
        <ele>596</ele>
        <time>2013-09-01T13:35:34Z</time>
      </trkpt>
      <trkpt lat="43.81795" lon="7.25446">
        <ele>602</ele>
        <time>2013-09-01T13:35:42Z</time>
      </trkpt>
      <trkpt lat="43.81784" lon="7.25439">
        <ele>602</ele>
        <time>2013-09-01T13:35:47Z</time>
      </trkpt>
      <trkpt lat="43.81775" lon="7.25441">
        <ele>602</ele>
        <time>2013-09-01T13:35:55Z</time>
      </trkpt>
      <trkpt lat="43.81761" lon="7.25439">
        <ele>602</ele>
        <time>2013-09-01T13:36:02Z</time>
      </trkpt>
      <trkpt lat="43.81753" lon="7.25445">
        <ele>602</ele>
        <time>2013-09-01T13:36:20Z</time>
      </trkpt>
      <trkpt lat="43.81743" lon="7.25443">
        <ele>602</ele>
        <time>2013-09-01T13:36:32Z</time>
      </trkpt>
      <trkpt lat="43.81732" lon="7.25439">
        <ele>609</ele>
        <time>2013-09-01T13:36:47Z</time>
      </trkpt>
      <trkpt lat="43.81724" lon="7.25435">
        <ele>615</ele>
        <time>2013-09-01T13:36:56Z</time>
      </trkpt>
      <trkpt lat="43.81715" lon="7.25434">
        <ele>615</ele>
        <time>2013-09-01T13:37:05Z</time>
      </trkpt>
      <trkpt lat="43.8171" lon="7.25444">
        <ele>615</ele>
        <time>2013-09-01T13:37:19Z</time>
      </trkpt>
      <trkpt lat="43.81717" lon="7.25454">
        <ele>615</ele>
        <time>2013-09-01T13:37:29Z</time>
      </trkpt>
      <trkpt lat="43.81721" lon="7.25465">
        <ele>607</ele>
        <time>2013-09-01T13:37:58Z</time>
      </trkpt>
      <trkpt lat="43.81713" lon="7.25462">
        <ele>607</ele>
        <time>2013-09-01T13:38:24Z</time>
      </trkpt>
      <trkpt lat="43.81704" lon="7.25458">
        <ele>607</ele>
        <time>2013-09-01T13:39:18Z</time>
      </trkpt>
      <trkpt lat="43.81697" lon="7.25452">
        <ele>612</ele>
        <time>2013-09-01T13:39:30Z</time>
      </trkpt>
      <trkpt lat="43.81688" lon="7.25446">
        <ele>612</ele>
        <time>2013-09-01T13:39:42Z</time>
      </trkpt>
      <trkpt lat="43.81682" lon="7.25436">
        <ele>612</ele>
        <time>2013-09-01T13:39:56Z</time>
      </trkpt>
      <trkpt lat="43.81675" lon="7.25429">
        <ele>612</ele>
        <time>2013-09-01T13:40:12Z</time>
      </trkpt>
      <trkpt lat="43.81668" lon="7.25421">
        <ele>612</ele>
        <time>2013-09-01T13:40:22Z</time>
      </trkpt>
      <trkpt lat="43.81662" lon="7.25409">
        <ele>612</ele>
        <time>2013-09-01T13:40:37Z</time>
      </trkpt>
      <trkpt lat="43.81654" lon="7.25404">
        <ele>619</ele>
        <time>2013-09-01T13:40:55Z</time>
      </trkpt>
      <trkpt lat="43.81646" lon="7.25397">
        <ele>619</ele>
        <time>2013-09-01T13:41:04Z</time>
      </trkpt>
      <trkpt lat="43.81638" lon="7.2539">
        <ele>619</ele>
        <time>2013-09-01T13:41:21Z</time>
      </trkpt>
      <trkpt lat="43.81631" lon="7.2538">
        <ele>627</ele>
        <time>2013-09-01T13:41:46Z</time>
      </trkpt>
      <trkpt lat="43.81622" lon="7.25376">
        <ele>627</ele>
        <time>2013-09-01T13:41:57Z</time>
      </trkpt>
      <trkpt lat="43.81615" lon="7.2537">
        <ele>627</ele>
        <time>2013-09-01T13:42:16Z</time>
      </trkpt>
      <trkpt lat="43.81606" lon="7.25364">
        <ele>632</ele>
        <time>2013-09-01T13:42:36Z</time>
      </trkpt>
      <trkpt lat="43.81598" lon="7.25358">
        <ele>632</ele>
        <time>2013-09-01T13:43:00Z</time>
      </trkpt>
      <trkpt lat="43.81593" lon="7.25348">
        <ele>639</ele>
        <time>2013-09-01T13:43:24Z</time>
      </trkpt>
      <trkpt lat="43.81585" lon="7.25345">
        <ele>639</ele>
        <time>2013-09-01T13:43:34Z</time>
      </trkpt>
      <trkpt lat="43.81576" lon="7.25338">
        <ele>646</ele>
        <time>2013-09-01T13:44:10Z</time>
      </trkpt>
      <trkpt lat="43.81567" lon="7.25336">
        <ele>646</ele>
        <time>2013-09-01T13:44:30Z</time>
      </trkpt>
      <trkpt lat="43.81557" lon="7.25334">
        <ele>646</ele>
        <time>2013-09-01T13:44:53Z</time>
      </trkpt>
      <trkpt lat="43.81548" lon="7.25339">
        <ele>646</ele>
        <time>2013-09-01T13:45:14Z</time>
      </trkpt>
      <trkpt lat="43.81537" lon="7.25342">
        <ele>652</ele>
        <time>2013-09-01T13:45:26Z</time>
      </trkpt>
      <trkpt lat="43.81528" lon="7.25346">
        <ele>652</ele>
        <time>2013-09-01T13:45:37Z</time>
      </trkpt>
      <trkpt lat="43.8152" lon="7.2535">
        <ele>652</ele>
        <time>2013-09-01T13:45:53Z</time>
      </trkpt>
      <trkpt lat="43.81511" lon="7.25353">
        <ele>660</ele>
        <time>2013-09-01T13:46:14Z</time>
      </trkpt>
      <trkpt lat="43.81503" lon="7.2536">
        <ele>660</ele>
        <time>2013-09-01T13:46:35Z</time>
      </trkpt>
      <trkpt lat="43.81494" lon="7.2536">
        <ele>665</ele>
        <time>2013-09-01T13:46:45Z</time>
      </trkpt>
      <trkpt lat="43.81486" lon="7.25367">
        <ele>665</ele>
        <time>2013-09-01T13:47:05Z</time>
      </trkpt>
      <trkpt lat="43.81478" lon="7.25372">
        <ele>665</ele>
        <time>2013-09-01T13:47:26Z</time>
      </trkpt>
      <trkpt lat="43.81469" lon="7.25374">
        <ele>671</ele>
        <time>2013-09-01T13:47:39Z</time>
      </trkpt>
      <trkpt lat="43.8146" lon="7.25378">
        <ele>671</ele>
        <time>2013-09-01T13:47:52Z</time>
      </trkpt>
      <trkpt lat="43.81452" lon="7.25384">
        <ele>671</ele>
        <time>2013-09-01T13:48:06Z</time>
      </trkpt>
      <trkpt lat="43.81443" lon="7.25387">
        <ele>671</ele>
        <time>2013-09-01T13:48:19Z</time>
      </trkpt>
      <trkpt lat="43.81438" lon="7.25398">
        <ele>671</ele>
        <time>2013-09-01T13:49:07Z</time>
      </trkpt>
      <trkpt lat="43.8143" lon="7.25393">
        <ele>671</ele>
        <time>2013-09-01T13:49:43Z</time>
      </trkpt>
      <trkpt lat="43.81419" lon="7.2539">
        <ele>671</ele>
        <time>2013-09-01T13:49:50Z</time>
      </trkpt>
      <trkpt lat="43.8141" lon="7.25388">
        <ele>671</ele>
        <time>2013-09-01T13:49:58Z</time>
      </trkpt>
      <trkpt lat="43.81401" lon="7.25384">
        <ele>671</ele>
        <time>2013-09-01T13:50:05Z</time>
      </trkpt>
      <trkpt lat="43.81392" lon="7.25382">
        <ele>671</ele>
        <time>2013-09-01T13:50:14Z</time>
      </trkpt>
      <trkpt lat="43.81382" lon="7.25385">
        <ele>671</ele>
        <time>2013-09-01T13:50:37Z</time>
      </trkpt>
      <trkpt lat="43.81373" lon="7.25386">
        <ele>671</ele>
        <time>2013-09-01T13:51:15Z</time>
      </trkpt>
      <trkpt lat="43.81364" lon="7.25384">
        <ele>671</ele>
        <time>2013-09-01T13:51:24Z</time>
      </trkpt>
      <trkpt lat="43.81355" lon="7.25381">
        <ele>671</ele>
        <time>2013-09-01T13:51:31Z</time>
      </trkpt>
      <trkpt lat="43.81345" lon="7.25378">
        <ele>671</ele>
        <time>2013-09-01T13:51:39Z</time>
      </trkpt>
      <trkpt lat="43.81336" lon="7.25373">
        <ele>671</ele>
        <time>2013-09-01T13:51:47Z</time>
      </trkpt>
      <trkpt lat="43.81327" lon="7.25371">
        <ele>671</ele>
        <time>2013-09-01T13:52:01Z</time>
      </trkpt>
      <trkpt lat="43.81318" lon="7.25366">
        <ele>671</ele>
        <time>2013-09-01T13:52:09Z</time>
      </trkpt>
      <trkpt lat="43.81308" lon="7.25363">
        <ele>671</ele>
        <time>2013-09-01T13:52:25Z</time>
      </trkpt>
      <trkpt lat="43.81298" lon="7.2536">
        <ele>671</ele>
        <time>2013-09-01T13:52:33Z</time>
      </trkpt>
      <trkpt lat="43.81288" lon="7.25356">
        <ele>671</ele>
        <time>2013-09-01T13:52:42Z</time>
      </trkpt>
      <trkpt lat="43.8128" lon="7.25351">
        <ele>676</ele>
        <time>2013-09-01T13:53:03Z</time>
      </trkpt>
      <trkpt lat="43.81271" lon="7.25351">
        <ele>676</ele>
        <time>2013-09-01T13:53:28Z</time>
      </trkpt>
      <trkpt lat="43.81262" lon="7.25347">
        <ele>676</ele>
        <time>2013-09-01T13:53:37Z</time>
      </trkpt>
      <trkpt lat="43.81254" lon="7.25339">
        <ele>684</ele>
        <time>2013-09-01T13:54:16Z</time>
      </trkpt>
      <trkpt lat="43.81245" lon="7.25335">
        <ele>689</ele>
        <time>2013-09-01T13:54:30Z</time>
      </trkpt>
      <trkpt lat="43.81235" lon="7.25336">
        <ele>689</ele>
        <time>2013-09-01T13:54:44Z</time>
      </trkpt>
      <trkpt lat="43.81227" lon="7.25331">
        <ele>689</ele>
        <time>2013-09-01T13:55:12Z</time>
      </trkpt>
      <trkpt lat="43.81218" lon="7.25327">
        <ele>689</ele>
        <time>2013-09-01T13:55:24Z</time>
      </trkpt>
      <trkpt lat="43.81209" lon="7.25323">
        <ele>689</ele>
        <time>2013-09-01T13:55:30Z</time>
      </trkpt>
      <trkpt lat="43.812" lon="7.25321">
        <ele>689</ele>
        <time>2013-09-01T13:55:39Z</time>
      </trkpt>
      <trkpt lat="43.8119" lon="7.2532">
        <ele>689</ele>
        <time>2013-09-01T13:55:53Z</time>
      </trkpt>
      <trkpt lat="43.81182" lon="7.25313">
        <ele>689</ele>
        <time>2013-09-01T13:56:12Z</time>
      </trkpt>
      <trkpt lat="43.81172" lon="7.25311">
        <ele>689</ele>
        <time>2013-09-01T13:56:23Z</time>
      </trkpt>
      <trkpt lat="43.81164" lon="7.25307">
        <ele>689</ele>
        <time>2013-09-01T13:56:47Z</time>
      </trkpt>
      <trkpt lat="43.81155" lon="7.25299">
        <ele>698</ele>
        <time>2013-09-01T13:56:59Z</time>
      </trkpt>
      <trkpt lat="43.81148" lon="7.2529">
        <ele>698</ele>
        <time>2013-09-01T13:57:14Z</time>
      </trkpt>
      <trkpt lat="43.8114" lon="7.25285">
        <ele>698</ele>
        <time>2013-09-01T13:57:27Z</time>
      </trkpt>
      <trkpt lat="43.81131" lon="7.2528">
        <ele>698</ele>
        <time>2013-09-01T13:57:38Z</time>
      </trkpt>
      <trkpt lat="43.81122" lon="7.25276">
        <ele>698</ele>
        <time>2013-09-01T13:57:48Z</time>
      </trkpt>
      <trkpt lat="43.81112" lon="7.25276">
        <ele>698</ele>
        <time>2013-09-01T13:58:03Z</time>
      </trkpt>
      <trkpt lat="43.81107" lon="7.25265">
        <ele>705</ele>
        <time>2013-09-01T13:58:27Z</time>
      </trkpt>
      <trkpt lat="43.81102" lon="7.25255">
        <ele>705</ele>
        <time>2013-09-01T13:58:48Z</time>
      </trkpt>
      <trkpt lat="43.81092" lon="7.2525">
        <ele>710</ele>
        <time>2013-09-01T13:58:59Z</time>
      </trkpt>
      <trkpt lat="43.81083" lon="7.25246">
        <ele>710</ele>
        <time>2013-09-01T13:59:08Z</time>
      </trkpt>
      <trkpt lat="43.81074" lon="7.25244">
        <ele>710</ele>
        <time>2013-09-01T13:59:27Z</time>
      </trkpt>
      <trkpt lat="43.81066" lon="7.25237">
        <ele>710</ele>
        <time>2013-09-01T13:59:36Z</time>
      </trkpt>
      <trkpt lat="43.81058" lon="7.25226">
        <ele>710</ele>
        <time>2013-09-01T14:00:05Z</time>
      </trkpt>
      <trkpt lat="43.81051" lon="7.25216">
        <ele>717</ele>
        <time>2013-09-01T14:00:22Z</time>
      </trkpt>
      <trkpt lat="43.81044" lon="7.25208">
        <ele>717</ele>
        <time>2013-09-01T14:00:32Z</time>
      </trkpt>
      <trkpt lat="43.81037" lon="7.25201">
        <ele>717</ele>
        <time>2013-09-01T14:00:40Z</time>
      </trkpt>
      <trkpt lat="43.81029" lon="7.25195">
        <ele>717</ele>
        <time>2013-09-01T14:00:55Z</time>
      </trkpt>
      <trkpt lat="43.81025" lon="7.25184">
        <ele>717</ele>
        <time>2013-09-01T14:01:08Z</time>
      </trkpt>
      <trkpt lat="43.81019" lon="7.25174">
        <ele>717</ele>
        <time>2013-09-01T14:01:24Z</time>
      </trkpt>
      <trkpt lat="43.8101" lon="7.2517">
        <ele>717</ele>
        <time>2013-09-01T14:02:09Z</time>
      </trkpt>
      <trkpt lat="43.81004" lon="7.25161">
        <ele>717</ele>
        <time>2013-09-01T14:02:23Z</time>
      </trkpt>
      <trkpt lat="43.80998" lon="7.25151">
        <ele>717</ele>
        <time>2013-09-01T14:02:31Z</time>
      </trkpt>
      <trkpt lat="43.80995" lon="7.25139">
        <ele>717</ele>
        <time>2013-09-01T14:02:44Z</time>
      </trkpt>
      <trkpt lat="43.80987" lon="7.2513">
        <ele>717</ele>
        <time>2013-09-01T14:02:51Z</time>
      </trkpt>
      <trkpt lat="43.8098" lon="7.25121">
        <ele>725</ele>
        <time>2013-09-01T14:03:06Z</time>
      </trkpt>
      <trkpt lat="43.80972" lon="7.25115">
        <ele>725</ele>
        <time>2013-09-01T14:03:17Z</time>
      </trkpt>
      <trkpt lat="43.80964" lon="7.25108">
        <ele>725</ele>
        <time>2013-09-01T14:03:27Z</time>
      </trkpt>
      <trkpt lat="43.80958" lon="7.25099">
        <ele>725</ele>
        <time>2013-09-01T14:03:46Z</time>
      </trkpt>
      <trkpt lat="43.80949" lon="7.25094">
        <ele>725</ele>
        <time>2013-09-01T14:03:54Z</time>
      </trkpt>
      <trkpt lat="43.80941" lon="7.25088">
        <ele>725</ele>
        <time>2013-09-01T14:04:05Z</time>
      </trkpt>
      <trkpt lat="43.80932" lon="7.25082">
        <ele>725</ele>
        <time>2013-09-01T14:04:23Z</time>
      </trkpt>
      <trkpt lat="43.80923" lon="7.25077">
        <ele>735</ele>
        <time>2013-09-01T14:04:35Z</time>
      </trkpt>
      <trkpt lat="43.80913" lon="7.25073">
        <ele>735</ele>
        <time>2013-09-01T14:04:43Z</time>
      </trkpt>
      <trkpt lat="43.80904" lon="7.2507">
        <ele>727</ele>
        <time>2013-09-01T14:04:54Z</time>
      </trkpt>
      <trkpt lat="43.80895" lon="7.25068">
        <ele>727</ele>
        <time>2013-09-01T14:05:08Z</time>
      </trkpt>
      <trkpt lat="43.80885" lon="7.25068">
        <ele>727</ele>
        <time>2013-09-01T14:05:16Z</time>
      </trkpt>
      <trkpt lat="43.80876" lon="7.25064">
        <ele>727</ele>
        <time>2013-09-01T14:05:22Z</time>
      </trkpt>
      <trkpt lat="43.80866" lon="7.25062">
        <ele>733</ele>
        <time>2013-09-01T14:05:38Z</time>
      </trkpt>
      <trkpt lat="43.80856" lon="7.25055">
        <ele>733</ele>
        <time>2013-09-01T14:05:48Z</time>
      </trkpt>
      <trkpt lat="43.80848" lon="7.2505">
        <ele>749</ele>
        <time>2013-09-01T14:06:13Z</time>
      </trkpt>
      <trkpt lat="43.80839" lon="7.25044">
        <ele>744</ele>
        <time>2013-09-01T14:06:28Z</time>
      </trkpt>
      <trkpt lat="43.8083" lon="7.25048">
        <ele>744</ele>
        <time>2013-09-01T14:06:38Z</time>
      </trkpt>
      <trkpt lat="43.80824" lon="7.25058">
        <ele>744</ele>
        <time>2013-09-01T14:06:50Z</time>
      </trkpt>
      <trkpt lat="43.80818" lon="7.25068">
        <ele>744</ele>
        <time>2013-09-01T14:07:03Z</time>
      </trkpt>
      <trkpt lat="43.80814" lon="7.2508">
        <ele>744</ele>
        <time>2013-09-01T14:07:12Z</time>
      </trkpt>
      <trkpt lat="43.80805" lon="7.25079">
        <ele>744</ele>
        <time>2013-09-01T14:07:18Z</time>
      </trkpt>
      <trkpt lat="43.808" lon="7.25089">
        <ele>744</ele>
        <time>2013-09-01T14:07:33Z</time>
      </trkpt>
      <trkpt lat="43.80794" lon="7.25099">
        <ele>744</ele>
        <time>2013-09-01T14:07:43Z</time>
      </trkpt>
      <trkpt lat="43.80783" lon="7.25099">
        <ele>744</ele>
        <time>2013-09-01T14:07:52Z</time>
      </trkpt>
      <trkpt lat="43.80775" lon="7.25108">
        <ele>737</ele>
        <time>2013-09-01T14:08:11Z</time>
      </trkpt>
      <trkpt lat="43.80764" lon="7.25112">
        <ele>737</ele>
        <time>2013-09-01T14:08:15Z</time>
      </trkpt>
      <trkpt lat="43.80755" lon="7.25109">
        <ele>737</ele>
        <time>2013-09-01T14:08:21Z</time>
      </trkpt>
      <trkpt lat="43.80746" lon="7.25113">
        <ele>737</ele>
        <time>2013-09-01T14:08:35Z</time>
      </trkpt>
      <trkpt lat="43.80735" lon="7.25108">
        <ele>737</ele>
        <time>2013-09-01T14:08:40Z</time>
      </trkpt>
      <trkpt lat="43.80725" lon="7.25108">
        <ele>737</ele>
        <time>2013-09-01T14:08:52Z</time>
      </trkpt>
      <trkpt lat="43.80713" lon="7.25107">
        <ele>737</ele>
        <time>2013-09-01T14:09:02Z</time>
      </trkpt>
      <trkpt lat="43.80703" lon="7.25104">
        <ele>737</ele>
        <time>2013-09-01T14:09:12Z</time>
      </trkpt>
      <trkpt lat="43.80693" lon="7.25099">
        <ele>737</ele>
        <time>2013-09-01T14:09:19Z</time>
      </trkpt>
      <trkpt lat="43.80684" lon="7.25098">
        <ele>730</ele>
        <time>2013-09-01T14:09:32Z</time>
      </trkpt>
      <trkpt lat="43.80674" lon="7.25098">
        <ele>736</ele>
        <time>2013-09-01T14:09:41Z</time>
      </trkpt>
      <trkpt lat="43.80664" lon="7.25099">
        <ele>736</ele>
        <time>2013-09-01T14:09:51Z</time>
      </trkpt>
      <trkpt lat="43.80654" lon="7.25099">
        <ele>736</ele>
        <time>2013-09-01T14:10:01Z</time>
      </trkpt>
      <trkpt lat="43.80645" lon="7.25099">
        <ele>736</ele>
        <time>2013-09-01T14:10:12Z</time>
      </trkpt>
      <trkpt lat="43.80636" lon="7.25102">
        <ele>736</ele>
        <time>2013-09-01T14:10:22Z</time>
      </trkpt>
      <trkpt lat="43.80627" lon="7.25106">
        <ele>736</ele>
        <time>2013-09-01T14:10:32Z</time>
      </trkpt>
      <trkpt lat="43.80621" lon="7.25117">
        <ele>736</ele>
        <time>2013-09-01T14:10:41Z</time>
      </trkpt>
      <trkpt lat="43.80612" lon="7.25117">
        <ele>736</ele>
        <time>2013-09-01T14:10:49Z</time>
      </trkpt>
      <trkpt lat="43.80604" lon="7.2511">
        <ele>736</ele>
        <time>2013-09-01T14:10:55Z</time>
      </trkpt>
      <trkpt lat="43.80595" lon="7.25109">
        <ele>736</ele>
        <time>2013-09-01T14:10:59Z</time>
      </trkpt>
      <trkpt lat="43.80587" lon="7.25117">
        <ele>729</ele>
        <time>2013-09-01T14:11:12Z</time>
      </trkpt>
      <trkpt lat="43.80579" lon="7.2512">
        <ele>729</ele>
        <time>2013-09-01T14:11:23Z</time>
      </trkpt>
      <trkpt lat="43.80569" lon="7.25117">
        <ele>729</ele>
        <time>2013-09-01T14:11:29Z</time>
      </trkpt>
      <trkpt lat="43.80559" lon="7.25121">
        <ele>729</ele>
        <time>2013-09-01T14:11:41Z</time>
      </trkpt>
      <trkpt lat="43.8055" lon="7.25117">
        <ele>729</ele>
        <time>2013-09-01T14:11:47Z</time>
      </trkpt>
      <trkpt lat="43.80541" lon="7.25116">
        <ele>735</ele>
        <time>2013-09-01T14:11:55Z</time>
      </trkpt>
      <trkpt lat="43.80532" lon="7.25117">
        <ele>735</ele>
        <time>2013-09-01T14:12:04Z</time>
      </trkpt>
      <trkpt lat="43.80522" lon="7.25121">
        <ele>724</ele>
        <time>2013-09-01T14:12:15Z</time>
      </trkpt>
      <trkpt lat="43.80513" lon="7.25126">
        <ele>724</ele>
        <time>2013-09-01T14:12:26Z</time>
      </trkpt>
      <trkpt lat="43.80502" lon="7.25122">
        <ele>734</ele>
        <time>2013-09-01T14:12:36Z</time>
      </trkpt>
      <trkpt lat="43.80493" lon="7.25127">
        <ele>734</ele>
        <time>2013-09-01T14:12:48Z</time>
      </trkpt>
      <trkpt lat="43.80485" lon="7.25131">
        <ele>734</ele>
        <time>2013-09-01T14:12:54Z</time>
      </trkpt>
      <trkpt lat="43.80476" lon="7.25135">
        <ele>734</ele>
        <time>2013-09-01T14:13:06Z</time>
      </trkpt>
      <trkpt lat="43.80468" lon="7.25139">
        <ele>734</ele>
        <time>2013-09-01T14:13:13Z</time>
      </trkpt>
      <trkpt lat="43.80459" lon="7.25144">
        <ele>734</ele>
        <time>2013-09-01T14:13:23Z</time>
      </trkpt>
      <trkpt lat="43.8045" lon="7.25145">
        <ele>734</ele>
        <time>2013-09-01T14:13:31Z</time>
      </trkpt>
      <trkpt lat="43.80441" lon="7.25149">
        <ele>734</ele>
        <time>2013-09-01T14:13:41Z</time>
      </trkpt>
      <trkpt lat="43.80434" lon="7.25156">
        <ele>729</ele>
        <time>2013-09-01T14:13:52Z</time>
      </trkpt>
      <trkpt lat="43.80425" lon="7.25158">
        <ele>729</ele>
        <time>2013-09-01T14:14:01Z</time>
      </trkpt>
      <trkpt lat="43.80416" lon="7.2516">
        <ele>729</ele>
        <time>2013-09-01T14:14:09Z</time>
      </trkpt>
      <trkpt lat="43.80406" lon="7.25161">
        <ele>729</ele>
        <time>2013-09-01T14:14:17Z</time>
      </trkpt>
      <trkpt lat="43.80397" lon="7.25161">
        <ele>729</ele>
        <time>2013-09-01T14:14:25Z</time>
      </trkpt>
      <trkpt lat="43.80387" lon="7.25163">
        <ele>721</ele>
        <time>2013-09-01T14:14:35Z</time>
      </trkpt>
      <trkpt lat="43.80377" lon="7.25164">
        <ele>726</ele>
        <time>2013-09-01T14:14:44Z</time>
      </trkpt>
      <trkpt lat="43.80368" lon="7.25164">
        <ele>720</ele>
        <time>2013-09-01T14:14:52Z</time>
      </trkpt>
      <trkpt lat="43.80358" lon="7.25168">
        <ele>720</ele>
        <time>2013-09-01T14:15:02Z</time>
      </trkpt>
      <trkpt lat="43.80349" lon="7.25169">
        <ele>710</ele>
        <time>2013-09-01T14:15:14Z</time>
      </trkpt>
      <trkpt lat="43.80338" lon="7.25165">
        <ele>716</ele>
        <time>2013-09-01T14:15:23Z</time>
      </trkpt>
      <trkpt lat="43.80329" lon="7.25165">
        <ele>716</ele>
        <time>2013-09-01T14:15:33Z</time>
      </trkpt>
      <trkpt lat="43.80319" lon="7.25164">
        <ele>716</ele>
        <time>2013-09-01T14:15:41Z</time>
      </trkpt>
      <trkpt lat="43.80309" lon="7.25163">
        <ele>716</ele>
        <time>2013-09-01T14:15:50Z</time>
      </trkpt>
      <trkpt lat="43.80301" lon="7.25157">
        <ele>716</ele>
        <time>2013-09-01T14:15:59Z</time>
      </trkpt>
      <trkpt lat="43.80293" lon="7.25152">
        <ele>716</ele>
        <time>2013-09-01T14:16:04Z</time>
      </trkpt>
      <trkpt lat="43.80284" lon="7.25148">
        <ele>716</ele>
        <time>2013-09-01T14:16:13Z</time>
      </trkpt>
      <trkpt lat="43.80276" lon="7.25141">
        <ele>710</ele>
        <time>2013-09-01T14:16:27Z</time>
      </trkpt>
      <trkpt lat="43.80268" lon="7.25134">
        <ele>717</ele>
        <time>2013-09-01T14:16:40Z</time>
      </trkpt>
      <trkpt lat="43.80261" lon="7.25125">
        <ele>717</ele>
        <time>2013-09-01T14:16:54Z</time>
      </trkpt>
      <trkpt lat="43.80252" lon="7.25115">
        <ele>717</ele>
        <time>2013-09-01T14:17:03Z</time>
      </trkpt>
      <trkpt lat="43.80248" lon="7.25104">
        <ele>717</ele>
        <time>2013-09-01T14:17:21Z</time>
      </trkpt>
      <trkpt lat="43.80239" lon="7.25101">
        <ele>717</ele>
        <time>2013-09-01T14:17:30Z</time>
      </trkpt>
      <trkpt lat="43.80233" lon="7.25091">
        <ele>707</ele>
        <time>2013-09-01T14:17:41Z</time>
      </trkpt>
      <trkpt lat="43.8023" lon="7.2508">
        <ele>712</ele>
        <time>2013-09-01T14:17:52Z</time>
      </trkpt>
      <trkpt lat="43.80222" lon="7.25072">
        <ele>719</ele>
        <time>2013-09-01T14:17:59Z</time>
      </trkpt>
      <trkpt lat="43.80217" lon="7.25061">
        <ele>719</ele>
        <time>2013-09-01T14:18:07Z</time>
      </trkpt>
      <trkpt lat="43.80212" lon="7.25048">
        <ele>726</ele>
        <time>2013-09-01T14:18:17Z</time>
      </trkpt>
      <trkpt lat="43.80208" lon="7.25038">
        <ele>726</ele>
        <time>2013-09-01T14:18:26Z</time>
      </trkpt>
      <trkpt lat="43.80202" lon="7.25028">
        <ele>717</ele>
        <time>2013-09-01T14:18:41Z</time>
      </trkpt>
      <trkpt lat="43.80194" lon="7.25019">
        <ele>717</ele>
        <time>2013-09-01T14:18:48Z</time>
      </trkpt>
      <trkpt lat="43.80187" lon="7.25011">
        <ele>717</ele>
        <time>2013-09-01T14:18:53Z</time>
      </trkpt>
      <trkpt lat="43.8018" lon="7.25">
        <ele>712</ele>
        <time>2013-09-01T14:19:04Z</time>
      </trkpt>
      <trkpt lat="43.80172" lon="7.24993">
        <ele>712</ele>
        <time>2013-09-01T14:19:14Z</time>
      </trkpt>
      <trkpt lat="43.80166" lon="7.24983">
        <ele>705</ele>
        <time>2013-09-01T14:19:26Z</time>
      </trkpt>
      <trkpt lat="43.80157" lon="7.24981">
        <ele>705</ele>
        <time>2013-09-01T14:19:35Z</time>
      </trkpt>
      <trkpt lat="43.80147" lon="7.24982">
        <ele>705</ele>
        <time>2013-09-01T14:19:43Z</time>
      </trkpt>
      <trkpt lat="43.80137" lon="7.24978">
        <ele>705</ele>
        <time>2013-09-01T14:19:50Z</time>
      </trkpt>
      <trkpt lat="43.80129" lon="7.24971">
        <ele>705</ele>
        <time>2013-09-01T14:20:01Z</time>
      </trkpt>
      <trkpt lat="43.80121" lon="7.2496">
        <ele>716</ele>
        <time>2013-09-01T14:20:15Z</time>
      </trkpt>
      <trkpt lat="43.80116" lon="7.2495">
        <ele>716</ele>
        <time>2013-09-01T14:20:26Z</time>
      </trkpt>
      <trkpt lat="43.80111" lon="7.2494">
        <ele>709</ele>
        <time>2013-09-01T14:20:32Z</time>
      </trkpt>
      <trkpt lat="43.80105" lon="7.24931">
        <ele>709</ele>
        <time>2013-09-01T14:20:40Z</time>
      </trkpt>
      <trkpt lat="43.80099" lon="7.24922">
        <ele>702</ele>
        <time>2013-09-01T14:20:49Z</time>
      </trkpt>
      <trkpt lat="43.80094" lon="7.24911">
        <ele>702</ele>
        <time>2013-09-01T14:20:59Z</time>
      </trkpt>
      <trkpt lat="43.80085" lon="7.24896">
        <ele>702</ele>
        <time>2013-09-01T14:21:10Z</time>
      </trkpt>
      <trkpt lat="43.80079" lon="7.24883">
        <ele>702</ele>
        <time>2013-09-01T14:21:20Z</time>
      </trkpt>
      <trkpt lat="43.80078" lon="7.2487">
        <ele>702</ele>
        <time>2013-09-01T14:21:28Z</time>
      </trkpt>
      <trkpt lat="43.80074" lon="7.24859">
        <ele>693</ele>
        <time>2013-09-01T14:21:35Z</time>
      </trkpt>
      <trkpt lat="43.80072" lon="7.24846">
        <ele>693</ele>
        <time>2013-09-01T14:21:43Z</time>
      </trkpt>
      <trkpt lat="43.80075" lon="7.24834">
        <ele>703</ele>
        <time>2013-09-01T14:21:54Z</time>
      </trkpt>
      <trkpt lat="43.80081" lon="7.24823">
        <ele>703</ele>
        <time>2013-09-01T14:22:02Z</time>
      </trkpt>
      <trkpt lat="43.80079" lon="7.24809">
        <ele>703</ele>
        <time>2013-09-01T14:22:10Z</time>
      </trkpt>
      <trkpt lat="43.80074" lon="7.24799">
        <ele>697</ele>
        <time>2013-09-01T14:22:21Z</time>
      </trkpt>
      <trkpt lat="43.80077" lon="7.24786">
        <ele>705</ele>
        <time>2013-09-01T14:22:32Z</time>
      </trkpt>
      <trkpt lat="43.80072" lon="7.24774">
        <ele>697</ele>
        <time>2013-09-01T14:22:40Z</time>
      </trkpt>
      <trkpt lat="43.80071" lon="7.24762">
        <ele>697</ele>
        <time>2013-09-01T14:22:49Z</time>
      </trkpt>
      <trkpt lat="43.80068" lon="7.24749">
        <ele>697</ele>
        <time>2013-09-01T14:22:55Z</time>
      </trkpt>
      <trkpt lat="43.80062" lon="7.24737">
        <ele>697</ele>
        <time>2013-09-01T14:23:03Z</time>
      </trkpt>
      <trkpt lat="43.80064" lon="7.24724">
        <ele>691</ele>
        <time>2013-09-01T14:24:00Z</time>
      </trkpt>
      <trkpt lat="43.8006" lon="7.24711">
        <ele>691</ele>
        <time>2013-09-01T14:24:09Z</time>
      </trkpt>
      <trkpt lat="43.80053" lon="7.24702">
        <ele>683</ele>
        <time>2013-09-01T14:24:18Z</time>
      </trkpt>
      <trkpt lat="43.80047" lon="7.24692">
        <ele>683</ele>
        <time>2013-09-01T14:24:25Z</time>
      </trkpt>
      <trkpt lat="43.80044" lon="7.2468">
        <ele>683</ele>
        <time>2013-09-01T14:24:33Z</time>
      </trkpt>
      <trkpt lat="43.80038" lon="7.2467">
        <ele>678</ele>
        <time>2013-09-01T14:24:40Z</time>
      </trkpt>
      <trkpt lat="43.80029" lon="7.24671">
        <ele>678</ele>
        <time>2013-09-01T14:24:49Z</time>
      </trkpt>
      <trkpt lat="43.80022" lon="7.24678">
        <ele>696</ele>
        <time>2013-09-01T14:25:06Z</time>
      </trkpt>
      <trkpt lat="43.80013" lon="7.24676">
        <ele>696</ele>
        <time>2013-09-01T14:25:17Z</time>
      </trkpt>
      <trkpt lat="43.80004" lon="7.24678">
        <ele>688</ele>
        <time>2013-09-01T14:25:27Z</time>
      </trkpt>
      <trkpt lat="43.79995" lon="7.24682">
        <ele>688</ele>
        <time>2013-09-01T14:25:43Z</time>
      </trkpt>
      <trkpt lat="43.79986" lon="7.24682">
        <ele>694</ele>
        <time>2013-09-01T14:25:58Z</time>
      </trkpt>
      <trkpt lat="43.79977" lon="7.24684">
        <ele>694</ele>
        <time>2013-09-01T14:26:11Z</time>
      </trkpt>
      <trkpt lat="43.79968" lon="7.2468">
        <ele>694</ele>
        <time>2013-09-01T14:26:20Z</time>
      </trkpt>
      <trkpt lat="43.7996" lon="7.24685">
        <ele>694</ele>
        <time>2013-09-01T14:26:33Z</time>
      </trkpt>
      <trkpt lat="43.79952" lon="7.24693">
        <ele>694</ele>
        <time>2013-09-01T14:26:46Z</time>
      </trkpt>
      <trkpt lat="43.79943" lon="7.24692">
        <ele>699</ele>
        <time>2013-09-01T14:26:58Z</time>
      </trkpt>
      <trkpt lat="43.79934" lon="7.24693">
        <ele>699</ele>
        <time>2013-09-01T14:27:12Z</time>
      </trkpt>
      <trkpt lat="43.79925" lon="7.24698">
        <ele>699</ele>
        <time>2013-09-01T14:27:25Z</time>
      </trkpt>
      <trkpt lat="43.79914" lon="7.24697">
        <ele>699</ele>
        <time>2013-09-01T14:27:37Z</time>
      </trkpt>
      <trkpt lat="43.79906" lon="7.24704">
        <ele>699</ele>
        <time>2013-09-01T14:27:50Z</time>
      </trkpt>
      <trkpt lat="43.79896" lon="7.24703">
        <ele>699</ele>
        <time>2013-09-01T14:28:04Z</time>
      </trkpt>
      <trkpt lat="43.79888" lon="7.24708">
        <ele>699</ele>
        <time>2013-09-01T14:28:18Z</time>
      </trkpt>
      <trkpt lat="43.79879" lon="7.24708">
        <ele>705</ele>
        <time>2013-09-01T14:28:30Z</time>
      </trkpt>
      <trkpt lat="43.7987" lon="7.24711">
        <ele>705</ele>
        <time>2013-09-01T14:28:43Z</time>
      </trkpt>
      <trkpt lat="43.79861" lon="7.24717">
        <ele>705</ele>
        <time>2013-09-01T14:28:58Z</time>
      </trkpt>
      <trkpt lat="43.79852" lon="7.24722">
        <ele>705</ele>
        <time>2013-09-01T14:29:10Z</time>
      </trkpt>
      <trkpt lat="43.79843" lon="7.24728">
        <ele>705</ele>
        <time>2013-09-01T14:29:20Z</time>
      </trkpt>
      <trkpt lat="43.79836" lon="7.24735">
        <ele>705</ele>
        <time>2013-09-01T14:29:37Z</time>
      </trkpt>
      <trkpt lat="43.79828" lon="7.24741">
        <ele>705</ele>
        <time>2013-09-01T14:29:49Z</time>
      </trkpt>
      <trkpt lat="43.7982" lon="7.24748">
        <ele>705</ele>
        <time>2013-09-01T14:30:01Z</time>
      </trkpt>
      <trkpt lat="43.79811" lon="7.24751">
        <ele>711</ele>
        <time>2013-09-01T14:30:21Z</time>
      </trkpt>
      <trkpt lat="43.79805" lon="7.24761">
        <ele>711</ele>
        <time>2013-09-01T14:30:41Z</time>
      </trkpt>
      <trkpt lat="43.79798" lon="7.2477">
        <ele>711</ele>
        <time>2013-09-01T14:30:51Z</time>
      </trkpt>
      <trkpt lat="43.7979" lon="7.24775">
        <ele>711</ele>
        <time>2013-09-01T14:31:00Z</time>
      </trkpt>
      <trkpt lat="43.79781" lon="7.24779">
        <ele>711</ele>
        <time>2013-09-01T14:31:09Z</time>
      </trkpt>
      <trkpt lat="43.79772" lon="7.24782">
        <ele>711</ele>
        <time>2013-09-01T14:31:19Z</time>
      </trkpt>
      <trkpt lat="43.79762" lon="7.24785">
        <ele>711</ele>
        <time>2013-09-01T14:31:28Z</time>
      </trkpt>
      <trkpt lat="43.79753" lon="7.24788">
        <ele>711</ele>
        <time>2013-09-01T14:31:36Z</time>
      </trkpt>
      <trkpt lat="43.79744" lon="7.24789">
        <ele>711</ele>
        <time>2013-09-01T14:31:46Z</time>
      </trkpt>
      <trkpt lat="43.79735" lon="7.24793">
        <ele>711</ele>
        <time>2013-09-01T14:31:51Z</time>
      </trkpt>
      <trkpt lat="43.79724" lon="7.24799">
        <ele>711</ele>
        <time>2013-09-01T14:32:01Z</time>
      </trkpt>
      <trkpt lat="43.79719" lon="7.24811">
        <ele>705</ele>
        <time>2013-09-01T14:32:11Z</time>
      </trkpt>
      <trkpt lat="43.79713" lon="7.24822">
        <ele>705</ele>
        <time>2013-09-01T14:32:20Z</time>
      </trkpt>
      <trkpt lat="43.79705" lon="7.24826">
        <ele>705</ele>
        <time>2013-09-01T14:32:28Z</time>
      </trkpt>
      <trkpt lat="43.79695" lon="7.2483">
        <ele>705</ele>
        <time>2013-09-01T14:32:36Z</time>
      </trkpt>
      <trkpt lat="43.79686" lon="7.24834">
        <ele>705</ele>
        <time>2013-09-01T14:32:44Z</time>
      </trkpt>
      <trkpt lat="43.7968" lon="7.24843">
        <ele>705</ele>
        <time>2013-09-01T14:32:52Z</time>
      </trkpt>
      <trkpt lat="43.79673" lon="7.24852">
        <ele>700</ele>
        <time>2013-09-01T14:32:59Z</time>
      </trkpt>
      <trkpt lat="43.79667" lon="7.24861">
        <ele>700</ele>
        <time>2013-09-01T14:33:08Z</time>
      </trkpt>
      <trkpt lat="43.79661" lon="7.24872">
        <ele>700</ele>
        <time>2013-09-01T14:33:17Z</time>
      </trkpt>
      <trkpt lat="43.79654" lon="7.24881">
        <ele>700</ele>
        <time>2013-09-01T14:33:25Z</time>
      </trkpt>
      <trkpt lat="43.79645" lon="7.2488">
        <ele>700</ele>
        <time>2013-09-01T14:33:33Z</time>
      </trkpt>
      <trkpt lat="43.79636" lon="7.24884">
        <ele>700</ele>
        <time>2013-09-01T14:33:42Z</time>
      </trkpt>
      <trkpt lat="43.79628" lon="7.2489">
        <ele>700</ele>
        <time>2013-09-01T14:33:51Z</time>
      </trkpt>
      <trkpt lat="43.7962" lon="7.24894">
        <ele>691</ele>
        <time>2013-09-01T14:33:59Z</time>
      </trkpt>
      <trkpt lat="43.79611" lon="7.24897">
        <ele>691</ele>
        <time>2013-09-01T14:34:08Z</time>
      </trkpt>
      <trkpt lat="43.79602" lon="7.24899">
        <ele>691</ele>
        <time>2013-09-01T14:34:18Z</time>
      </trkpt>
      <trkpt lat="43.79593" lon="7.24898">
        <ele>691</ele>
        <time>2013-09-01T14:34:24Z</time>
      </trkpt>
      <trkpt lat="43.79583" lon="7.24897">
        <ele>691</ele>
        <time>2013-09-01T14:34:33Z</time>
      </trkpt>
      <trkpt lat="43.79574" lon="7.24895">
        <ele>685</ele>
        <time>2013-09-01T14:34:39Z</time>
      </trkpt>
      <trkpt lat="43.79564" lon="7.24897">
        <ele>685</ele>
        <time>2013-09-01T14:34:51Z</time>
      </trkpt>
      <trkpt lat="43.79555" lon="7.24898">
        <ele>685</ele>
        <time>2013-09-01T14:34:59Z</time>
      </trkpt>
      <trkpt lat="43.79545" lon="7.24897">
        <ele>685</ele>
        <time>2013-09-01T14:35:07Z</time>
      </trkpt>
      <trkpt lat="43.79536" lon="7.24894">
        <ele>685</ele>
        <time>2013-09-01T14:35:14Z</time>
      </trkpt>
      <trkpt lat="43.79526" lon="7.24895">
        <ele>685</ele>
        <time>2013-09-01T14:35:25Z</time>
      </trkpt>
      <trkpt lat="43.79517" lon="7.24894">
        <ele>685</ele>
        <time>2013-09-01T14:35:30Z</time>
      </trkpt>
      <trkpt lat="43.79508" lon="7.24893">
        <ele>679</ele>
        <time>2013-09-01T14:35:39Z</time>
      </trkpt>
      <trkpt lat="43.79498" lon="7.2489">
        <ele>679</ele>
        <time>2013-09-01T14:35:50Z</time>
      </trkpt>
      <trkpt lat="43.79489" lon="7.24887">
        <ele>679</ele>
        <time>2013-09-01T14:35:58Z</time>
      </trkpt>
      <trkpt lat="43.79479" lon="7.24883">
        <ele>688</ele>
        <time>2013-09-01T14:36:08Z</time>
      </trkpt>
      <trkpt lat="43.79471" lon="7.24879">
        <ele>688</ele>
        <time>2013-09-01T14:36:15Z</time>
      </trkpt>
      <trkpt lat="43.79462" lon="7.24873">
        <ele>688</ele>
        <time>2013-09-01T14:36:25Z</time>
      </trkpt>
      <trkpt lat="43.79453" lon="7.2487">
        <ele>682</ele>
        <time>2013-09-01T14:36:31Z</time>
      </trkpt>
      <trkpt lat="43.79444" lon="7.24867">
        <ele>682</ele>
        <time>2013-09-01T14:36:42Z</time>
      </trkpt>
      <trkpt lat="43.79436" lon="7.24861">
        <ele>689</ele>
        <time>2013-09-01T14:36:52Z</time>
      </trkpt>
      <trkpt lat="43.79425" lon="7.24858">
        <ele>689</ele>
        <time>2013-09-01T14:36:59Z</time>
      </trkpt>
      <trkpt lat="43.79417" lon="7.24853">
        <ele>683</ele>
        <time>2013-09-01T14:37:05Z</time>
      </trkpt>
      <trkpt lat="43.79407" lon="7.24846">
        <ele>683</ele>
        <time>2013-09-01T14:37:14Z</time>
      </trkpt>
      <trkpt lat="43.79398" lon="7.24842">
        <ele>683</ele>
        <time>2013-09-01T14:37:23Z</time>
      </trkpt>
      <trkpt lat="43.79389" lon="7.24839">
        <ele>683</ele>
        <time>2013-09-01T14:37:33Z</time>
      </trkpt>
      <trkpt lat="43.79379" lon="7.24836">
        <ele>683</ele>
        <time>2013-09-01T14:37:40Z</time>
      </trkpt>
      <trkpt lat="43.7937" lon="7.24832">
        <ele>683</ele>
        <time>2013-09-01T14:37:48Z</time>
      </trkpt>
      <trkpt lat="43.79361" lon="7.24833">
        <ele>683</ele>
        <time>2013-09-01T14:38:19Z</time>
      </trkpt>
      <trkpt lat="43.79352" lon="7.24833">
        <ele>678</ele>
        <time>2013-09-01T14:38:53Z</time>
      </trkpt>
      <trkpt lat="43.79343" lon="7.24832">
        <ele>678</ele>
        <time>2013-09-01T14:39:09Z</time>
      </trkpt>
      <trkpt lat="43.79334" lon="7.24827">
        <ele>671</ele>
        <time>2013-09-01T14:39:21Z</time>
      </trkpt>
      <trkpt lat="43.79325" lon="7.24826">
        <ele>683</ele>
        <time>2013-09-01T14:39:33Z</time>
      </trkpt>
      <trkpt lat="43.79317" lon="7.24817">
        <ele>678</ele>
        <time>2013-09-01T14:39:42Z</time>
      </trkpt>
      <trkpt lat="43.79308" lon="7.24814">
        <ele>678</ele>
        <time>2013-09-01T14:39:52Z</time>
      </trkpt>
      <trkpt lat="43.793" lon="7.24806">
        <ele>684</ele>
        <time>2013-09-01T14:39:59Z</time>
      </trkpt>
      <trkpt lat="43.79293" lon="7.24796">
        <ele>675</ele>
        <time>2013-09-01T14:40:07Z</time>
      </trkpt>
      <trkpt lat="43.79285" lon="7.24785">
        <ele>675</ele>
        <time>2013-09-01T14:40:19Z</time>
      </trkpt>
      <trkpt lat="43.79276" lon="7.24785">
        <ele>669</ele>
        <time>2013-09-01T14:40:39Z</time>
      </trkpt>
      <trkpt lat="43.79269" lon="7.24779">
        <ele>669</ele>
        <time>2013-09-01T14:40:52Z</time>
      </trkpt>
      <trkpt lat="43.79259" lon="7.24775">
        <ele>669</ele>
        <time>2013-09-01T14:41:00Z</time>
      </trkpt>
      <trkpt lat="43.7925" lon="7.24772">
        <ele>669</ele>
        <time>2013-09-01T14:41:44Z</time>
      </trkpt>
      <trkpt lat="43.79241" lon="7.24772">
        <ele>669</ele>
        <time>2013-09-01T14:41:51Z</time>
      </trkpt>
      <trkpt lat="43.79232" lon="7.24769">
        <ele>663</ele>
        <time>2013-09-01T14:41:58Z</time>
      </trkpt>
      <trkpt lat="43.79222" lon="7.2477">
        <ele>663</ele>
        <time>2013-09-01T14:42:08Z</time>
      </trkpt>
      <trkpt lat="43.79213" lon="7.24765">
        <ele>663</ele>
        <time>2013-09-01T14:42:17Z</time>
      </trkpt>
      <trkpt lat="43.79205" lon="7.24759">
        <ele>663</ele>
        <time>2013-09-01T14:42:29Z</time>
      </trkpt>
      <trkpt lat="43.79196" lon="7.24755">
        <ele>663</ele>
        <time>2013-09-01T14:42:38Z</time>
      </trkpt>
      <trkpt lat="43.79189" lon="7.24748">
        <ele>656</ele>
        <time>2013-09-01T14:42:46Z</time>
      </trkpt>
      <trkpt lat="43.79179" lon="7.24748">
        <ele>656</ele>
        <time>2013-09-01T14:42:55Z</time>
      </trkpt>
      <trkpt lat="43.7917" lon="7.24746">
        <ele>656</ele>
        <time>2013-09-01T14:43:07Z</time>
      </trkpt>
      <trkpt lat="43.79161" lon="7.24746">
        <ele>656</ele>
        <time>2013-09-01T14:43:25Z</time>
      </trkpt>
      <trkpt lat="43.79152" lon="7.24745">
        <ele>656</ele>
        <time>2013-09-01T14:43:35Z</time>
      </trkpt>
      <trkpt lat="43.79142" lon="7.24746">
        <ele>651</ele>
        <time>2013-09-01T14:43:44Z</time>
      </trkpt>
      <trkpt lat="43.79133" lon="7.24746">
        <ele>651</ele>
        <time>2013-09-01T14:44:35Z</time>
      </trkpt>
      <trkpt lat="43.79124" lon="7.24746">
        <ele>651</ele>
        <time>2013-09-01T14:44:45Z</time>
      </trkpt>
      <trkpt lat="43.79116" lon="7.2475">
        <ele>651</ele>
        <time>2013-09-01T14:44:58Z</time>
      </trkpt>
      <trkpt lat="43.79107" lon="7.24749">
        <ele>644</ele>
        <time>2013-09-01T14:45:08Z</time>
      </trkpt>
      <trkpt lat="43.79098" lon="7.24755">
        <ele>644</ele>
        <time>2013-09-01T14:45:18Z</time>
      </trkpt>
      <trkpt lat="43.7909" lon="7.2476">
        <ele>644</ele>
        <time>2013-09-01T14:45:28Z</time>
      </trkpt>
      <trkpt lat="43.79081" lon="7.24757">
        <ele>644</ele>
        <time>2013-09-01T14:45:37Z</time>
      </trkpt>
      <trkpt lat="43.79072" lon="7.24763">
        <ele>644</ele>
        <time>2013-09-01T14:45:50Z</time>
      </trkpt>
      <trkpt lat="43.79063" lon="7.24763">
        <ele>637</ele>
        <time>2013-09-01T14:46:00Z</time>
      </trkpt>
      <trkpt lat="43.79053" lon="7.24764">
        <ele>637</ele>
        <time>2013-09-01T14:46:09Z</time>
      </trkpt>
      <trkpt lat="43.79045" lon="7.24768">
        <ele>631</ele>
        <time>2013-09-01T14:46:22Z</time>
      </trkpt>
      <trkpt lat="43.79036" lon="7.24769">
        <ele>631</ele>
        <time>2013-09-01T14:46:31Z</time>
      </trkpt>
      <trkpt lat="43.79027" lon="7.24772">
        <ele>631</ele>
        <time>2013-09-01T14:46:39Z</time>
      </trkpt>
      <trkpt lat="43.79017" lon="7.24772">
        <ele>631</ele>
        <time>2013-09-01T14:46:47Z</time>
      </trkpt>
      <trkpt lat="43.79009" lon="7.24779">
        <ele>631</ele>
        <time>2013-09-01T14:47:00Z</time>
      </trkpt>
      <trkpt lat="43.79" lon="7.24781">
        <ele>624</ele>
        <time>2013-09-01T14:47:09Z</time>
      </trkpt>
      <trkpt lat="43.7899" lon="7.24785">
        <ele>619</ele>
        <time>2013-09-01T14:47:20Z</time>
      </trkpt>
      <trkpt lat="43.7898" lon="7.24785">
        <ele>619</ele>
        <time>2013-09-01T14:47:35Z</time>
      </trkpt>
      <trkpt lat="43.78969" lon="7.24786">
        <ele>619</ele>
        <time>2013-09-01T14:47:44Z</time>
      </trkpt>
      <trkpt lat="43.78959" lon="7.24791">
        <ele>612</ele>
        <time>2013-09-01T14:47:52Z</time>
      </trkpt>
      <trkpt lat="43.7895" lon="7.24793">
        <ele>612</ele>
        <time>2013-09-01T14:48:01Z</time>
      </trkpt>
      <trkpt lat="43.78942" lon="7.24787">
        <ele>612</ele>
        <time>2013-09-01T14:48:29Z</time>
      </trkpt>
      <trkpt lat="43.78934" lon="7.24781">
        <ele>612</ele>
        <time>2013-09-01T14:48:41Z</time>
      </trkpt>
      <trkpt lat="43.78927" lon="7.24773">
        <ele>605</ele>
        <time>2013-09-01T14:48:52Z</time>
      </trkpt>
      <trkpt lat="43.78921" lon="7.24763">
        <ele>605</ele>
        <time>2013-09-01T14:49:07Z</time>
      </trkpt>
      <trkpt lat="43.78911" lon="7.24759">
        <ele>605</ele>
        <time>2013-09-01T14:49:12Z</time>
      </trkpt>
      <trkpt lat="43.78907" lon="7.24747">
        <ele>605</ele>
        <time>2013-09-01T14:49:29Z</time>
      </trkpt>
      <trkpt lat="43.78909" lon="7.24734">
        <ele>605</ele>
        <time>2013-09-01T14:49:44Z</time>
      </trkpt>
      <trkpt lat="43.78905" lon="7.24722">
        <ele>597</ele>
        <time>2013-09-01T14:49:55Z</time>
      </trkpt>
      <trkpt lat="43.78902" lon="7.2471">
        <ele>597</ele>
        <time>2013-09-01T14:50:04Z</time>
      </trkpt>
      <trkpt lat="43.78898" lon="7.24698">
        <ele>589</ele>
        <time>2013-09-01T14:50:14Z</time>
      </trkpt>
      <trkpt lat="43.78898" lon="7.24684">
        <ele>589</ele>
        <time>2013-09-01T14:50:26Z</time>
      </trkpt>
      <trkpt lat="43.7889" lon="7.24678">
        <ele>589</ele>
        <time>2013-09-01T14:50:38Z</time>
      </trkpt>
      <trkpt lat="43.78883" lon="7.24669">
        <ele>589</ele>
        <time>2013-09-01T14:50:53Z</time>
      </trkpt>
      <trkpt lat="43.78885" lon="7.24657">
        <ele>589</ele>
        <time>2013-09-01T14:51:09Z</time>
      </trkpt>
      <trkpt lat="43.78875" lon="7.24654">
        <ele>589</ele>
        <time>2013-09-01T14:51:24Z</time>
      </trkpt>
      <trkpt lat="43.78866" lon="7.24653">
        <ele>589</ele>
        <time>2013-09-01T14:51:39Z</time>
      </trkpt>
      <trkpt lat="43.78857" lon="7.24649">
        <ele>581</ele>
        <time>2013-09-01T14:51:47Z</time>
      </trkpt>
      <trkpt lat="43.7885" lon="7.24642">
        <ele>581</ele>
        <time>2013-09-01T14:51:55Z</time>
      </trkpt>
      <trkpt lat="43.78842" lon="7.24634">
        <ele>581</ele>
        <time>2013-09-01T14:52:03Z</time>
      </trkpt>
      <trkpt lat="43.78834" lon="7.24625">
        <ele>581</ele>
        <time>2013-09-01T14:52:09Z</time>
      </trkpt>
      <trkpt lat="43.78825" lon="7.24624">
        <ele>575</ele>
        <time>2013-09-01T14:52:17Z</time>
      </trkpt>
      <trkpt lat="43.7882" lon="7.24614">
        <ele>569</ele>
        <time>2013-09-01T14:52:34Z</time>
      </trkpt>
      <trkpt lat="43.78815" lon="7.24603">
        <ele>569</ele>
        <time>2013-09-01T14:52:43Z</time>
      </trkpt>
      <trkpt lat="43.78823" lon="7.24596">
        <ele>569</ele>
        <time>2013-09-01T14:53:01Z</time>
      </trkpt>
      <trkpt lat="43.78833" lon="7.24596">
        <ele>574</ele>
        <time>2013-09-01T14:53:09Z</time>
      </trkpt>
      <trkpt lat="43.78841" lon="7.2459">
        <ele>574</ele>
        <time>2013-09-01T14:53:18Z</time>
      </trkpt>
      <trkpt lat="43.78846" lon="7.24579">
        <ele>574</ele>
        <time>2013-09-01T14:53:24Z</time>
      </trkpt>
      <trkpt lat="43.78844" lon="7.24567">
        <ele>574</ele>
        <time>2013-09-01T14:53:31Z</time>
      </trkpt>
      <trkpt lat="43.78841" lon="7.24555">
        <ele>568</ele>
        <time>2013-09-01T14:53:43Z</time>
      </trkpt>
      <trkpt lat="43.78835" lon="7.24545">
        <ele>568</ele>
        <time>2013-09-01T14:53:55Z</time>
      </trkpt>
      <trkpt lat="43.78829" lon="7.24535">
        <ele>568</ele>
        <time>2013-09-01T14:54:05Z</time>
      </trkpt>
    </trkseg>
  </trk>
</gpx>